[[{"header":{"parameterUnit":"m.s-1","parameterCategory":1,"la1":30.6,"la2":28.766,"lo1":-90.7593,"lo2":-88.6598,"dy":0.0162,"dx":0.0183,"nx":116,"ny":114,"refTime":"2023-04-23T18:00:00:Z","depth":0,"parameterNumber":2,"parameterNumberName":"U-component_of_WINDS"},"data":[0.0,0.0,0.0,0.0,0.0,0.0,0.0,0.0,0.0,0.0,0.0,0.0,0.0,0.0,0.0,0.0,0.0,0.0,0.0,0.0,0.0,0.0,0.0,0.0,0.0,0.0,0.0,0.0,0.0,0.0,0.0,0.0,0.0,0.0,0.0,0.0,0.0,0.0,0.0,0.0,0.0,0.0,0.0,0.0,0.0,0.0,0.0,0.0,0.0,0.0,0.0,0.0,0.0,0.0,0.0,0.0,0.0,0.0,0.0,0.0,0.0,0.0,0.0,0.0,0.0,0.0,0.0,0.0,0.0,0.0,0.0,0.0,0.0,0.0,0.0,0.0,0.0,0.0,0.0,0.0,0.0,0.0,0.0,0.0,0.0,0.0,0.0,0.0,0.0,0.0,0.0,0.0,0.0,0.0,0.0,0.0,0.0,0.0,0.0,0.0,0.0,0.0,0.0,0.0,0.0,0.0,0.0,0.0,0.0,0.0,0.0,0.0,0.0,0.0,0.0,0.0,0.0,0.0,0.0,0.0,0.0,0.0,0.0,0.0,0.0,0.0,0.0,0.0,0.0,0.0,0.0,0.0,0.0,0.0,0.0,0.0,0.0,0.0,0.0,0.0,0.0,0.0,0.0,0.0,0.0,0.0,0.0,0.0,0.0,0.0,0.0,0.0,0.0,0.0,0.0,0.0,0.0,0.0,0.0,0.0,0.0,0.0,0.0,0.0,0.0,0.0,0.0,0.0,0.0,0.0,0.0,0.0,0.0,0.0,0.0,0.0,0.0,0.0,0.0,0.0,0.0,0.0,0.0,0.0,0.0,0.0,0.0,0.0,0.0,0.0,0.0,0.0,0.0,0.0,0.0,0.0,0.0,0.0,0.0,0.0,0.0,0.0,0.0,0.0,0.0,0.0,0.0,0.0,0.0,0.0,0.0,0.0,0.0,0.0,0.0,0.0,0.0,0.0,0.0,0.0,0.0,0.0,0.0,0.0,0.0,0.0,0.0,0.0,0.0,0.0,0.0,0.0,0.0,0.0,0.0,0.0,0.0,0.0,0.0,0.0,0.0,0.0,0.0,0.0,0.0,0.0,0.0,0.0,0.0,0.0,0.0,0.0,0.0,0.0,0.0,0.0,0.0,0.0,0.0,0.0,0.0,0.0,0.0,0.0,0.0,0.0,0.0,0.0,0.0,0.0,0.0,0.0,0.0,0.0,0.0,0.0,0.0,0.0,0.0,0.0,0.0,0.0,0.0,0.0,0.0,0.0,0.0,0.0,0.0,0.0,0.0,0.0,0.0,0.0,0.0,0.0,0.0,0.0,0.0,0.0,0.0,0.0,0.0,0.0,0.0,0.0,0.0,0.0,0.0,0.0,0.0,0.0,0.0,0.0,0.0,0.0,0.0,0.0,0.0,0.0,0.0,0.0,0.0,0.0,0.0,0.0,0.0,0.0,0.0,0.0,0.0,0.0,0.0,0.0,0.0,0.0,0.0,0.0,0.0,0.0,0.0,0.0,0.0,0.0,0.0,0.0,0.0,0.0,0.0,0.0,0.0,0.0,0.0,0.0,0.0,0.0,0.0,0.0,0.0,0.0,0.0,0.0,0.0,0.0,0.0,0.0,0.0,0.0,0.0,0.0,0.0,0.0,0.0,0.0,0.0,0.0,0.0,0.0,0.0,0.0,0.0,0.0,0.0,0.0,0.0,0.0,0.0,0.0,0.0,0.0,0.0,0.0,0.0,0.0,0.0,0.0,0.0,0.0,0.0,0.0,0.0,0.0,0.0,0.0,0.0,0.0,0.0,0.0,0.0,0.0,0.0,0.0,0.0,0.0,0.0,0.0,0.0,0.0,0.0,0.0,0.0,0.0,0.0,0.0,0.0,0.0,0.0,0.0,0.0,0.0,0.0,0.0,0.0,0.0,0.0,0.0,0.0,0.0,0.0,0.0,0.0,0.0,0.0,0.0,0.0,0.0,0.0,0.0,0.0,0.0,0.0,0.0,0.0,0.0,0.0,0.0,0.0,0.0,0.0,0.0,0.0,0.0,0.0,0.0,0.0,0.0,0.0,0.0,0.0,0.0,0.0,0.0,0.0,0.0,0.0,0.0,0.0,0.0,0.0,0.0,0.0,0.0,0.0,0.0,0.0,0.0,0.0,0.0,0.0,0.0,0.0,0.0,0.0,0.0,0.0,0.0,0.0,0.0,0.0,0.0,0.0,0.0,0.0,0.0,0.0,0.0,0.0,0.0,0.0,0.0,0.0,0.0,0.0,0.0,0.0,0.0,0.0,0.0,0.0,0.0,0.0,0.0,0.0,0.0,0.0,0.0,0.0,0.0,0.0,0.0,0.0,0.0,0.0,0.0,0.0,0.0,0.0,0.0,0.0,0.0,0.0,0.0,0.0,0.0,0.0,0.0,0.0,0.0,0.0,0.0,0.0,0.0,0.0,0.0,0.0,0.0,0.0,0.0,0.0,0.0,0.0,0.0,0.0,0.0,0.0,0.0,0.0,0.0,0.0,0.0,0.0,0.0,0.0,0.0,0.0,0.0,0.0,0.0,0.0,0.0,0.0,0.0,0.0,0.0,0.0,0.0,0.0,0.0,0.0,0.0,0.0,0.0,0.0,0.0,0.0,0.0,0.0,0.0,0.0,0.0,0.0,0.0,0.0,0.0,0.0,0.0,0.0,0.0,0.0,0.0,0.0,0.0,0.0,0.0,0.0,0.0,0.0,0.0,0.0,0.0,0.0,0.0,0.0,0.0,0.0,0.0,0.0,0.0,0.0,0.0,0.0,0.0,0.0,0.0,0.0,0.0,0.0,0.0,0.0,0.0,0.0,0.0,0.0,0.0,0.0,0.0,0.0,0.0,0.0,0.0,0.0,0.0,0.0,0.0,0.0,0.0,0.0,0.0,0.0,0.0,0.0,0.0,0.0,0.0,0.0,0.0,0.0,0.0,0.0,0.0,0.0,0.0,0.0,0.0,0.0,0.0,0.0,0.0,0.0,0.0,0.0,0.0,0.0,0.0,0.0,0.0,0.0,0.0,0.0,0.0,0.0,0.0,0.0,0.0,0.0,0.0,0.0,0.0,0.0,0.0,0.0,0.0,0.0,0.0,0.0,0.0,0.0,0.0,0.0,0.0,0.0,0.0,0.0,0.0,0.0,0.0,0.0,0.0,0.0,0.0,0.0,0.0,0.0,0.0,0.0,0.0,0.0,0.0,0.0,0.0,0.0,0.0,0.0,0.0,0.0,0.0,0.0,0.0,0.0,0.0,0.0,0.0,0.0,0.0,0.0,0.0,0.0,0.0,0.0,0.0,0.0,0.0,0.0,0.0,0.0,0.0,0.0,0.0,0.0,0.0,0.0,0.0,0.0,0.0,0.0,0.0,0.0,0.0,0.0,0.0,0.0,0.0,0.0,0.0,0.0,0.0,0.0,0.0,0.0,0.0,0.0,0.0,0.0,0.0,0.0,0.0,0.0,0.0,0.0,0.0,0.0,0.0,0.0,0.0,0.0,0.0,0.0,0.0,0.0,0.0,0.0,0.0,0.0,0.0,0.0,0.0,0.0,0.0,0.0,0.0,0.0,0.0,0.0,0.0,0.0,0.0,0.0,0.0,0.0,0.0,0.0,0.0,0.0,0.0,0.0,0.0,0.0,0.0,0.0,0.0,0.0,0.0,0.0,0.0,0.0,0.0,0.0,0.0,0.0,0.0,0.0,0.0,0.0,0.0,0.0,0.0,0.0,0.0,0.0,0.0,0.0,0.0,0.0,0.0,0.0,0.0,0.0,0.0,0.0,0.0,0.0,0.0,0.0,0.0,0.0,0.0,0.0,0.0,0.0,0.0,0.0,0.0,0.0,0.0,0.0,0.0,0.0,0.0,0.0,0.0,0.0,0.0,0.0,0.0,0.0,0.0,0.0,0.0,0.0,0.0,0.0,0.0,0.0,0.0,0.0,0.0,0.0,0.0,0.0,0.0,0.0,0.0,0.0,0.0,0.0,0.0,0.0,0.0,0.0,0.0,0.0,0.0,0.0,0.0,0.0,0.0,0.0,0.0,0.0,0.0,0.0,0.0,0.0,0.0,0.0,0.0,0.0,0.0,0.0,0.0,0.0,0.0,0.0,0.0,0.0,0.0,0.0,0.0,0.0,0.0,0.0,0.0,0.0,0.0,0.0,0.0,0.0,0.0,0.0,0.0,0.0,0.0,0.0,0.0,0.0,0.0,0.0,0.0,0.0,0.0,0.0,0.0,0.0,0.0,0.0,0.0,0.0,0.0,0.0,0.0,0.0,0.0,0.0,0.0,0.0,0.0,0.0,0.0,0.0,0.0,0.0,0.0,0.0,0.0,0.0,0.0,0.0,0.0,0.0,0.0,0.0,0.0,0.0,0.0,0.0,0.0,0.0,0.0,0.0,0.0,0.0,0.0,0.0,0.0,0.0,0.0,0.0,0.0,0.0,0.0,0.0,0.0,0.0,0.0,0.0,0.0,0.0,0.0,0.0,0.0,0.0,0.0,0.0,0.0,0.0,0.0,0.0,0.0,0.0,0.0,0.0,0.0,0.0,0.0,0.0,0.0,0.0,0.0,0.0,0.0,0.0,0.0,0.0,0.0,0.0,0.0,0.0,0.0,0.0,0.0,0.0,0.0,0.0,0.0,0.0,0.0,0.0,0.0,0.0,0.0,0.0,0.0,0.0,0.0,0.0,0.0,0.0,0.0,0.0,0.0,0.0,0.0,0.0,0.0,0.0,0.0,0.0,0.0,0.0,0.0,0.0,0.0,0.0,0.0,0.0,0.0,0.0,0.0,0.0,0.0,0.0,0.0,0.0,0.0,0.0,0.0,0.0,0.0,0.0,0.0,0.0,0.0,0.0,0.0,0.0,0.0,0.0,0.0,0.0,0.0,0.0,0.0,0.0,0.0,0.0,0.0,0.0,0.0,0.0,0.0,0.0,0.0,0.0,0.0,0.0,0.0,0.0,0.0,0.0,0.0,0.0,0.0,0.0,0.0,0.0,0.0,0.0,0.0,0.0,0.0,0.0,0.0,0.0,0.0,0.0,0.0,0.0,0.0,0.0,0.0,0.0,0.0,0.0,0.0,0.0,0.0,0.0,0.0,0.0,0.0,0.0,0.0,0.0,0.0,0.0,0.0,0.0,0.0,0.0,0.0,0.0,0.0,0.0,0.0,0.0,0.0,0.0,0.0,0.0,0.0,0.0,0.0,0.0,0.0,0.0,0.0,0.0,0.0,0.0,0.0,0.0,0.0,0.0,0.0,0.0,0.0,0.0,0.0,0.0,0.0,0.0,0.0,0.0,0.0,0.0,0.0,0.0,0.0,0.0,0.0,0.0,0.0,0.0,0.0,0.0,0.0,0.0,0.0,0.0,0.0,0.0,0.0,0.0,0.0,0.0,0.0,0.0,0.0,0.0,0.0,0.0,0.0,0.0,0.0,0.0,0.0,0.0,0.0,0.0,0.0,0.0,0.0,0.0,0.0,0.0,0.0,0.0,0.0,0.0,0.0,0.0,0.0,0.0,0.0,0.0,0.0,0.0,0.0,0.0,0.0,0.0,0.0,0.0,0.0,0.0,0.0,0.0,0.0,0.0,0.0,0.0,0.0,0.0,0.0,0.0,0.0,0.0,0.0,0.0,0.0,0.0,0.0,0.0,0.0,0.0,0.0,0.0,0.0,0.0,0.0,0.0,0.0,0.0,0.0,0.0,0.0,0.0,0.0,0.0,0.0,0.0,0.0,0.0,0.0,0.0,0.0,0.0,0.0,0.0,0.0,0.0,0.0,0.0,0.0,0.0,0.0,0.0,0.0,0.0,0.0,0.0,0.0,0.0,0.0,0.0,0.0,0.0,0.0,0.0,0.0,0.0,0.0,0.0,0.0,0.0,0.0,0.0,0.0,0.0,0.0,0.0,0.0,0.0,0.0,0.0,0.0,0.0,0.0,0.0,0.0,0.0,0.0,0.0,0.0,0.0,0.0,0.0,0.0,0.0,0.0,0.0,0.0,0.0,0.0,0.0,0.0,0.0,0.0,0.0,0.0,0.0,0.0,0.0,0.0,0.0,0.0,0.0,0.0,0.0,0.0,-1.5504,0.0,0.0,0.0,0.0,0.0,0.0,0.0,0.0,0.0,0.0,0.0,0.0,0.0,0.0,0.0,0.0,0.0,0.0,0.0,0.0,0.0,0.0,0.0,0.0,0.0,0.0,0.0,0.0,0.0,0.0,0.0,0.0,0.0,0.0,0.0,0.0,0.0,0.0,0.2785,0.0577,-0.1689,-0.3966,-0.4536,-0.3048,0.0127,0.0,0.0,0.0,0.0,0.0,0.0,0.0,0.0,0.0,0.0,0.0,0.0,0.0,0.0,0.0,0.0,0.0,0.0,0.0,0.0,0.0,0.0,0.0,0.0,0.0,0.0,0.0,0.0,0.0,0.0,0.0,0.0,0.0,0.0,0.0,0.0,0.0,0.0,0.0,0.0,0.0,0.0,0.0,0.0,0.0,0.0,0.0,0.0,0.0,0.0,0.0,0.0,0.0,0.0,0.0,0.0,0.0,0.0,0.0,0.0,0.0,0.0,0.0,0.0,0.0,0.0,0.0,0.0,0.0,0.0,0.0,-1.6655,0.0,0.0,0.0,0.0,0.0,0.0,0.0,0.0,0.0,0.0,0.0,0.0,0.0,0.0,0.0,0.0,0.0,0.0,0.0,0.0,0.0,0.0,0.0,0.0,1.2068,1.1925,1.215,1.2176,0.0,0.0,0.0,0.0,0.0,0.0,0.0,0.5065,0.2832,0.0259,-0.1809,-0.4765,-0.8524,-1.0358,-0.8095,-0.2476,-0.2905,0.0,0.0,0.0,0.0,0.0,0.0,0.0,0.0,0.0,0.0,0.0,0.0,0.0,0.0,0.0,0.0,0.0,0.0,0.0,0.0,0.0,0.0,0.0,0.0,0.0,0.0,0.0,0.0,0.0,0.0,0.0,0.0,0.0,0.0,0.0,0.0,0.0,0.0,0.0,0.0,0.0,0.0,0.0,0.0,0.0,0.0,0.0,0.0,0.0,0.0,0.0,0.0,0.0,0.0,0.0,0.0,0.0,0.0,0.0,0.0,0.0,0.0,0.0,-2.3795,-2.4253,-2.3688,-2.4381,-2.4431,-2.387,-2.243,-2.0758,-1.8953,-1.8323,0.0,0.0,0.0,0.0,0.0,0.0,0.0,0.0,0.0,0.0,0.0,0.0,0.0,0.0,0.0,0.0,0.0,0.0,0.0,0.0,0.0,1.2363,1.2084,1.2689,1.2013,1.137,1.0996,0.0,0.0,0.0,0.0,0.0,0.4774,0.2983,0.0917,-0.1469,-0.5138,-0.8118,-1.0436,-1.049,-1.016,-0.9438,-0.8581,-0.693,-0.4565,0.0,0.0,0.0,0.0,0.0,0.0,0.0,0.0,0.0,0.0,0.0,0.0,0.0,0.0,0.0,0.0,0.0,0.0,0.0,0.0,0.0,0.0,0.0,0.0,0.0,0.0,0.0,0.0,0.0,0.0,0.0,0.0,0.0,0.0,0.0,0.0,0.0,0.0,0.0,0.0,0.0,-1.5236,-1.4259,0.0,0.0,0.0,0.0,0.0,0.0,0.0,0.0,0.0,0.0,0.0,0.0,0.0,-2.1043,-2.1432,-2.3335,-2.4037,-2.3472,-2.6562,-2.769,-2.7111,-2.8153,-2.8607,-2.8494,-2.7524,0.0,-2.132,-1.9758,0.0,0.0,0.0,0.0,0.0,0.0,0.0,0.0,0.0,0.0,0.0,0.0,0.0,0.0,0.0,0.0,0.0,0.0,0.0,0.0,0.0,1.1468,1.0956,1.0226,0.9956,0.9464,0.8609,0.8254,0.0,0.0,0.0,0.4025,0.2416,-0.0308,-0.3345,-0.6637,-0.9082,-1.1235,-1.3071,-1.3856,-1.4347,-1.459,-1.3951,-1.1728,-0.8198,-0.5516,0.0,0.0,0.0,0.0,0.0,0.0,0.0,0.0,0.0,0.0,0.0,0.0,0.0,0.0,0.0,0.0,0.0,0.0,0.0,0.0,0.0,0.0,0.0,0.0,0.0,0.0,0.0,0.0,0.0,0.0,0.0,0.0,0.0,0.0,0.0,0.0,0.0,0.0,0.0,-1.2483,-1.4229,-1.2944,-1.3712,-1.351,0.0,0.0,0.0,0.0,0.0,0.0,0.0,0.0,0.0,-1.824,-2.06,-2.244,-2.3602,-2.5617,-2.6779,-2.7138,-2.862,-2.9158,-2.8915,-2.9413,-2.9599,-2.9625,-2.9239,-2.7835,-2.5672,-2.3273,-2.1753,-2.0812,0.0,0.0,0.0,0.0,-1.932,-1.9767,0.0,0.0,0.0,0.0,0.0,0.0,0.0,0.0,0.0,0.0,0.0,0.0,1.004,0.993,0.9316,0.7764,0.7655,0.7395,0.673,0.5936,0.5248,0.4696,0.3004,0.1478,0.0179,-0.3149,-0.6605,-1.0121,-1.1378,-1.3021,-1.5089,-1.6341,-1.7265,-1.7916,-1.7675,-1.5351,-1.1513,-0.8964,-0.7007,-0.5371,0.0,0.0,0.0,0.0,0.0,0.0,0.0,0.0,0.0,0.0,0.0,0.0,0.0,0.0,0.0,0.0,0.0,0.0,0.0,0.0,0.0,0.0,0.0,0.0,0.0,0.0,0.0,0.0,0.0,0.0,0.0,0.0,0.0,0.0,0.0,0.0,0.0,-1.2695,-1.44,-1.2665,-1.4501,-1.5008,0.0,0.0,0.0,0.0,0.0,0.0,-1.6874,-1.8105,-1.9251,-2.0331,-2.2404,-2.4123,-2.5373,-2.6901,-2.8108,-2.8973,-2.8973,-2.9091,-2.9365,-2.9365,-2.9365,-2.9365,-2.9365,-2.8963,-2.8131,-2.6087,-2.47,-2.3682,-2.2509,-2.2264,-2.2451,-2.1683,-2.1558,-2.1799,0.0,0.0,0.0,0.0,0.0,0.0,0.0,0.0,0.0,0.0,0.0,1.0157,0.8669,0.795,0.7301,0.6643,0.5795,0.5577,0.6287,0.5113,0.4026,0.3249,0.16,-0.0097,-0.1806,-0.4704,-0.7225,-0.9374,-1.0587,-1.2689,-1.5631,-1.601,-1.7135,-1.8838,-1.8557,-1.7002,-1.4497,-1.273,-1.02,-0.7215,-0.5442,0.0,0.0,0.0,0.0,0.0,0.0,0.0,0.0,0.0,0.0,0.0,0.0,0.0,0.0,0.0,0.0,0.0,0.0,0.0,0.0,0.0,0.0,0.0,0.0,0.0,0.0,0.0,0.0,0.0,0.0,0.0,0.0,0.0,0.0,0.0,0.0,0.0,0.0,-1.5632,-1.8402,0.0,0.0,0.0,0.0,-1.7164,-1.852,-1.9352,-1.9522,-2.2375,-2.4071,-2.4115,-2.5905,-2.6892,-2.6956,-2.6745,-2.6607,-2.6689,-2.6689,-2.7197,-2.8164,-2.8164,-2.8164,-2.8164,-2.8164,-2.7602,-2.6649,-2.693,-2.6752,-2.6095,-2.4962,-2.4228,-2.3662,-2.2616,-2.1674,-2.0713,0.0,0.0,0.0,0.0,0.0,0.0,0.0,0.0,1.0999,1.0451,0.9421,0.8298,0.722,0.62,0.5083,0.3848,0.3353,0.3015,0.2821,0.2028,0.1277,0.067,-0.0673,-0.2876,-0.6053,-0.677,-0.8645,-1.1728,-1.1498,-1.2577,-1.4871,-1.4866,-1.5308,-1.6191,-1.7098,-1.6916,-1.5808,-1.4461,-1.2759,-1.0699,-0.807,-0.6237,0.0,0.0,0.0,0.0,0.0,0.0,0.0,0.0,0.0,0.0,0.0,0.0,0.0,0.0,0.0,0.0,0.0,0.0,0.0,0.0,0.0,0.0,0.0,0.0,0.0,0.0,0.0,0.0,0.0,0.0,0.0,0.0,0.0,0.0,0.0,0.0,0.0,-1.701,-2.0094,0.0,-1.8554,-1.8831,-1.9361,-1.9712,-2.095,-2.1809,-2.2202,-2.3617,-2.426,-2.4018,-2.4641,-2.518,-2.5636,-2.5464,-2.5755,-2.6483,-2.6755,-2.6941,-2.7098,-2.7337,-2.7291,-2.7075,-2.7075,-2.683,-2.6498,-2.6667,-2.6406,-2.5802,-2.5064,-2.466,-2.4411,-2.3741,-2.3304,-2.2891,0.0,0.0,0.0,0.0,0.0,0.0,0.0,0.0,1.0226,0.9136,0.7679,0.6247,0.4978,0.4094,0.3008,0.1569,0.1391,0.1249,0.1035,0.0379,-0.0112,-0.0332,-0.2145,-0.4723,-0.8068,-0.8008,-0.9287,-1.1907,-1.136,-1.2013,-1.374,-1.3599,-1.3965,-1.471,-1.5774,-1.6101,-1.5926,-1.5577,-1.4824,-1.3494,-1.0844,-0.8643,-0.6835,0.0,0.0,0.0,0.0,0.0,0.0,0.0,0.0,0.0,0.0,0.0,0.0,0.0,0.0,0.0,0.0,0.0,0.0,0.0,0.0,0.0,0.0,0.0,0.0,0.0,0.0,0.0,0.0,0.0,0.0,0.0,0.0,0.0,0.0,-1.6297,-1.8446,-1.7594,-2.0304,-2.1405,-1.9316,-2.0588,-2.1639,-2.1816,-2.3202,-2.4122,-2.4307,-2.467,-2.4727,-2.4453,-2.4297,-2.447,-2.4907,-2.46,-2.4907,-2.5787,-2.5937,-2.6066,-2.6143,-2.6408,-2.6298,-2.5922,-2.5922,-2.5735,-2.5358,-2.5358,-2.5123,-2.4843,-2.5609,-2.5583,-2.5043,-2.5013,-2.4437,-2.3591,0.0,0.0,0.0,0.0,0.0,0.0,0.0,1.0721,0.9237,0.7042,0.566,0.4115,0.1988,0.1663,0.1143,0.0115,0.0,0.0376,0.12,0.0486,0.0078,0.0261,-0.2882,-0.5553,-0.7624,-0.837,-0.9035,-0.9639,-1.0066,-1.1014,-1.2328,-1.2328,-1.3171,-1.4679,-1.4689,-1.474,-1.4791,-1.6142,-1.6269,-1.5403,-1.3614,-1.1338,-0.8843,0.0,0.0,0.0,0.0,0.0,0.0,0.0,0.0,0.0,0.0,0.0,0.0,0.0,0.0,0.0,0.0,0.0,0.0,0.0,0.0,0.0,0.0,0.0,0.0,0.0,0.0,0.0,0.0,0.0,0.0,0.0,0.0,0.0,-1.4812,-1.748,-1.8889,-1.7648,-1.9388,-2.0215,-1.8956,-2.1258,-2.2979,-2.3452,-2.522,-2.6062,-2.5605,-2.5616,-2.5596,-2.5577,-2.5178,-2.4992,-2.4972,-2.4153,-2.3958,-2.4394,-2.4004,-2.4371,-2.5326,-2.5326,-2.5119,-2.4745,-2.4745,-2.4125,-2.3101,-2.3101,-2.3101,-2.343,-2.6685,-2.6955,-2.5596,-2.6208,-2.4837,-2.2452,0.0,0.0,0.0,0.0,0.0,0.0,0.0,0.9523,0.7657,0.5864,0.3919,0.2299,0.1279,0.0751,0.0347,0.0,0.0,0.0108,0.035,0.0133,-0.0844,-0.2711,-0.5643,-0.7753,-0.8763,-0.9245,-0.9754,-1.0249,-1.027,-1.0565,-1.0998,-1.089,-1.1092,-1.158,-1.2753,-1.3305,-1.3367,-1.4848,-1.5283,-1.503,-1.5029,-1.4159,-1.2526,0.0,0.0,0.0,0.0,0.0,0.0,0.0,0.0,0.0,0.0,0.0,0.0,0.0,0.0,0.0,0.0,0.0,0.0,0.0,0.0,0.0,0.0,0.0,0.0,0.0,0.0,0.0,0.0,0.0,0.0,0.0,-1.3775,-1.6483,-1.6583,-1.8872,-2.0752,-2.134,-2.2519,-2.3043,-2.2327,-2.2772,-2.3003,-2.2783,-2.3286,-2.3513,-2.341,-2.3186,-2.2961,-2.2685,-2.2125,-2.2132,-2.2676,-2.2548,-2.3013,-2.3965,-2.416,-2.4264,-2.4217,-2.4217,-2.3978,-2.3541,-2.3541,-2.3387,-2.3101,-2.3101,-2.3101,-2.3188,-2.4125,-2.4171,-2.3732,-2.333,-2.2348,-2.1053,0.0,0.0,0.0,0.0,0.0,0.0,0.0,0.8409,0.674,0.5206,0.3669,0.2361,0.1463,0.1102,0.0696,0.0059,0.0393,0.0474,0.0049,-0.066,-0.2024,-0.4178,-0.6681,-0.8436,-0.9422,-0.9869,-1.0229,-1.0493,-1.0473,-1.0473,-1.0487,-1.0405,-1.0371,-1.0429,-1.1374,-1.1749,-1.1876,-1.3446,-1.3973,-1.3901,-1.5023,-1.4482,-1.284,-1.0789,-0.9173,-0.7929,-0.7055,-0.6501,-0.6062,-0.4953,0.0,0.0,0.0,0.0,0.0,0.0,0.0,0.0,0.0,0.0,0.0,0.0,0.0,0.0,0.0,0.0,0.0,0.0,0.0,0.0,0.0,0.0,0.0,0.0,-1.5273,-1.7796,-1.8215,-1.9874,-2.1511,-2.2636,-2.2686,-2.2445,-2.2055,-2.241,-2.2537,-2.2135,-2.2521,-2.2753,-2.2589,-2.2314,-2.1936,-2.1608,-2.1246,-2.1275,-2.1748,-2.1622,-2.2002,-2.2939,-2.2829,-2.2712,-2.2427,-2.2309,-2.2287,-2.2359,-2.2359,-2.2624,-2.3101,-2.3101,-2.3101,0.0,0.0,0.0,0.0,0.0,-2.1445,-2.0781,0.0,0.0,0.0,0.0,0.0,0.0,0.0,0.742,0.6166,0.4665,0.4129,0.3396,0.2132,0.2101,0.1632,0.0343,0.0969,0.1003,0.0046,-0.1545,-0.3032,-0.4405,-0.6438,-0.8211,-0.9577,-1.0176,-1.0521,-1.0521,-1.0656,-1.0649,-1.0521,-1.0521,-1.0521,-1.0521,-1.0521,-1.0521,-1.0644,-1.2056,-1.2441,-1.2316,-1.3717,-1.3234,-1.15,-1.057,-0.9304,-0.7972,-0.7508,-0.684,-0.6275,-0.6602,0.0,0.0,0.0,0.0,0.0,0.0,0.0,0.0,0.0,0.0,0.0,0.0,0.0,0.0,0.0,0.0,0.0,0.0,0.0,0.0,0.0,0.0,0.0,0.0,-1.6353,-1.8357,-1.9706,-2.0665,-2.1453,-2.223,-2.1115,-2.0174,-1.992,-2.1026,-2.167,-2.1432,-2.2227,-2.2612,-2.2344,0.0,0.0,0.0,0.0,-2.1271,-2.1391,-2.1014,-2.1064,-2.1627,-2.0933,-2.0603,-2.0601,-2.0237,-2.0474,-2.1105,-2.1105,-2.1702,-2.2687,-2.2687,-2.2687,-2.2818,-2.4125,-2.3849,-2.2674,-2.1981,-2.1399,-2.0894,0.0,0.0,0.0,0.0,0.0,0.0,0.0,0.6389,0.4948,0.3305,0.3106,0.2824,0.2096,0.2033,0.1906,0.1631,0.0793,0.0198,0.0,-0.1338,-0.2324,-0.2894,-0.5844,-0.7681,-0.8156,-0.9842,-1.0677,-1.0677,-1.0704,-1.0704,-1.0677,-1.0677,-1.0677,-1.0677,-1.0677,-1.0677,-1.0677,-1.1,-1.1025,-1.0913,-1.1226,-1.2286,-1.347,-1.2122,-1.1162,-1.045,-0.9211,-0.877,-0.8532,-0.7256,-0.7316,-0.752,-0.5435,-0.4267,0.0,0.0,0.0,0.0,0.0,0.0,0.0,0.0,0.0,0.0,0.0,0.0,0.0,0.0,0.0,0.0,0.0,0.0,0.0,-1.4442,-1.7484,-1.9907,-2.0428,-2.0902,-2.108,-2.1033,-2.0773,-2.0575,-2.0508,-2.0367,-2.0174,-2.0178,-2.0123,-2.0087,-2.0031,-1.9682,-1.9375,-1.9124,-1.8674,-1.8735,-1.9492,-1.9517,-2.0053,-2.1114,0.0,0.0,-2.0601,-2.0143,-1.9919,-1.9861,-1.9861,-1.9997,-2.0223,-2.0223,-2.0223,-2.0404,-2.2561,-2.2332,-2.0728,-2.0605,-2.0049,-1.9265,0.0,0.0,0.0,0.0,0.0,0.0,0.0,0.594,0.4832,0.3439,0.3438,0.3157,0.2118,0.205,0.1786,0.1063,0.0377,0.0232,0.075,-0.1108,-0.2343,-0.2605,-0.4969,-0.6337,-0.6564,-0.7526,-0.8499,-0.9371,-0.9371,-0.9842,-1.0717,-1.0717,-1.0717,-1.0717,-1.0717,-1.0717,-1.0717,-1.0717,-1.0629,-1.0493,-1.0493,-1.1206,-1.217,-1.1455,-1.0929,-1.0547,-0.9986,-0.9618,-0.939,-0.8628,-0.8598,-0.8606,-0.6731,-0.5804,-0.5211,0.0,0.0,0.0,0.0,0.0,0.0,0.0,0.0,0.0,0.0,0.0,0.0,0.0,0.0,-0.7601,-0.8489,0.0,-1.3091,-1.4375,-1.7268,-1.9425,-1.9649,-2.0656,-2.1216,-2.0935,-2.0895,-2.0842,-2.0695,-2.0281,-1.996,-1.9813,-1.9533,-1.9305,-1.9158,-1.8998,-1.8718,-1.8277,-1.7969,-1.7979,-1.8288,-1.8377,-1.8671,-1.9322,-1.9158,-1.8955,-1.8626,-1.8249,-1.8267,-1.8596,-1.8596,-1.8948,-1.9497,-1.9497,-1.9497,-1.9633,-2.0809,-2.0633,-1.9609,-1.9376,-1.896,-1.8359,0.0,0.0,0.0,0.0,0.0,0.0,0.0,0.5639,0.503,0.3784,0.4035,0.3859,0.2579,0.2382,0.174,0.0121,0.0,0.036,0.1247,-0.0798,-0.2044,-0.216,-0.3774,-0.4732,-0.4867,-0.5208,-0.6096,-0.7488,-0.7507,-0.8252,-0.9655,-0.9698,-0.9685,-0.9685,-0.9655,-0.9649,-0.9649,-0.9649,-0.978,-1.0006,-1.0006,-1.0123,-1.0324,-1.0324,-1.0209,-0.9997,-1.0127,-0.9842,-0.9469,-0.97,-0.9544,-0.9097,-0.8146,-0.7558,-0.6828,-0.5083,-0.4937,0.0,0.0,0.0,0.0,0.0,0.0,0.0,0.0,-0.6777,-0.6955,-0.7543,-0.8386,-0.9213,-1.0057,-1.161,-1.3163,-1.4256,-1.6466,-1.814,-1.8213,-1.9862,-2.0928,-2.0706,-2.0882,-2.1015,-2.0788,-2.0441,-2.0134,-1.9907,-1.9559,-1.9265,-1.9025,-1.9011,-1.8771,-1.8182,-1.8102,-1.7983,-1.7675,-1.7609,-1.7582,-1.7582,-1.7393,-1.7125,-1.678,-1.6486,-1.6773,-1.7413,-1.734,-1.7855,-1.8764,-1.8764,-1.8764,-1.8764,-1.8764,-1.8603,-1.8342,-1.8164,-1.7894,-1.7537,0.0,0.0,0.0,0.0,0.0,0.0,0.0,0.0,0.4773,0.3198,0.4075,0.4602,0.4011,0.3396,0.2209,0.0158,0.0,0.005,0.015,-0.0115,-0.0318,-0.0333,-0.199,-0.2995,-0.2995,-0.458,-0.5491,-0.5695,-0.5691,-0.5761,-0.5972,-0.5971,-0.6009,-0.6005,-0.5998,-0.5964,-0.5964,-0.5964,-0.6894,-0.8281,-0.8281,-0.9139,-1.0466,-1.0466,-1.0297,-0.9957,-0.9774,-0.9306,-0.8893,-0.9449,-0.9252,-0.8893,-0.9386,-0.8638,-0.7541,-0.7389,-0.5327,-0.3253,-0.405,-0.4662,-0.5411,-0.6659,-0.7122,-0.7501,0.0,-0.8438,-0.8499,-0.8662,-0.9043,-0.9659,-1.062,-1.1947,-1.3261,-1.439,-1.5749,-1.6644,-1.6665,-1.8039,-1.9019,-1.8995,-2.0221,-2.1096,-2.1069,-2.0561,-2.0214,-2.0187,-1.9679,-1.9359,-1.9377,-1.9319,-1.9172,-1.8838,-1.8571,-1.8303,-1.7942,-1.7716,-1.7582,-1.7582,-1.7555,-1.7434,-1.7139,-1.6794,-1.6599,-1.6448,-1.613,-1.6103,-1.6197,-1.6197,-1.6197,-1.6197,-1.6197,-1.6066,-1.5902,-1.6669,-1.6675,-1.6129,0.0,0.0,0.0,0.0,0.0,0.0,0.0,0.0,0.0,0.3613,0.3683,0.364,0.3095,0.2872,0.2384,0.1541,0.1043,0.0761,0.0754,0.0292,0.0,0.0,-0.0699,-0.1134,-0.1134,-0.1865,-0.2806,-0.3859,-0.3852,-0.4335,-0.5434,-0.5431,-0.5398,-0.5398,-0.5368,-0.5399,-0.543,-0.543,-0.5807,-0.6498,-0.6498,-0.6907,-0.7527,-0.7399,-0.7281,-0.7251,-0.8207,-0.8613,0.0,-0.8382,-0.8414,-0.871,-0.9462,-0.8979,-0.7987,-0.7242,-0.6381,-0.58,-0.6512,-0.5812,-0.5404,-0.7427,-0.8235,-0.8662,-0.913,-0.93,-0.9503,-0.9943,-1.0209,-1.0424,-1.0948,-1.1547,-1.2073,-1.2633,-1.4104,-1.5083,-1.4905,-1.6365,-1.7367,-1.7012,-1.7573,-1.8792,-2.0893,-1.9837,-1.9345,-2.0119,-1.9853,-1.9546,-1.943,-1.943,-1.9225,-1.8931,-1.8811,-1.8597,-1.8303,-1.8183,-1.7631,-1.663,-1.663,-1.5914,-1.4659,-1.5185,-1.5642,-1.6005,-1.5838,-1.5784,-1.5784,-1.5784,-1.5784,-1.5784,-1.5784,-1.5752,-1.5651,-1.5892,-1.5653,-1.5088,0.0,0.0,0.0,0.0,0.0,0.0,0.0,0.0,0.0,0.0,0.4003,0.342,0.2615,0.2657,0.268,0.2513,0.1984,0.1566,0.1341,0.0751,0.0321,0.0,0.0,0.0,0.0,0.0,-0.0665,-0.1985,-0.1975,-0.2615,-0.3889,-0.3909,-0.3876,-0.3932,-0.3918,-0.3889,-0.3925,-0.391,-0.4221,-0.4653,-0.4635,-0.4895,-0.5304,-0.5168,-0.509,-0.5211,-0.6466,-0.7119,-0.7295,-0.6809,-0.6878,-0.7353,-0.8096,-0.7942,-0.7331,-0.6165,-0.6119,-0.6583,-0.7064,-0.6271,-0.5916,-0.8233,-0.9245,-0.9741,-0.993,-1.012,-1.0412,-1.0955,-1.1104,-1.1151,-1.1212,-1.126,-1.1314,-1.1382,-1.2537,-1.3402,-1.3157,-1.466,-1.5624,-1.51,-1.4983,-1.6192,-1.9248,-1.8128,-1.7681,-1.8741,-1.8539,-1.8264,-1.8064,-1.8052,-1.7965,-1.7708,-1.7621,-1.7484,-1.7341,-1.721,-1.6525,-1.5251,-1.5251,-1.4429,-1.2959,-1.3659,-1.4301,-1.481,-1.4748,-1.4711,-1.4711,-1.4711,-1.4711,-1.4711,-1.4711,-1.4711,-1.4686,-1.4487,-1.4584,-1.475,0.0,0.0,0.0,0.0,0.0,0.0,0.0,0.0,0.0,0.0,0.0,0.0,0.0,0.3367,0.3126,0.2557,0.2613,0.228,0.1362,0.1459,0.1068,0.0068,0.0,0.0,0.0,0.0,0.0,-0.0076,-0.0077,-0.0076,-0.0149,-0.0147,-0.0145,-0.0143,-0.0141,-0.014,-0.014,-0.0138,-0.1167,-0.2805,-0.2766,-0.3728,-0.5084,-0.5128,-0.5045,-0.4884,-0.4798,-0.4444,-0.4055,-0.4597,-0.4384,-0.4085,-0.482,-0.5124,-0.5067,-0.4315,-0.3692,-0.3388,-0.4137,-0.5346,-0.6935,-0.9025,-1.0019,-1.0534,-1.0772,-1.1138,-1.1348,-1.1375,-1.1497,-1.1552,-1.1409,-1.1504,-1.1558,-1.1416,-1.1589,-1.163,-1.1473,-1.2897,-1.3739,-1.3424,-1.3276,-1.3861,-1.5483,-1.533,-1.5217,-1.5422,-1.5033,-1.4728,-1.4718,-1.4718,-1.4718,-1.4708,-1.4483,-1.4361,-1.4361,-1.4023,-1.3754,-1.3553,-1.3553,-1.3487,-1.3298,-1.2851,-1.2527,-1.2293,-1.209,-1.1999,-1.1999,-1.1999,-1.1999,-1.1999,-1.1999,-1.1999,-1.2047,-1.1989,-1.3423,-1.5337,0.0,0.0,0.0,0.0,0.0,0.0,0.0,0.0,0.0,0.0,0.0,0.0,0.0,0.0,0.0,0.0,0.3644,0.3338,0.3122,0.2017,0.1321,0.1086,0.0346,0.0,0.0,0.0,0.0,0.0,0.0,0.0,0.0,0.0,0.0,0.0,0.0,0.0,0.0,0.0,-0.0343,-0.089,-0.0928,-0.1231,-0.1713,-0.1703,-0.1692,-0.1622,0.0,-0.253,-0.3705,-0.3096,-0.3172,-0.3568,-0.4244,-0.4223,-0.3899,-0.3409,-0.3531,-0.409,-0.536,-0.6584,-0.7921,-0.9757,-1.0643,-1.1118,-1.1219,-1.147,-1.1626,-1.143,-1.1036,-1.0882,-1.1431,-1.099,-1.075,-1.1408,-1.1514,-1.1382,-1.1131,-1.1674,-1.1849,-1.1379,-1.1268,-1.1419,-1.1806,-1.2888,-1.407,-1.5184,-1.5044,-1.4821,-1.4751,-1.468,-1.4599,-1.4599,-1.4528,-1.4488,-1.4488,-1.4348,-1.3674,-1.2361,-1.1042,-1.0836,-1.155,-1.1281,-1.1508,-1.2204,-1.1992,-1.1901,-1.1901,-1.1901,-1.1901,-1.1901,-1.1901,-1.1901,-1.1901,-1.1901,-1.2383,-1.3149,0.0,0.0,0.0,0.0,0.0,0.0,0.0,0.0,0.0,0.0,0.0,0.0,0.0,0.0,0.0,0.0,0.0,0.4426,0.4022,0.294,0.2276,0.2161,0.1456,0.1129,0.1078,0.1092,0.1104,0.1115,0.0775,0.092,0.1486,0.1068,0.1213,0.1853,0.1838,0.1472,0.0903,0.096,0.0607,0.0,0.0,0.0,0.0,0.0,0.0,0.0,0.0,-0.1035,-0.2327,-0.1556,-0.1648,-0.2188,-0.2585,-0.2455,-0.216,-0.1914,-0.2257,-0.3213,-0.5536,-0.6699,-0.7878,-1.0313,-1.1226,-1.1545,-1.1545,-1.1613,-1.1606,-1.1362,-1.0717,-1.0322,-1.0782,-1.0477,-1.0413,-1.1177,-1.1549,-1.1657,-1.1351,-1.1328,-1.1205,-1.0531,-1.0392,-1.0297,-1.0148,-1.1217,-1.2373,-1.335,-1.3358,-1.3234,-1.3101,-1.2977,-1.2975,-1.2975,-1.2913,-1.2868,-1.2868,-1.2866,-1.2173,-1.0882,-0.9552,-0.9318,-1.007,-0.9898,-1.018,-1.0857,-1.0671,-1.0555,-1.0534,-1.0534,-1.0534,-1.0534,-1.0534,-1.0534,-1.0534,-1.0534,-1.0828,-1.1395,0.0,0.0,0.0,0.0,0.0,0.0,0.0,0.0,0.0,0.0,0.0,0.0,0.0,0.0,0.0,0.0,0.0,0.0,0.427,0.4239,0.3956,0.3247,0.3112,0.3087,0.3084,0.3072,0.3097,0.3097,0.2112,0.2492,0.409,0.3064,0.3392,0.5018,0.5014,0.4065,0.2508,0.2605,0.1675,0.0061,0.0,0.0,0.0,0.0,0.0,0.0,0.0,0.0,0.0,0.0,0.0,0.0,0.0,0.0,0.0,0.0,-0.0046,-0.0933,-0.4588,-0.5859,-0.7046,-1.069,-1.1735,-1.1763,-1.1663,-1.1449,-1.1194,-1.0993,-1.0364,-0.9747,-0.961,-0.9893,-1.0257,-1.0593,-1.1535,-1.2151,-1.1948,-1.187,-1.1452,-1.0677,-1.053,-1.0446,-1.0176,-1.0226,-1.0229,-1.0011,-1.0195,-1.0222,-1.0017,-0.9997,-0.9984,-0.9984,-0.9897,-0.9822,-0.9822,-0.9673,-0.9449,-0.9221,-0.9015,-0.8885,-0.8878,-0.8771,-0.8621,-0.8472,-0.8323,-0.8174,-0.7988,-0.7988,-0.7988,-0.7988,-0.7988,-0.7988,-0.7988,-0.7988,-0.8825,-1.0043,0.0,0.0,0.0,0.0,0.0,0.0,0.0,0.0,0.0,0.0,0.0,0.0,0.0,0.0,0.0,0.0,0.0,0.0,0.6622,0.5616,0.5033,0.5111,0.3638,0.2872,0.2923,0.2973,0.2943,0.2943,0.2805,0.296,0.3366,0.3058,0.3192,0.3605,0.3619,0.3369,0.29,0.2169,0.163,0.1102,0.0315,0.0,0.0,0.0,0.0,0.0,0.0,0.0,0.0,0.0,0.0,0.0,0.0,0.0,0.0,0.0,-0.0967,-0.2568,-0.5049,-0.6832,-0.856,-1.098,-1.1809,-1.1616,-0.9905,-0.9504,-0.9267,-0.8333,-0.7525,-0.7427,-0.8832,-0.7934,-0.766,-0.9828,-0.9811,-0.9876,-1.1003,-1.14,-1.0791,-0.8917,-0.9873,-1.0005,-0.8426,-0.9586,-1.0378,-1.0229,-1.0256,-1.031,-1.0378,-1.0168,-0.9984,-0.9984,-0.9897,-0.9822,-0.9822,-0.9564,-0.9401,-0.932,-0.9062,-0.8885,-0.8871,-0.8662,-0.852,-0.8465,-0.8208,-0.8029,-0.7988,-0.7988,-0.7988,-0.7988,-0.7988,-0.7988,-0.7988,-0.7988,-0.8237,-0.8577,0.0,0.0,0.0,0.0,0.0,0.0,0.0,0.0,0.0,0.0,0.0,0.0,0.0,0.0,0.0,0.0,0.0,0.0,0.0,0.6722,0.6466,0.6925,0.5448,0.4661,0.4674,0.44,0.42,0.4082,0.3814,0.4078,0.4734,0.4233,0.44,0.5168,0.5166,0.4731,0.3898,0.3037,0.2215,0.0,0.0,0.0,0.0,0.0,0.0,0.0,0.0,0.0,0.0,0.0,0.0,0.0,0.0,0.0,0.0,0.0,-0.072,-0.1972,-0.4011,-0.5373,-0.6713,-0.8631,-0.9282,-0.9207,-0.8421,-0.779,-0.7358,-0.7082,-0.6056,-0.5679,-0.7158,-0.6864,-0.7082,-0.9327,-0.9898,-1.0024,-1.0104,-1.0298,-0.9567,-0.7221,-0.7796,-0.7885,-0.6756,-0.7639,-0.8574,-0.9228,-1.0013,-1.048,-1.0493,-1.0276,-1.0148,-1.0148,-0.9937,-0.9761,-0.9632,-0.9462,-0.9313,-0.9184,-0.8966,-0.8885,-0.8878,-0.8764,-0.8648,-0.8567,0.0,-0.8201,-0.8133,-0.8015,-0.7988,-0.7988,-0.7988,-0.7988,-0.7988,-0.7988,-0.7988,-0.7988,0.0,0.0,0.0,0.0,0.0,0.0,0.0,0.0,0.0,0.0,0.0,0.0,0.0,0.0,0.0,0.0,0.0,0.0,0.0,0.0,0.7856,0.8383,0.7563,0.7009,0.6798,0.63,0.5851,0.5528,0.4959,0.5356,0.6714,0.5686,0.6029,0.7543,0.7543,0.6649,0.5143,0.4344,0.3125,0.1607,0.0722,0.0365,0.0378,0.0,0.0424,0.0378,0.0265,0.0121,0.0044,0.0295,0.0203,0.0,0.0,0.0,0.0,0.0,0.0,-0.0404,-0.2412,-0.3014,-0.3571,-0.5522,-0.5985,-0.6166,-0.6854,-0.6059,-0.5412,-0.6085,-0.4926,-0.4138,-0.5078,-0.5967,-0.7007,-0.8417,-0.9984,-1.0434,-0.8856,-0.8671,-0.7832,-0.5527,-0.5371,-0.5355,-0.5081,-0.5278,-0.603,-0.7564,-0.9105,-1.0128,-1.0527,-1.0385,-1.029,-1.0249,-0.9971,-0.9573,-0.9143,-0.9104,-0.8845,-0.832,-0.8337,-0.8325,-0.8325,-0.83,-0.8224,-0.8104,-0.7958,0.0,-0.7948,-0.7617,-0.7553,-0.7739,-0.7534,-0.7584,-0.7739,-0.7739,-0.7839,-0.7988,0.0,0.0,0.0,0.0,0.0,0.0,0.0,0.0,0.0,0.0,1.031,0.9907,0.0,0.0,0.0,0.0,0.0,0.0,0.0,0.0,0.0,0.8543,0.7623,0.6848,0.634,0.6213,0.5834,0.5177,0.5338,0.5568,0.5827,0.5719,0.586,0.6152,0.6152,0.5955,0.5613,0.4576,0.3993,0.3604,0.2756,0.2416,0.2419,0.2521,0.0,0.0,0.1625,0.0765,0.0222,0.1719,0.1214,0.0,0.0,0.0,0.0,0.0,0.0,-0.0446,-0.2536,-0.3052,-0.3534,-0.5538,-0.5988,-0.5624,-0.4039,-0.3519,-0.3181,-0.2651,-0.2258,-0.2373,-0.3332,-0.3659,-0.407,-0.4963,-0.5477,-0.5876,-0.6171,-0.6318,-0.5641,-0.3612,-0.4667,-0.4941,-0.3345,-0.4493,-0.5496,-0.583,-0.6164,-0.756,-1.0485,-1.0534,-1.0344,-1.0038,-0.9917,-0.9121,-0.779,-0.7595,-0.6778,-0.5404,-0.5318,-0.525,-0.525,-0.5119,-0.5021,-0.4947,-0.4862,0.0,-0.6303,-0.5141,-0.5344,-0.6232,-0.5122,-0.5372,-0.6331,-0.6331,-0.7036,-0.7988,0.0,0.0,0.0,0.0,0.0,0.0,0.0,1.195,1.174,1.1959,1.1506,1.087,1.0016,0.9484,0.9217,0.0,0.0,0.0,0.0,0.0,0.0,0.0,0.7917,0.7022,0.6685,0.5972,0.5433,0.4988,0.0,0.5501,0.5508,0.5576,0.561,0.561,0.561,0.561,0.5534,0.4527,0.4111,0.4012,0.3216,0.2904,0.2918,0.0,0.0,0.0,0.1964,0.1269,0.0896,0.1173,0.132,0.1425,0.1419,0.1491,0.139,0.0299,0.0,-0.023,-0.118,-0.1517,-0.1679,-0.2636,-0.2868,-0.2788,-0.2339,-0.1782,-0.1439,-0.1552,-0.1139,-0.1074,-0.2129,-0.2571,-0.3109,-0.4058,-0.4658,-0.477,-0.4145,-0.4189,-0.3551,-0.1636,-0.2186,-0.2301,-0.1387,-0.2108,-0.2954,-0.389,-0.4024,-0.5162,-0.7769,-0.7807,-0.7615,-0.7331,-0.7271,-0.6846,-0.6004,-0.5915,-0.5412,-0.4572,-0.4559,-0.4508,-0.447,-0.4377,-0.4361,-0.4357,-0.4172,0.0,-0.5022,-0.4302,-0.4391,-0.4872,-0.4268,-0.4418,-0.4972,-0.4972,-0.5372,-0.6022,0.0,0.0,0.0,0.0,0.0,0.0,0.0,1.2805,1.2639,1.2999,1.2678,1.1941,1.0622,0.9884,0.9471,0.0,0.0,0.0,0.0,0.0,0.0,0.0,0.0,0.0,0.6765,0.0,0.0,0.4887,0.5248,0.0,0.0,0.0,0.0,0.0,0.5392,0.5392,0.5359,0.4622,0.4334,0.0,0.0,0.3531,0.3569,0.0,0.0,0.0,0.0,0.2133,0.1801,0.1115,0.1888,0.3107,0.2795,0.285,0.2632,0.0592,0.0,0.0,0.0,0.0,0.0,0.0,0.0,-0.0211,-0.1057,-0.0595,-0.0249,-0.1066,-0.0589,-0.0275,-0.1097,-0.1827,-0.2512,-0.3206,-0.4045,-0.4018,-0.2374,-0.2193,-0.1686,-0.021,0.0,0.0,0.0,0.0,-0.0606,-0.2016,-0.2148,-0.3088,-0.5295,-0.5233,-0.5036,-0.4967,-0.4885,-0.4658,-0.4225,-0.4211,-0.3973,-0.3527,-0.3561,-0.3527,-0.3541,-0.3527,-0.3522,-0.3519,-0.3361,0.0,0.0,-0.3291,-0.3332,-0.3566,-0.3265,-0.3316,-0.3566,-0.3566,-0.3764,-0.4168,0.0,0.0,0.0,0.0,0.0,0.0,0.0,1.3937,1.3885,1.3801,1.3852,1.3333,1.1886,1.0988,1.0358,0.0,0.0,0.0,0.0,0.0,0.0,0.0,0.0,0.0,0.0,0.0,0.0,0.4887,0.5248,0.0,0.0,0.0,0.0,0.0,0.0,0.5392,0.5392,0.5292,0.0,0.0,0.0,0.0,0.0,0.0,0.0,0.0,0.0,0.3769,0.306,0.3623,0.412,0.4307,0.306,0.2727,0.2349,0.0554,0.0,0.0,0.0,0.0,0.0,0.0,0.0,0.0,-0.0118,-0.0055,-0.0051,-0.0124,-0.0079,-0.0039,-0.0118,-0.0987,-0.1398,-0.0546,-0.128,-0.1544,-0.0423,-0.0254,-0.0198,0.0,0.0,0.0,0.0,0.0,-0.0067,-0.0269,-0.0269,-0.1747,-0.5228,-0.5218,-0.5069,-0.5053,-0.4986,-0.417,-0.2703,-0.2726,-0.1922,-0.042,-0.0408,-0.0402,-0.0401,-0.0395,-0.0392,-0.0392,-0.0392,0.0,0.0,-0.0851,-0.1092,-0.2063,-0.0857,-0.1109,-0.2163,-0.2163,-0.2964,-0.4017,0.0,0.0,0.0,0.0,0.0,0.0,1.4336,1.3808,1.3518,1.4181,1.3613,1.2818,1.1979,1.1591,1.1122,1.0479,0.0,0.0,0.0,0.0,0.0,0.0,0.0,0.0,0.0,0.0,0.5243,0.5214,0.5433,0.0,0.0,0.0,0.0,0.0,0.0,0.5481,0.5392,0.5392,0.0,0.0,0.0,0.0,0.0,0.0,0.0,0.0,0.0,0.0,0.4012,0.3669,0.433,0.5064,0.3464,0.3682,0.3943,0.0909,0.0,0.0,0.0,0.0,0.0,0.0,0.0,0.0,0.0,0.0,0.0,0.0,0.0,0.0,0.0,-0.0353,-0.0717,-0.0917,-0.1339,-0.1429,-0.1032,-0.0981,-0.0699,-0.0064,0.0,0.0,0.0,0.0,0.0,0.0,0.0,-0.0605,-0.2083,-0.2105,-0.2056,-0.2007,-0.1994,-0.1673,-0.0986,-0.098,-0.0669,0.0,0.0,0.0,0.0,0.0,0.0,0.0,0.0,0.0,0.0,-0.0214,-0.0315,-0.0768,-0.0203,-0.0303,-0.0806,-0.0806,-0.1159,-0.1712,0.0,0.0,0.0,0.0,0.0,1.3287,1.4414,1.3885,1.3573,1.4213,1.3588,1.2814,1.2101,1.2033,1.1607,1.0549,1.0151,0.0,0.0,0.0,0.0,0.0,0.0,0.0,0.0,0.0,0.5176,0.546,0.5623,0.5772,0.0,0.0,0.5772,0.5589,0.0,0.0,0.0,0.0,0.0,0.0,0.0,0.0,0.0,0.0,0.0,0.0,0.0,0.0,0.0,0.0,0.0,0.5206,0.3607,0.3966,0.4399,0.1381,0.0446,0.0411,0.0075,0.0,0.0,0.0,0.0,0.0,0.0,0.0,0.0,0.0,0.0,0.0,0.0,0.0,-0.0235,-0.1019,-0.1134,-0.1109,-0.1144,-0.1113,-0.0837,-0.0117,0.0,0.0,0.0,0.0,0.0,0.0,0.0,0.0,0.0,0.0,0.0,0.0,0.0,0.0,0.0,0.0,0.0,0.0,0.0,0.0,0.0,0.0,0.0,0.0,0.0,0.0,0.0,0.0,0.0,0.0,0.0,0.0,0.0,0.0,0.0,-0.0151,0.0,0.0,0.0,0.0,0.0,0.0,1.3977,1.4484,1.4578,1.3982,1.4227,1.3925,1.2448,1.2305,1.1689,1.0241,1.0385,0.0,0.0,0.0,0.0,0.0,0.0,0.0,0.0,0.0,0.5467,0.5589,0.5881,0.5986,0.5993,0.5993,0.5874,0.5589,0.0,0.0,0.0,0.0,0.0,0.0,0.0,0.0,0.0,0.0,0.0,0.0,0.0,0.0,0.0,0.0,0.0,0.0,0.0,0.3125,0.2939,0.1888,0.1558,0.135,0.0265,0.0,0.0,0.0,0.0,0.0,0.0,0.0,0.0,0.0,0.0,0.0,0.0,0.0,0.0,0.0,0.0,0.0,0.0,0.0,0.0,0.0,0.0,0.0,0.0,0.0,0.0,0.0,0.0,0.0,0.0,0.0,0.0,0.0,0.0,0.0,0.0,0.0,0.0,0.0,0.0,0.0,0.0,0.0,0.0,0.0,0.0,0.0,0.0,0.0,0.0,0.0,0.0,0.0,0.0,0.0,0.0,0.0,0.0,0.0,0.0,0.0,0.0,0.0,0.0,1.3574,1.341,1.3174,1.2975,1.2567,1.1763,1.1293,1.0719,1.002,0.9995,0.0,0.0,0.0,0.0,0.0,0.0,0.0,0.0,0.0,0.5589,0.5732,0.6037,0.6186,0.6186,0.6186,0.6084,0.5888,0.5888,0.5806,0.0,0.0,0.0,0.0,0.0,0.0,0.63,0.0,0.0,0.0,0.0,0.0,0.0,0.0,0.0,0.0,0.0,0.0,0.0,0.4039,0.2697,0.1532,0.1201,0.0572,0.0,0.0,0.0,0.0,0.0,0.0,0.0,0.0,0.0,0.0,0.0,0.0,-0.0237,-0.0962,-0.1077,-0.1088,-0.1096,-0.1082,-0.0831,-0.0107,0.0,0.0,0.0,0.0,0.0,0.0,0.0,0.0,0.0,0.0,0.0,0.0,0.0,0.0,0.0,0.0,0.0,0.0,0.0,0.0,0.0,0.0,0.0,0.0,0.0,0.0,0.0,0.0,0.0,0.0,0.0,0.0,0.0,0.0,0.0,0.0,0.0,0.0,0.0,0.0,0.0,0.0,0.0,1.2814,1.2606,1.22,1.2054,1.1717,1.0989,1.0609,1.0016,0.902,0.8887,0.0,0.0,0.0,0.0,0.0,0.0,0.0,0.5298,0.5542,0.5739,0.5888,0.6177,0.63,0.63,0.63,0.6179,0.5993,0.5993,0.5685,0.0,0.0,0.0,0.0,0.0,0.0,0.5079,0.0,0.0,0.0,0.0,0.0,0.0,0.0,0.0,0.0,0.0,0.0,0.0,0.0,0.4113,0.2602,0.1803,0.1127,0.0523,0.0116,0.0,0.0,0.0,0.0,0.0,0.0,0.0,0.0,0.0,0.0,-0.0237,-0.088,-0.099,-0.0998,-0.1007,-0.098,-0.0771,-0.0054,0.0,0.0,0.0,0.0,0.0,0.0,0.0,0.0,0.0,0.0,0.0,0.0,0.0,0.0,0.0,0.0,0.0,0.0,0.0,0.0,0.0,0.0,0.0,0.0,0.0,0.0,0.0,0.0,0.0,0.0,0.0,0.0,0.0,0.0,0.0,0.0,0.0,0.0,0.0,0.0,0.0,0.0,0.0,1.2182,1.2102,1.118,1.1435,1.1266,1.013,1.0172,0.9457,0.7469,0.0,0.0,0.0,0.0,0.0,0.0,0.0,0.0,0.5589,0.5739,0.5888,0.5993,0.6186,0.6306,0.6313,0.6306,0.6155,0.5927,0.5914,0.5241,0.0,0.0,0.0,0.0,0.0,0.0,0.0,0.0,0.0,0.0,0.0,0.0,0.0,0.0,0.0,0.0,0.0,0.0,0.0,0.0,0.0,0.0,0.0,0.1605,0.1338,0.0268,0.0,0.0,0.0,0.0,0.0,0.0,0.0,0.0,0.0,0.0,0.0039,0.0118,0.0039,0.0041,0.0089,0.0046,0.0,0.0,0.0,0.0061,0.0182,0.0194,0.0269,0.0404,0.0404,0.0403,0.0335,0.0393,0.0322,0.0193,0.019,0.0125,0.0,0.0,0.0,0.0,0.0,0.0,0.0,0.0,0.0,0.0,0.0,0.0,0.0,0.0,0.0,0.0,0.0,0.0,0.0,0.0,0.0,0.0,0.0,0.0,0.0,0.0,0.0,0.0,0.0,0.0,0.0,0.0,1.0766,1.0487,0.9249,0.8972,0.8392,0.0,0.0,0.0,0.0,0.0,0.0,0.0,0.0,0.0,0.5589,0.584,0.5952,0.5993,0.6186,0.6354,0.6457,0.6354,0.5883,0.5149,0.5058,0.4409,0.0,0.0,0.0,0.0,0.0,0.0,0.0,0.0,0.0,0.0,0.4402,0.4858,0.0,0.0,0.0,0.0,0.0,0.0,0.0,0.0,0.3671,0.3185,0.1956,0.0,0.1327,0.0257,0.0,0.0,0.0,0.0,0.0,0.0,0.0,0.0,0.0,0.0,0.0276,0.1085,0.0516,0.0286,0.1131,0.0517,0.0,0.0,0.0,0.0523,0.1935,0.2048,0.2618,0.4024,0.4158,0.4052,0.3899,0.3868,0.3309,0.1932,0.1923,0.1299,0.0,0.0,0.0,0.0,0.0,0.0,0.0,0.0,0.0,0.0,0.0,0.0,0.0,0.0,0.0,0.0,0.0,0.0,0.0,0.0,0.0,0.0,0.0,0.0,0.0,0.0,0.0,0.0,0.0,0.0,0.0,0.0,0.0,0.9548,0.8321,0.832,0.0,0.0,0.0,0.0,0.0,0.0,0.0,0.0,0.0,0.4682,0.4375,0.4498,0.4606,0.467,0.4776,0.4872,0.4929,0.4872,0.4548,0.4039,0.3497,0.2964,0.0,0.0,0.0,0.0,0.1691,0.0,0.0,0.0,0.0,0.0,0.3055,0.3594,0.0,0.4624,0.4452,0.3982,0.0,0.0,0.0,0.0,0.3083,0.2891,0.1879,0.1619,0.1354,0.0279,0.0,0.0,0.0,0.0,0.0,0.0,0.0392,0.0746,0.0746,0.0746,0.1063,0.211,0.0984,0.0393,0.1508,0.1182,0.1114,0.1961,0.1607,0.1953,0.3774,0.3939,0.4359,0.5295,0.5429,0.5311,0.5127,0.509,0.4639,0.3606,0.3579,0.2462,0.0,0.0,0.0,0.0,0.0,0.0,0.0,0.0,0.0,0.0,0.0,0.0,0.0,0.0,0.0,0.0,0.0,0.0,0.0,0.0,0.0,0.0,0.0,0.0,0.0,0.0,0.0,0.0,0.0,0.0,0.0,0.0,0.0,0.0,0.0,0.0,0.0,0.0,0.0,0.0,0.0,0.0,0.0,0.0,0.3917,0.3654,0.2904,0.2913,0.2979,0.3097,0.311,0.312,0.3133,0.312,0.3036,0.2837,0.1791,0.1375,0.0,0.0,0.0,0.0,0.0,0.0,0.0,0.0,0.0,0.0,0.0,0.0,0.0,0.3039,0.2988,0.2891,0.2891,0.0,0.0,0.0,0.0,0.0,0.1574,0.1337,0.112,0.0244,0.0121,0.0243,0.0243,0.0358,0.047,0.047,0.1215,0.184,0.184,0.1846,0.2203,0.3221,0.1983,0.1248,0.219,0.2326,0.2943,0.4435,0.3735,0.3814,0.5653,0.5823,0.5897,0.6164,0.6219,0.6105,0.5889,0.5869,0.5653,0.532,0.5255,0.3812,0.0802,0.074,0.0617,0.037,0.0359,0.0236,0.0,0.0,0.0,0.0,0.0,0.0,0.0,0.0,0.0,0.0,0.0,0.0,0.0,0.0,0.0,0.0,0.0,0.0,0.0,0.0,0.0,0.0,0.0,0.0,0.0,0.0,0.0,0.0,0.0,0.0,0.0,0.0,0.0,0.0,0.0,0.0,0.0,0.2054,0.2693,0.3044,0.2904,0.3001,0.308,0.31,0.3084,0.3187,0.3333,0.3187,0.2632,0.1788,0.0722,0.0256,0.0251,0.0,0.0,0.0,0.0,0.0,0.0,0.0,0.0,0.0,0.0,0.0,0.0,0.2811,0.2553,0.184,0.184,0.0,0.0,0.0,0.0,0.0,0.0282,0.0261,0.0227,0.0041,0.0671,0.134,0.134,0.2,0.2618,0.2618,0.2774,0.2852,0.2852,0.2978,0.3381,0.4468,0.4902,0.5018,0.4893,0.482,0.4942,0.5257,0.5125,0.5683,0.743,0.7578,0.8235,0.9782,0.9802,0.9676,0.948,0.9337,0.8567,0.7082,0.7001,0.6075,0.418,0.4119,0.3446,0.2093,0.2117,0.137,0.0,0.0,0.0,0.0,0.0,0.0,0.0,0.0,0.0,0.0,0.0,0.0,0.0,0.0,0.0,0.0,0.0,0.0,0.0,0.0,0.0,0.0,0.0,0.0,0.0,0.0,0.0,0.0,0.0,0.0,0.0,0.0,0.0,0.0,0.0,0.0,0.2647,0.1652,0.1874,0.1824,0.1359,0.1972,0.2309,0.2309,0.2958,0.3275,0.335,0.2693,0.2146,0.1654,0.0508,0.0,0.0,0.0,0.0,0.0,0.0,0.0,0.0,0.0,0.0,0.0,0.0,0.0,0.0,0.0,0.1109,0.073,0.0751,0.0,0.0,0.0,0.0,0.0,0.0716,0.0871,0.0859,0.0847,0.0801,0.0742,0.0718,0.1112,0.1578,0.2172,0.2728,0.3282,0.3962,0.3601,0.3288,0.3669,0.5799,0.7177,0.6414,0.6317,0.6654,0.7629,0.7195,0.7493,0.9264,0.9474,0.9775,1.0651,1.0575,1.0432,1.029,1.0134,0.9601,0.8714,0.8708,0.8343,0.7551,0.7551,0.6263,0.3812,0.2907,0.2098,0.1309,0.0407,0.0,0.0,0.0,0.0,0.0,0.0,0.0,0.0,0.0,0.0,0.0,0.0,0.0,0.0,0.0,0.0,0.0,0.0,0.0,0.0,0.0,0.0,0.0,0.0,0.0,0.0,0.0,0.0,0.0,0.0,0.0,0.0,0.0,0.3608,0.2709,0.1909,0.1726,0.1251,0.0378,0.1385,0.1907,0.1957,0.291,0.336,0.3335,0.2534,0.2142,0.212,0.1167,0.0741,0.0726,0.0726,0.0718,0.0,0.0,0.0,0.0,0.0,0.0,0.0,0.0,0.0,0.0,0.0,0.0,0.0,0.0,0.0,0.0,0.067,0.0745,0.0903,0.1735,0.1966,0.1948,0.194,0.1516,0.0948,0.0497,0.0735,0.1386,0.239,0.3177,0.4057,0.531,0.4821,0.4181,0.4145,0.6884,0.8723,0.8066,0.7946,0.8443,0.9854,0.9218,0.9191,1.0545,1.0717,1.0717,1.0717,1.0548,1.0392,1.0283,1.01,0.9883,0.9822,0.9822,0.9822,0.9822,0.9451,0.7961,0.5376,0.3793,0.2811,0.2391,0.0757,0.0,0.0,0.0,0.0,0.0,0.0,0.0,0.0,0.0,0.0,0.0,0.0,0.0,0.0,0.0,0.0,0.0,0.0,0.0,0.0,0.0,0.0,0.0,0.0,0.0,0.0,0.0,0.0,0.0,0.0,0.0,0.0,0.0,0.3391,0.2837,0.2623,0.2617,0.2241,0.151,0.2344,0.2867,0.3005,0.3193,0.3387,0.3588,0.3326,0.3212,0.3164,0.2961,0.2884,0.2859,0.2859,0.2895,0.281,0.1879,0.0,0.0,0.0,0.0,0.0,0.0,0.0,0.0,0.0,0.0,0.0,0.0,0.0,0.1649,0.2618,0.2888,0.2904,0.297,0.3004,0.3001,0.3006,0.3683,0.3871,0.194,0.2974,0.4596,0.5355,0.5476,0.5822,0.7167,0.7421,0.769,0.8339,0.9169,0.9889,1.0359,1.0412,1.0478,1.0649,1.059,1.0538,1.0717,1.0717,1.0717,1.0717,1.046,1.029,1.0283,0.9998,0.9829,0.9822,0.9822,0.9822,0.9822,0.8343,0.7372,0.6911,0.5444,0.3819,0.2175,0.0694,0.0,0.0,0.0,0.0,0.0,0.0,0.0,0.0,0.0,0.0,0.0,0.0,0.0,0.0,0.0,0.0,0.0,0.0,0.0,0.0,0.0,0.0,0.0,0.0,0.0,0.0,0.0,0.0,0.0,0.0,0.0,0.0,0.0,0.3861,0.3398,0.2727,0.3205,0.3426,0.3235,0.3671,0.4,0.4219,0.5032,0.5543,0.5774,0.4741,0.4353,0.4371,0.3487,0.3176,0.327,0.3142,0.3149,0.319,0.2711,0.0,0.0,0.0,0.0,0.0,0.0,0.0,0.0,0.0,0.2537,0.2524,0.2513,0.2545,0.259,0.2979,0.3083,0.3246,0.3907,0.4358,0.4557,0.4202,0.5238,0.5549,0.2336,0.3138,0.46,0.4757,0.575,0.6558,0.6588,0.7948,0.8754,0.7908,0.9243,1.046,1.069,1.0717,1.0717,1.0717,1.0717,1.0717,1.0717,1.0717,1.0683,1.0582,1.0392,1.0236,1.0141,0.9937,0.9822,0.9822,0.9822,0.9822,0.9822,0.9201,0.8829,0.8587,0.5074,0.3054,0.2356,0.07,0.0,0.0,0.0,0.0,0.0,0.0,0.0,0.0,0.0,0.0,0.0,0.0,0.0,0.0,0.0,0.0,0.0,0.0,0.0,0.0,0.0,0.0,0.0,0.0,0.0,0.0,0.0,0.0,0.0,0.0,0.0,0.0,0.4438,0.4619,0.4362,0.3665,0.4214,0.4625,0.4755,0.4919,0.5049,0.5254,0.6202,0.6831,0.7024,0.6002,0.5564,0.5557,0.4658,0.4312,0.4412,0.4267,0.4223,0.4281,0.3853,0.3655,0.0,0.0,0.0,0.0,0.0,0.0,0.0,0.0,0.362,0.359,0.3623,0.3616,0.3671,0.4003,0.4098,0.4258,0.5002,0.549,0.5738,0.5452,0.6406,0.6673,0.3775,0.3647,0.4201,0.4577,0.6428,0.7769,0.7285,0.8611,0.9344,0.816,0.9486,1.0717,1.0717,1.0717,1.0717,1.0717,1.0717,1.0717,1.0717,1.0677,1.0602,1.05,1.0317,1.0161,0.999,0.9903,0.9822,0.9822,0.9822,0.9822,0.9822,0.9268,0.8975,0.8888,0.5029,0.3187,0.3112,0.1538,0.0527,0.0,0.0,0.0,0.0,0.0,0.0,0.0,0.0,0.0,0.0,0.0,0.0,0.0,0.0,0.0,0.0,0.0,0.0,0.0,0.0,0.0,0.0,0.0,0.0,0.0,0.0,0.0,0.0,0.0,0.0,0.0,0.5399,0.5637,0.5739,0.5596,0.569,0.5831,0.5949,0.5993,0.5993,0.6,0.6485,0.6776,0.6883,0.6883,0.6844,0.6702,0.6702,0.6702,0.6688,0.6539,0.6511,0.6391,0.5342,0.4827,0.474,0.0,0.0,0.0,0.0,0.0,0.0,0.0,0.4698,0.4706,0.4698,0.4698,0.4924,0.5983,0.63,0.63,0.63,0.6306,0.6422,0.6824,0.7163,0.7263,0.6669,0.4867,0.3791,0.5331,0.7884,0.9829,0.9822,0.9713,0.9666,0.9802,1.0324,1.0717,1.0717,1.0717,1.0717,1.0717,1.0717,1.0717,1.0717,1.0582,1.0493,1.0487,1.0215,0.9984,0.9984,0.9842,0.9822,0.9822,0.9822,0.9822,0.9822,0.8216,0.7418,0.7418,0.559,0.4729,0.4624,0.3185,0.161,0.0059,0.0,0.0058,0.0056,0.0,0.0,0.0,0.0,0.0,0.0,0.0,0.0,0.0,0.0,0.0,0.0,0.0,0.0,0.0,0.0,0.0,0.0,0.0,0.0,0.0,0.0,0.0,0.0,0.0,0.0,0.0,0.517,0.4773,0.4517,0.4463,0.3932,0.3643,0.3666,0.4514,0.5446,0.6498,0.6525,0.6675,0.6883,0.6709,0.658,0.6546,0.6654,0.6641,0.6539,0.6532,0.6511,0.6464,0.6047,0.5866,0.5828,0.0,0.0,0.0,0.0,0.0,0.0,0.0,0.0,0.0,0.5833,0.5883,0.6027,0.6249,0.6368,0.6429,0.6327,0.6764,0.721,0.7231,0.7862,0.8186,0.7146,0.7433,0.8183,0.9311,1.0088,1.0422,0.9997,1.0202,1.0263,0.9883,1.0324,1.0717,1.0717,1.0717,1.0717,1.0717,1.0717,1.0717,1.0717,1.0582,1.0453,1.0351,1.0161,0.9936,0.9897,0.9842,0.9822,0.9822,0.9822,0.9774,0.9673,0.9187,0.8891,0.8797,0.8337,0.6971,0.4814,0.4199,0.3692,0.3223,0.2064,0.2145,0.3075,0.2014,0.0952,0.0,0.0,0.0,0.0,0.0,0.0,0.0,0.0,0.0,0.0,0.0,0.0,0.0,0.0,0.0,0.0,0.0,0.0,0.0,0.0,0.0,0.0,0.0,0.0,0.0,0.0,0.4289,0.3929,0.3573,0.3117,0.3063,0.3477,0.4213,0.5263,0.6607,0.6559,0.66,0.6837,0.677,0.6709,0.6668,0.6939,0.6905,0.6654,0.6654,0.662,0.6552,0.6511,0.6436,0.6388,0.0,0.0,0.0,0.0,0.0,0.0,0.0,0.0,0.0,0.63,0.6361,0.6422,0.6395,0.6402,0.647,0.6689,0.7054,0.7509,0.7896,0.8601,0.911,0.8781,0.9033,0.9545,1.0089,1.0612,1.0921,1.0555,1.0616,1.0602,1.0236,1.0487,1.0717,1.0717,1.0717,1.0717,1.0717,1.0717,1.0697,1.0636,1.0493,1.0344,1.0202,1.0046,0.9856,0.9829,0.9822,0.9822,0.9822,0.9822,0.9781,0.9693,0.9639,0.9564,0.9469,0.9442,0.8496,0.6686,0.5897,0.5192,0.4579,0.3559,0.3296,0.3519,0.2571,0.1343,0.0,0.0,0.0,0.0,0.0,0.0,0.0,0.0,0.0,0.0,0.0,0.0,0.0,0.0,0.0,0.0,0.0,0.547,0.0,0.0,0.0,0.0,0.0,0.0,0.0,0.0,0.4007,0.3661,0.2792,0.2874,0.3488,0.456,0.4679,0.525,0.6351,0.6458,0.6539,0.6709,0.6943,0.7011,0.6903,0.7373,0.7312,0.6862,0.6849,0.6797,0.6661,0.6661,0.658,0.6511,0.6607,0.0,0.0,0.0,0.0,0.0,0.0,0.0,0.0,0.63,0.6306,0.634,0.6457,0.6436,0.6532,0.7228,0.7319,0.7496,0.8669,0.9401,1.0019,1.0968,1.0022,0.8931,0.8955,1.0153,1.1234,1.1234,1.0921,1.0717,1.0717,1.0717,1.0717,1.0717,1.0717,1.0717,1.0717,1.0711,1.0643,1.0507,1.0351,1.0202,0.9997,0.9849,0.9822,0.9822,0.9822,0.9822,0.9822,0.9808,0.9795,0.9781,0.9639,0.9564,0.9544,0.9337,0.9275,0.9289,0.7878,0.6336,0.4733,0.4834,0.3965,0.2403,0.2571,0.1734,0.0392,0.0392,0.0336,0.0224,0.0224,0.0112,0.0,0.0,0.0,0.0,0.0,0.0,0.0,0.0,0.0,0.0,0.0,0.0,0.0,0.0,0.0,0.0,0.0,0.0,0.0,0.0,0.3226,0.2492,0.1667,0.1822,0.2537,0.3796,0.44,0.4886,0.5261,0.5962,0.6484,0.6702,0.6849,0.6916,0.6896,0.7098,0.7054,0.6742,0.662,0.6525,0.6395,0.6395,0.6375,0.6347,0.6381,0.6354,0.0,0.0,0.0,0.0,0.0,0.0,0.0,0.63,0.6375,0.645,0.6368,0.6614,0.7014,0.7292,0.7773,0.8425,0.9388,1.0324,1.1063,1.1287,1.1173,1.0967,1.0812,1.1008,1.1234,1.1234,1.0921,1.0717,1.0717,1.0717,1.0717,1.0717,1.0717,1.0717,1.0717,1.0616,1.0527,1.0493,1.0256,1.0024,0.999,0.9849,0.9822,0.9822,0.9822,0.9822,0.9822,0.9713,0.9598,0.9476,0.9327,0.9191,0.0,0.913,0.911,0.8979,0.867,0.7685,0.6284,0.7438,0.6478,0.408,0.525,0.486,0.3522,0.3522,0.2796,0.1733,0.1733,0.1008,0.0,0.0,0.0,0.0,0.0,0.0,0.0,0.0,0.0,0.0,0.0,0.0,0.0,0.0,0.0,0.0,0.0,0.0,0.0,0.0,0.0,0.2178,0.1477,0.2017,0.2881,0.4093,0.4519,0.497,0.5574,0.6061,0.645,0.6702,0.6858,0.6923,0.6991,0.7183,0.7048,0.6695,0.6614,0.6538,0.6402,0.6402,0.6402,0.6402,0.6402,0.6361,0.63,0.63,0.0,0.0,0.0,0.0,0.0,0.0,0.0,0.6409,0.6402,0.658,0.6966,0.7624,0.8133,0.8784,1.0046,1.0826,1.1321,1.1463,1.1558,1.1572,1.1423,1.1328,1.1246,1.1179,1.0982,1.0739,1.0731,1.0717,1.0717,1.0717,1.0717,1.0717,1.0717,1.0582,1.0466,1.0399,1.0181,0.9957,0.9883,0.9869,0.9822,0.9822,0.9822,0.9822,0.9822,0.9686,0.9571,0.949,0.9323,0.915,0.915,0.9083,0.9015,0.8885,0.8885,0.8491,0.782,0.8546,0.7654,0.5584,0.6366,0.581,0.4526,0.4526,0.3575,0.218,0.218,0.1287,0.0,0.0,0.0,0.0,0.0,0.0,0.0,0.0,0.0,0.0,0.0,0.0,0.0,0.0,0.0,0.0,0.0,0.0,0.0,0.0,0.0,0.0,0.1893,0.2838,0.3918,0.5022,0.5002,0.5433,0.6334,0.6313,0.6463,0.6742,0.6871,0.6977,0.7139,0.7258,0.7088,0.6736,0.6661,0.6552,0.6477,0.6477,0.6477,0.6477,0.6477,0.6402,0.63,0.63,0.63,0.63,0.63,0.0,0.0,0.0,0.0,0.632,0.6443,0.6532,0.6783,0.7876,0.8411,0.9069,1.0509,1.1056,1.1246,1.1552,1.1579,1.1511,1.1409,1.1369,1.1307,1.1151,1.1009,1.0799,1.0744,1.0717,1.0717,1.0717,1.0717,1.0717,1.0717,1.0561,1.0412,1.029,1.012,0.9896,0.9829,0.9822,0.9822,0.9822,0.9822,0.9808,0.9788,0.9646,0.9557,0.953,0.9252,0.9178,0.93,0.9083,0.8974,0.8974,0.8974,0.8905,0.8885,0.8885,0.8208,0.7093,0.7093,0.6366,0.525,0.525,0.43,0.2961,0.2961,0.1902,0.0392,0.0,0.0,0.0,0.0,0.0,0.0,0.0,0.0,0.0,0.0,0.4389,0.4511,0.0,0.0,0.0,0.0,0.0,0.0,0.0,0.0,0.0,0.3027,0.399,0.511,0.6388,0.6212,0.6218,0.6484,0.6361,0.6478,0.6856,0.6876,0.7075,0.7333,0.7095,0.691,0.6829,0.6485,0.6347,0.6327,0.6327,0.6327,0.6327,0.6327,0.6313,0.63,0.63,0.63,0.63,0.63,0.63,0.0,0.0,0.0,0.6306,0.632,0.6566,0.6959,0.738,0.854,0.9849,1.0664,1.1056,1.1246,1.1552,1.1416,1.1253,1.1369,1.1287,1.1151,1.1002,1.0786,1.0744,1.0724,1.0717,1.0717,1.0717,1.0717,1.0717,1.0717,1.048,1.0304,1.0283,1.0019,0.9842,0.9822,0.9822,0.9822,0.9822,0.9822,0.9768,0.9639,0.949,0.9347,0.9268,0.9049,0.8925,0.8946,0.9083,0.918,0.918,0.918,0.9055,0.8885,0.8885,0.8774,0.8602,0.8602,0.8491,0.8325,0.8325,0.7426,0.6084,0.6084,0.43,0.19,0.0,0.0,0.0,0.0,0.0,0.0,0.0,0.0,0.0,0.0,0.0,0.4341,0.0,0.0,0.0,0.0,0.0,0.0,0.0,0.0,0.0,0.3933,0.5002,0.5885,0.6451,0.6368,0.6327,0.6395,0.6327,0.6484,0.6803,0.6849,0.7129,0.7482,0.7102,0.6883,0.6856,0.6491,0.63,0.63,0.63,0.6402,0.6491,0.6361,0.6402,0.6485,0.6361,0.63,0.63,0.63,0.63,0.63,0.63,0.0,0.0,0.0,0.6497,0.6865,0.7753,0.8703,0.9666,1.0588,1.0867,1.0995,1.1294,1.126,1.1158,1.1145,1.109,1.1023,1.0894,1.0759,1.0717,1.0717,1.0717,1.0717,1.0717,1.0717,1.0717,1.0717,1.046,1.0283,1.0283,0.9998,0.9822,0.9822,0.9822,0.9788,0.9707,0.97,0.9632,0.949,0.9334,0.9275,0.9207,0.9008,0.8981,0.9062,0.918,0.9207,0.9207,0.9069,0.9042,0.9055,0.8974,0.8885,0.8885,0.8885,0.8885,0.8885,0.8885,0.7986,0.67,0.67,0.4801,0.218,0.0,0.0,0.0,0.0,0.0,0.0,0.0,0.0,0.0,0.0,0.0,0.0,0.0,0.0,0.0,0.0,0.0,0.0,0.0,0.0,0.0,0.4389,0.5563,0.6259,0.63,0.63,0.63,0.63,0.6022,0.6026,0.6289,0.6439,0.6764,0.7155,0.707,0.7021,0.691,0.6546,0.6416,0.6416,0.6416,0.6505,0.6675,0.6497,0.6512,0.6661,0.6409,0.63,0.63,0.63,0.63,0.63,0.63,0.63,0.0,0.0,0.0,0.6716,0.7828,0.8445,0.9022,1.0107,1.0439,1.0602,1.1016,1.1077,1.1029,1.0894,1.0847,1.0826,1.0826,1.0799,1.0717,1.0717,1.0717,1.0717,1.0717,1.0717,1.0704,1.067,1.0439,1.0263,1.0222,0.9978,0.9822,0.9822,0.9822,0.9761,0.9618,0.9612,0.9523,0.9327,0.9268,0.9193,0.9096,0.8994,0.8994,0.9096,0.9193,0.9207,0.9207,0.9042,0.9049,0.92,0.9001,0.8885,0.8885,0.8885,0.8885,0.8885,0.8885,0.8208,0.726,0.726,0.5361,0.2794,0.0,0.0,0.0,0.0,0.0,0.0,0.0,0.0,0.0,0.0,0.0,0.0,0.4464,0.4301,0.4133,0.4011,0.3327,0.2653,0.2053,0.3238,0.4016,0.4196,0.5371,0.0,0.6293,0.63,0.63,0.63,0.5273,0.4934,0.518,0.54,0.5636,0.592,0.6909,0.7265,0.7065,0.6803,0.6675,0.6675,0.6675,0.6688,0.6702,0.6681,0.6688,0.6661,0.6409,0.63,0.63,0.63,0.63,0.63,0.63,0.63,0.63,0.0,0.0,0.0,0.6997,0.7441,0.7963,0.915,0.9659,1.0059,1.0725,1.0846,1.0778,1.0853,1.0833,1.0731,1.0731,1.0724,1.0717,1.0717,1.0717,1.0717,1.0717,1.0717,1.0663,1.0521,1.0371,1.0222,1.0011,0.9856,0.9822,0.9822,0.9822,0.9761,0.9618,0.9612,0.9469,0.9228,0.9214,0.9089,0.8898,0.8885,0.8885,0.8898,0.9089,0.9207,0.9207,0.92,0.92,0.92,0.9001,0.8885,0.8885,0.8885,0.8885,0.8885,0.8885,0.883,0.8774,0.8774,0.6927,0.4359,0.0,0.0,0.0,0.0,0.0,0.0,0.0,0.0,0.0,0.0,0.0,0.0,0.0,0.3874,0.4092,0.4139,0.3733,0.3458,0.3412,0.4047,0.472,0.5316,0.5876,0.6245,0.63,0.63,0.63,0.63,0.5906,0.5823,0.6011,0.6232,0.6399,0.6536,0.6889,0.7109,0.7065,0.662,0.6511,0.6559,0.6661,0.681,0.6916,0.677,0.6939,0.721,0.6722,0.6539,0.6539,0.6539,0.6457,0.63,0.63,0.63,0.63,0.63,0.63,0.6429,0.6937,0.7179,0.7543,0.8554,0.9103,0.9517,0.9985,1.0344,1.0588,1.0643,1.069,1.0717,1.0717,1.0717,1.0717,1.0717,1.0717,1.0717,1.0717,1.0717,1.0663,1.0507,1.0365,1.0222,1.0004,0.9849,0.9822,0.9822,0.9822,0.9713,0.9476,0.9462,0.9327,0.9022,0.9015,0.8988,0.8885,0.8885,0.8988,0.9076,0.9035,0.9062,0.9207,0.9055,0.9015,0.9015,0.8905,0.8885,0.8885,0.8885,0.8885,0.8885,0.8885,0.8994,0.9076,0.9076,0.7826,0.5895,0.0,0.0,0.0,0.0,0.0,0.0,0.0,0.0,0.0,0.1873,0.0,0.0,0.0,0.0,0.4281,0.4436,0.4285,0.4252,0.448,0.4804,0.5274,0.5912,0.6098,0.6245,0.63,0.63,0.63,0.63,0.5944,0.5819,0.591,0.6137,0.6207,0.6251,0.6586,0.6912,0.7071,0.6722,0.6552,0.6573,0.6824,0.7075,0.7227,0.7075,0.7278,0.7597,0.7048,0.6817,0.6783,0.6831,0.6715,0.6539,0.6477,0.6381,0.63,0.63,0.63,0.6388,0.6742,0.6878,0.7129,0.8031,0.8445,0.8818,0.9517,0.991,1.0188,1.0439,1.0575,1.0656,1.0711,1.0717,1.0717,1.0717,1.0717,1.0717,1.0717,1.0717,1.0643,1.0446,1.0337,1.0202,0.993,0.9883,0.9822,0.9822,0.9822,0.0,0.9395,0.9381,0.9245,0.8892,0.8885,0.8885,0.8885,0.8885,0.8988,0.9083,0.8988,0.8988,0.9076,0.8981,0.8885,0.8885,0.8885,0.8885,0.8885,0.8885,0.8967,0.9008,0.9008,0.9103,0.9282,0.9228,0.8262,0.6799,0.0,0.0,0.0,0.0,0.0,0.0,0.0,0.0,0.1765,0.1909,0.0,0.0,0.0,0.0,0.0,0.4874,0.4894,0.4961,0.511,0.5433,0.5664,0.5806,0.5919,0.6105,0.6293,0.63,0.63,0.63,0.5273,0.4742,0.4728,0.4894,0.4961,0.4976,0.6053,0.6715,0.7071,0.7071,0.691,0.6742,0.719,0.7461,0.7604,0.7611,0.7706,0.778,0.7287,0.7045,0.695,0.7085,0.7112,0.7045,0.6783,0.6491,0.63,0.63,0.63,0.63,0.0,0.0,0.0,0.755,0.7678,0.7963,0.9415,0.9544,0.9557,1.0297,1.046,1.0514,1.0683,1.0717,1.0717,1.0717,1.0717,1.0717,1.0717,1.0717,1.0609,1.0317,1.0283,1.0161,0.9849,0.9822,0.9822,0.9822,0.9815,0.9686,0.9395,0.9374,0.9239,0.8892,0.8885,0.8885,0.8885,0.8885,0.8885,0.8885,0.8885,0.8885,0.8885,0.8885,0.8885,0.8885,0.8885,0.8885,0.8885,0.8885,0.9022,0.9207,0.9207,0.9309,0.9367,0.9275,0.8329,0.7137,0.0,0.0,0.0,0.0,0.0,0.0,-0.0406,-0.0428,-0.0198,0.0,0.0,0.0,0.2449,0.3816,0.4755,0.4874,0.5114,0.5345,0.5596,0.58,0.5976,0.6163,0.6211,0.6252,0.63,0.63,0.63,0.63,0.5983,0.5847,0.5846,0.598,0.6049,0.6087,0.6484,0.6586,0.6505,0.6505,0.658,0.6742,0.719,0.7461,0.7624,0.7834,0.8147,0.8418,0.8079,0.7997,0.8045,0.7977,0.7597,0.7011,0.6539,0.6368,0.63,0.63,0.63,0.63,0.63,0.0,0.0,0.0,0.0,0.0,0.7929,0.8323,0.8811,0.9453,0.97,0.9998,1.0466,1.0643,1.0717,1.0717,1.0717,1.0717,1.0717,1.0717,1.0609,1.0317,1.0283,1.0161,0.9849,0.9822,0.9822,0.0,0.9727,0.9585,0.9395,0.9178,0.9022,0.8885,0.8885,0.8885,0.8885,0.8885,0.8885,0.8885,0.8885,0.8885,0.8885,0.8885,0.8885,0.8885,0.8885,0.8885,0.8885,0.8885,0.9022,0.9207,0.9207,0.9313,0.9544,0.9496,0.9268,0.8763,0.0,0.0,0.0,0.0,0.0,-0.2079,-0.1898,-0.1921,-0.1761,0.0,0.0,0.0,0.278,0.4205,0.5148,0.5332,0.5481,0.5644,0.5881,0.5922,0.5976,0.6102,0.6108,0.6098,0.6166,0.6166,0.6238,0.63,0.63,0.63,0.63,0.6381,0.6422,0.6429,0.6518,0.6463,0.6293,0.6193,0.6261,0.6478,0.7115,0.7536,0.7821,0.818,0.856,0.8866,0.8635,0.8601,0.8662,0.8574,0.8004,0.7251,0.6776,0.6777,0.6834,0.6416,0.6602,0.6834,0.6416,0.63,0.6368,0.6593,0.0,0.0,0.7644,0.7875,0.8214,0.905,0.9347,0.9639,1.0046,1.0297,1.0439,1.0439,1.0493,1.0582,1.0704,1.0663,1.0541,1.031,1.0222,1.0086,0.9842,0.9822,0.9822,0.9822,0.9747,0.9605,0.9395,0.9103,0.8885,0.8885,0.8885,0.8885,0.8885,0.8885,0.8885,0.8885,0.8885,0.8885,0.8885,0.8885,0.8885,0.8885,0.8885,0.8885,0.8885,0.8885,0.9022,0.9207,0.9207,0.9357,0.9517,0.9517,0.9557,0.9486,0.0,0.0,-0.1581,-0.1481,-0.2467,-0.3159,-0.2941,-0.3002,-0.3014,0.0,-0.1289,0.0736,0.3255,0.458,0.5416,0.5754,0.5666,0.5712,0.5952,0.5861,0.5786,0.58,0.582,0.5881,0.5966,0.5986,0.6098,0.6272,0.6272,0.6286,0.63,0.63,0.63,0.63,0.63,0.6293,0.6265,0.6071,0.5993,0.6152,0.7041,0.7651,0.8042,0.8594,0.896,0.9241,0.9062,0.8966,0.8966,0.8885,0.837,0.7631,0.7193,0.7397,0.7571,0.6708,0.7126,0.7683,0.6841,0.6641,0.6702,0.7083,0.6924,0.0,0.8158,0.8034,0.7938,0.8939,0.9161,0.9218,0.9422,0.97,0.9835,0.9815,1.0059,1.0317,1.0629,1.0555,1.0419,1.027,1.0134,0.993,0.9836,0.9822,0.9822,0.9822,0.9788,0.9646,0.9347,0.9083,0.8892,0.8905,0.8905,0.8905,0.8905,0.8905,0.8898,0.8885,0.8885,0.8885,0.8885,0.8885,0.8885,0.8885,0.8885,0.8885,0.8885,0.8885,0.9022,0.9207,0.9207,0.9316,0.9408,0.9408,0.9503,0.9632,0.0,-0.2557,-0.3427,-0.2699,-0.4156,-0.511,-0.4268,-0.4257,-0.4053,-0.327,-0.1522,-0.0108,0.0536,0.2216,0.3604,0.4483,0.4445,0.4792,0.5791,0.5711,0.5684,0.5793,0.5922,0.5905,0.5847,0.5932,0.6006,0.6071,0.6071,0.6139,0.63,0.63,0.63,0.63,0.63,0.6193,0.6064,0.5908,0.6057,0.6451,0.7238,0.7746,0.8076,0.894,0.9361,0.9517,0.949,0.9551,0.9557,0.8954,0.856,0.8153,0.7251,0.7185,0.7462,0.7494,0.7793,0.8199,0.8587,0.8732,0.8722,0.8807,0.8941,0.0,0.9114,0.8579,0.8237,0.8687,0.8266,0.7972,0.8438,0.8771,0.8933,0.8804,0.9327,0.989,1.0304,1.0337,1.0263,1.0051,1.0004,0.993,0.9836,0.9822,0.9822,0.9822,0.9598,0.934,0.9042,0.8912,0.8994,0.911,0.9166,0.9166,0.9166,0.9166,0.9055,0.8885,0.8885,0.8885,0.8885,0.8885,0.8885,0.8885,0.8885,0.8885,0.8885,0.8885,0.9022,0.9207,0.9207,0.932,0.9564,0.9564,0.9652,0.9781,-0.2753,-0.3561,-0.4197,-0.3768,-0.5046,-0.5967,-0.547,-0.5498,-0.5405,-0.4882,-0.2564,-0.0799,-0.0263,0.1673,0.312,0.3609,0.4086,0.4349,0.4349,0.4802,0.481,0.429,0.4307,0.4364,0.4349,0.4958,0.5278,0.5334,0.5873,0.6186,0.63,0.63,0.6259,0.6146,0.6265,0.6173,0.5986,0.5912,0.622,0.6749,0.7272,0.7801,0.835,0.9178,0.9585,0.9713,0.9713,0.9761,0.9727,0.913,0.9154,0.9234,0.7882,0.8695,0.9935,0.8614,0.9128,1.004,0.9453,0.9301,0.9322,0.9471,0.9502,0.0,0.0,0.9348,0.8891,0.8741,0.8414,0.8099,0.7911,0.8065,0.8262,0.8262,0.8764,0.9191,0.9266,0.9788,1.0134,0.9997,0.9923,0.9842,0.9829,0.9822,0.9788,0.972,0.951,0.9279,0.9055,0.8981,0.8974,0.9042,0.9049,0.9083,0.9207,0.9207,0.9173,0.9049,0.9049,0.9008,0.8885,0.8885,0.8885,0.8885,0.8885,0.8885,0.8885,0.8885,0.8981,0.9055,0.918,0.935,0.9503,0.9585,0.9652,0.9727,-0.4038,-0.4405,-0.4709,-0.4529,-0.5525,-0.6375,-0.6347,-0.6491,-0.6552,-0.6402,-0.402,-0.1951,-0.0909,0.0639,0.1946,0.2758,0.3295,0.3389,0.2911,0.3693,0.3723,0.2727,0.2734,0.2785,0.2844,0.3926,0.4546,0.4655,0.5707,0.6272,0.63,0.63,0.6231,0.6084,0.6261,0.6261,0.6112,0.6112,0.6478,0.7082,0.7319,0.7841,0.856,0.9286,0.9639,0.9734,0.9734,0.9754,0.9707,0.951,0.9868,1.0248,0.8931,1.0537,1.2428,0.9985,1.0728,1.2022,1.0456,1.0035,1.0067,1.0257,1.0181,1.0164,0.0,0.0,0.0,0.9241,0.9044,0.8684,0.768,0.7685,0.7818,0.7678,0.8119,0.8357,0.8092,0.8981,0.9613,0.9647,0.9673,0.9652,0.9652,0.9625,0.9585,0.9523,0.9327,0.9178,0.9173,0.9001,0.8898,0.8981,0.8981,0.9035,0.9207,0.9207,0.9193,0.9166,0.9166,0.9049,0.8885,0.8885,0.8885,0.8885,0.8885,0.8885,0.8885,0.8885,0.8898,0.8994,0.9166,0.9303,0.9401,0.9551,0.9625,0.9666,-0.4038,-0.4896,-0.5398,-0.4637,-0.5679,-0.6607,-0.6511,-0.6695,-0.6824,-0.6668,-0.5758,-0.4597,-0.3128,-0.3369,-0.2174,0.1466,0.042,0.0504,0.2749,0.2912,0.2834,0.2707,0.2831,0.2815,0.2735,0.3885,0.4507,0.4533,0.552,0.6125,0.63,0.63,0.6293,0.6286,0.6525,0.6566,0.6463,0.6463,0.6851,0.7522,0.7563,0.7936,0.8547,0.9171,0.9415,0.9429,0.9429,0.9517,0.9714,1.0091,1.0417,1.0617,1.0528,1.1487,1.2485,1.1612,1.2279,1.3186,1.286,1.2752,1.2726,1.2492,1.2609,1.2635,1.2168,0.0,1.095,1.0614,0.0,0.8942,0.7939,0.0,0.0,0.6638,0.7105,0.7461,0.7247,0.78,0.8316,0.8459,0.8804,0.8986,0.8986,0.8913,0.894,0.9241,0.8818,0.8696,0.8947,0.8892,0.8994,0.918,0.9187,0.9193,0.9207,0.9207,0.9089,0.8905,0.8905,0.8898,0.8885,0.8885,0.8885,0.8885,0.8885,0.8885,0.8885,0.8885,0.9015,0.9187,0.92,0.9303,0.9401,0.9551,0.9686,0.9802,-0.4023,-0.4111,-0.4304,-0.4557,-0.4672,-0.4951,-0.558,-0.5941,-0.6136,-0.6078,-0.5847,-0.519,-0.3728,-0.3278,-0.2054,0.0451,0.064,0.0778,0.1176,0.183,0.1872,0.1153,0.1782,0.2126,0.2063,0.3743,0.4623,0.4614,0.5657,0.6238,0.63,0.63,0.6252,0.6146,0.6532,0.6614,0.6518,0.6566,0.6987,0.7597,0.7597,0.7957,0.8547,0.915,0.9381,0.9381,0.9381,0.9422,0.9466,0.9529,1.0415,1.1344,1.0092,1.1688,1.3614,1.1722,1.2447,1.3671,1.3121,1.344,1.3814,1.3173,1.3373,1.352,1.277,0.0,1.1652,1.0956,0.0,0.0,0.0,0.0,0.0,0.0,0.7168,0.7027,0.679,0.7272,0.7773,0.8099,0.8251,0.0,0.8655,0.8696,0.8764,0.8886,0.8642,0.8574,0.8798,0.8838,0.8967,0.9028,0.9028,0.9069,0.9207,0.9207,0.918,0.9062,0.9062,0.9022,0.8885,0.8885,0.8885,0.8885,0.8885,0.8885,0.8885,0.8885,0.8974,0.9035,0.918,0.93,0.9523,0.9585,0.97,0.9822,-0.3313,-0.3146,-0.3294,-0.4059,-0.3689,-0.3631,-0.4547,-0.4886,-0.5048,-0.5059,-0.5179,-0.4741,-0.3418,-0.29,-0.1977,-0.0162,0.0384,0.0437,0.0053,0.0799,0.0936,0.0044,0.1085,0.1687,0.1611,0.3726,0.4781,0.4686,0.5789,0.632,0.6354,0.632,0.6259,0.6166,0.658,0.6722,0.6668,0.6865,0.7292,0.7834,0.7801,0.8159,0.873,0.9092,0.9198,0.9191,0.915,0.9191,0.9262,0.9194,1.0314,0.0,1.0012,1.181,1.3967,1.165,1.2557,1.4109,1.3095,1.3681,1.4416,1.3454,0.0,0.0,0.0,0.0,0.0,0.0,1.1413,0.0,0.0,0.0,0.8308,0.8071,0.0,0.6715,0.6491,0.7084,0.7508,0.757,0.7671,0.7896,0.0,0.8208,0.8309,0.8513,0.8309,0.8316,0.8628,0.8791,0.8817,0.8817,0.8865,0.8988,0.9096,0.9096,0.9096,0.9096,0.9096,0.9042,0.8885,0.8885,0.8885,0.8885,0.8885,0.8885,0.8885,0.8885,0.8905,0.9008,0.9166,0.934,0.9612,0.9612,0.97,0.9822,-0.1573,-0.2196,-0.2928,-0.2966,-0.3143,-0.3363,-0.3603,-0.3642,-0.3655,-0.3663,-0.3795,-0.3346,-0.2,-0.3421,-0.3211,-0.0256,-0.1462,-0.1662,-0.0126,0.0057,0.0051,0.0,0.1296,0.1855,0.16,0.3882,0.4981,0.4686,0.5789,0.6368,0.6504,0.6361,0.6368,0.6511,0.6783,0.695,0.7092,0.7441,0.7909,0.8438,0.8354,0.8672,0.9241,0.8871,0.873,0.871,0.8567,0.0,0.0,0.9716,1.0108,0.0,0.0,0.0,0.0,0.0,0.0,0.0,0.0,0.0,0.0,1.3507,0.0,0.0,0.0,0.0,1.277,0.0,0.0,0.0,1.1798,1.0654,0.9496,0.8361,0.723,0.0,0.0,0.7165,0.7477,0.6666,0.6905,0.7231,0.0,0.7149,0.724,0.0,0.7651,0.0,0.8452,0.8635,0.8716,0.8716,0.8804,0.8885,0.8892,0.8892,0.8892,0.8892,0.8892,0.8885,0.8885,0.8885,0.8885,0.8885,0.8885,0.8885,0.8885,0.8885,0.9022,0.92,0.9207,0.934,0.9612,0.9612,0.97,0.9822,-0.1378,-0.1127,-0.1217,-0.1913,-0.1516,-0.1137,-0.1219,-0.1982,-0.255,-0.2535,-0.3368,-0.3416,-0.2055,-0.2462,-0.2091,-0.0142,-0.0491,-0.0614,-0.0065,0.0,0.0,0.0,0.1874,0.2864,0.2728,0.4961,0.6106,0.6012,0.6284,0.6518,0.662,0.6416,0.6375,0.6518,0.6688,0.6973,0.7299,0.7407,0.7794,0.8361,0.7963,0.8603,0.9728,0.0,0.8957,0.8944,0.8598,0.8547,0.0,0.9044,0.954,1.0057,0.982,1.0647,1.1481,1.0612,1.1425,0.0,0.0,0.0,1.3513,1.2933,0.0,0.0,0.0,0.0,0.0,0.0,0.0,0.0,0.0,1.1822,1.0679,0.938,0.8878,0.8304,0.0,0.8161,0.8455,0.7484,0.771,0.7955,0.7944,0.0,0.0,0.0,0.7611,0.0,0.0,0.8574,0.871,0.871,0.8804,0.8885,0.8885,0.8885,0.8885,0.8885,0.8885,0.8885,0.8885,0.8885,0.8885,0.8885,0.8885,0.8885,0.8892,0.9042,0.9166,0.9221,0.9323,0.9429,0.9612,0.9612,0.97,0.9822,-0.0899,-0.0398,-0.0218,-0.09,-0.0451,-0.0158,-0.0584,-0.1028,-0.1429,-0.1863,-0.2293,-0.225,-0.1394,-0.1281,-0.0944,-0.0075,0.0,0.0,0.0,0.0,0.0,0.0,0.188,0.284,0.2687,0.5027,0.616,0.5981,0.6385,0.6607,0.6695,0.6491,0.6457,0.6559,0.6654,0.698,0.7461,0.7563,0.7957,0.8497,0.806,0.845,0.9314,0.0,0.8956,0.9234,0.0,0.8357,0.8425,0.852,0.8974,0.9375,0.896,0.9504,1.0213,0.9636,1.0329,1.1162,1.0975,1.1826,0.0,1.2189,1.2253,0.0,1.2474,0.0,1.2747,0.0,0.0,0.0,0.0,0.0,1.1433,1.0382,0.9899,0.9311,0.0,0.8884,0.9074,0.8428,0.8259,0.8033,0.772,0.7096,0.0,0.0,0.0,0.0,0.0,0.0,0.8574,0.8628,0.8777,0.8831,0.8885,0.8885,0.8885,0.8885,0.8885,0.8885,0.8885,0.8885,0.8885,0.8885,0.8885,0.8967,0.9022,0.9173,0.9275,0.9327,0.9422,0.9551,0.968,0.9632,0.97,0.9822,-0.0152,-0.0037,-0.0111,-0.0152,-0.0118,-0.045,-0.1631,-0.0814,-0.0451,-0.1596,-0.0725,0.0,0.0,0.0,0.0,0.0,0.0,0.0,0.0,0.0,0.0,0.0,0.1389,0.1988,0.1751,0.4246,0.5338,0.4853,0.6104,0.6702,0.6695,0.6525,0.6525,0.6668,0.6675,0.7,0.7563,0.78,0.8258,0.8804,0.8481,0.83,0.8233,0.8056,0.8726,0.9633,0.8428,0.8133,0.8313,0.832,0.8364,0.8499,0.8662,0.8804,0.8865,0.8878,0.9919,1.087,1.0326,1.1157,1.2038,1.1269,0.0,0.0,0.0,0.0,1.2552,0.0,0.0,0.0,0.0,0.0,0.0,1.112,1.0112,0.9369,0.9322,0.9301,0.9301,0.9226,0.838,0.7524,0.6812,0.6295,0.6249,0.6842,0.0,0.7054,0.7419,0.0,0.8323,0.8479,0.8628,0.8784,0.8885,0.8885,0.8885,0.8885,0.8892,0.8892,0.8885,0.8892,0.8892,0.8885,0.8885,0.9022,0.9207,0.9221,0.934,0.9612,0.9618,0.97,0.9802,0.9673,0.9707,0.9822,-0.0039,-0.0807,-0.1739,-0.2537,-0.1846,-0.1331,-0.1748,-0.1459,-0.1035,-0.0506,-0.0202,0.0,0.0,0.0,0.0,0.0,0.0,0.0,0.0,0.0,0.0,0.0,0.2585,0.3932,0.373,0.6342,0.7534,0.7174,0.6862,0.6702,0.6695,0.6315,0.6166,0.6168,0.6322,0.6559,0.6776,0.6966,0.7258,0.7563,0.737,0.7912,0.8791,0.0,0.839,0.9421,0.8393,0.8015,0.8113,0.8235,0.8347,0.837,0.8628,0.8662,0.8642,0.8817,0.9154,0.9493,0.9466,0.975,1.0093,1.0487,1.0332,1.0323,0.0,0.0,0.0,0.0,0.0,0.0,0.0,0.0,0.0,0.919,0.8563,0.8482,0.9188,0.9301,0.9036,0.8275,0.784,0.7547,0.7516,0.6725,0.6403,0.6849,0.6824,0.7034,0.7665,0.0,0.0,0.8472,0.8628,0.8784,0.8885,0.8885,0.8885,0.8885,0.9049,0.9042,0.8885,0.9049,0.9042,0.8885,0.8885,0.9022,0.9221,0.933,0.9435,0.9618,0.9727,0.9788,0.9815,0.9781,0.9788,0.9822,-0.0768,-0.1861,-0.3157,-0.4372,-0.4186,-0.3945,-0.4113,-0.3175,-0.2426,-0.2357,-0.1463,-0.0599,-0.0084,0.0,0.0,0.0,0.0,0.0,0.0,0.0,0.0,0.0,0.1707,0.261,0.2532,0.5223,0.6374,0.5863,0.6615,0.6831,0.6505,0.6179,0.6064,0.6132,0.6152,0.6315,0.66,0.7014,0.7129,0.7011,0.7177,0.7683,0.0,0.764,0.8013,0.8747,0.8202,0.7988,0.8002,0.814,0.8214,0.8347,0.8465,0.8499,0.8526,0.8771,0.8838,0.8872,0.9022,0.9062,0.9182,0.9657,0.9579,0.9623,1.0521,1.0731,1.0824,0.0,0.0,0.0,0.0,0.0,0.0,0.8878,0.8539,0.8504,0.8618,0.8656,0.8275,0.7249,0.7049,0.7026,0.7126,0.6453,0.6152,0.6607,0.6559,0.0,0.0,0.0,0.0,0.818,0.8404,0.8655,0.8878,0.8817,0.8817,0.8885,0.9083,0.9076,0.8892,0.9089,0.9166,0.9028,0.9028,0.915,0.9361,0.9449,0.9564,0.9707,0.9788,0.9822,0.9822,0.9822,0.9822,0.9822,-0.1988,-0.3157,-0.4488,-0.5786,-0.6692,-0.7331,-0.7554,-0.5665,-0.4554,-0.5492,-0.355,-0.1642,-0.0556,-0.0168,0.0,0.0,0.0,0.0,0.0,0.0,0.0,0.0,0.0223,0.0368,0.0358,0.2929,0.4006,0.3451,0.5893,0.6807,0.6265,0.6091,0.6084,0.6204,0.6071,0.6254,0.6681,0.7131,0.7041,0.6632,0.6923,0.6972,0.6871,0.6922,0.7168,0.7484,0.7484,0.7683,0.7988,0.7988,0.8126,0.8241,0.8313,0.8343,0.8465,0.8655,0.8696,0.8716,0.8838,0.8885,0.8885,0.8885,0.8885,0.9085,0.9867,1.0007,1.0223,1.1007,1.1182,1.1002,0.0,0.0,0.0,0.9048,0.8961,0.8673,0.7844,0.7696,0.7368,0.6478,0.634,0.0,0.6272,0.5874,0.5827,0.6293,0.0,0.0,0.0,0.0,0.0,0.7889,0.816,0.8492,0.8851,0.0,0.8804,0.8885,0.9103,0.9117,0.8946,0.9144,0.9262,0.9241,0.9241,0.9347,0.9612,0.9612,0.9693,0.9822,0.9822,0.9822,0.9822,0.9822,0.9822,0.9822,-0.2914,-0.4535,-0.591,-0.6942,-0.8138,-0.9229,-1.009,-0.8762,-0.7439,-0.6844,-0.4724,-0.3213,-0.2961,-0.1231,0.0,0.0,0.0,0.0,0.0,0.0,0.0,0.0,0.1523,0.2371,0.2216,0.3914,0.4934,0.5303,0.5317,0.5577,0.6071,0.6006,0.5915,0.5718,0.5935,0.6146,0.6296,0.5151,0.4829,0.5041,0.4377,0.4108,0.412,0.4469,0.4628,0.4718,0.4718,0.6121,0.7988,0.7988,0.8008,0.8099,0.8228,0.8201,0.8143,0.8594,0.8621,0.8581,0.8811,0.8885,0.8885,0.8885,0.8885,0.8927,0.9085,0.9126,0.9166,0.9327,0.9367,0.9229,0.8831,0.0,0.0,0.0,0.0,0.0,0.7204,0.7239,0.7062,0.6695,0.6512,0.6342,0.6091,0.5959,0.6084,0.645,0.6207,0.0,0.0,0.0,0.0,0.0,0.8418,0.0,0.0,0.0,0.8858,0.8885,0.9211,0.9327,0.9306,0.9462,0.9462,0.934,0.934,0.9442,0.9612,0.9612,0.9693,0.9822,0.9822,0.9822,0.9822,0.9822,0.9822,0.9822,-0.4382,-0.5889,-0.7186,-0.8327,-0.9388,-1.048,-1.1615,-1.1574,-1.082,-0.9143,-0.7453,-0.6078,-0.5502,-0.3263,-0.1833,-0.191,-0.0685,0.0,0.0,0.0,0.0,0.0,0.092,0.1338,0.1288,0.2862,0.3908,0.4404,0.4786,0.5336,0.5986,0.5874,0.5766,0.5676,0.5259,0.5067,0.5046,0.4095,0.0,0.4006,0.3776,0.372,0.373,0.3934,0.3997,0.4021,0.4011,0.4837,0.5946,0.5942,0.5922,0.5932,0.6037,0.6475,0.7033,0.7339,0.7947,0.8533,0.8757,0.8824,0.8885,0.8885,0.8885,0.8885,0.8885,0.8885,0.8885,0.8885,0.8885,0.8804,0.835,0.7665,0.0,0.0,0.0,0.0,0.0,0.7312,0.7204,0.7068,0.675,0.6444,0.6383,0.6128,0.6057,0.6118,0.6064,0.0,0.0,0.0,0.0,0.0,0.0,0.0,0.0,0.0,0.0,0.9171,0.9395,0.9456,0.9388,0.9537,0.9571,0.9496,0.9496,0.9585,0.972,0.972,0.9761,0.9822,0.9822,0.9822,0.9822,0.9822,0.9268,0.8647,-0.5359,-0.629,-0.7451,-0.9486,-1.011,-1.0894,-1.2464,-1.3519,-1.3475,-1.1696,-1.0222,-0.8932,-0.797,-0.5314,-0.3563,-0.3641,-0.1362,0.0,0.0,0.0,0.0,0.0,0.0,0.0,0.0,0.1322,0.2229,0.2739,0.4018,0.0,0.0,0.5722,0.5663,0.547,0.4551,0.0,0.0,0.0,0.3022,0.3125,0.3114,0.3169,0.3169,0.3169,0.314,0.3157,0.3153,0.3169,0.3164,0.3168,0.3549,0.3991,0.4008,0.4712,0.5634,0.5808,0.6694,0.7706,0.817,0.8346,0.8491,0.883,0.8885,0.8885,0.8885,0.8885,0.8885,0.8885,0.8885,0.8811,0.8391,0.7951,0.0,0.0,0.0,0.0,0.0,0.7672,0.7611,0.7482,0.7048,0.6756,0.6749,0.6369,0.6064,0.5908,0.6037,0.0,0.6477,0.0,0.0,0.0,0.0,0.8545,0.9016,0.0,0.915,0.9381,0.9537,0.9564,0.9476,0.9598,0.9652,0.9652,0.9652,0.972,0.9822,0.9822,0.9822,0.9761,0.9451,0.9268,0.9268,0.8867,0.7939,0.7118,-0.4764,-0.4727,-0.5652,-0.9838,-0.9871,-1.0102,-1.2369,-1.3614,-1.4245,-1.3968,-1.1916,-1.0502,-1.0414,-0.6338,-0.3592,-0.3558,-0.1362,0.0,0.0,0.0,0.0,0.0,0.0,0.0,0.0,0.0139,0.0644,0.1448,0.2693,0.3741,0.0,0.0,0.0,0.0,0.0,0.0,0.0,0.2028,0.1731,0.2053,0.0848,0.0372,0.0372,0.0372,0.0372,0.0371,0.0372,0.0372,0.0372,0.0371,0.1988,0.3975,0.3988,0.407,0.4198,0.4347,0.4503,0.4959,0.6488,0.6916,0.7204,0.8546,0.8885,0.8885,0.8885,0.8885,0.8885,0.8885,0.8885,0.8838,0.852,0.8309,0.8099,0.0,0.0,0.0,0.0,0.0,0.8384,0.7834,0.7719,0.7482,0.6916,0.662,0.6409,0.6265,0.6388,0.0,0.0,0.0,0.0,0.7794,0.0,0.8347,0.8408,0.9008,0.9354,0.9381,0.9537,0.9673,0.9781,0.9795,0.9802,0.9802,0.9802,0.9808,0.9822,0.9822,0.9822,0.9633,0.8221,0.7606,0.7434,0.592,0.528,0.5356,-0.7395,-0.7859,-0.8945,-1.1477,-1.1518,-1.1238,0.0,-1.3059,-1.3761,-1.2325,-1.2591,-1.2832,-1.2747,-0.8499,-0.564,-0.5576,-0.219,0.0,0.0,0.0,0.0,0.0,0.0,0.0,0.0,0.0,0.046,0.0,0.0,0.0,0.0,0.0,0.0,0.0,0.0,0.2268,0.2036,0.0955,0.0627,0.0758,0.0217,0.0,0.0,0.0,0.0,0.0,0.0,0.0,0.0,0.0,0.0701,0.1581,0.1592,0.2169,0.2792,0.2886,0.3512,0.4361,0.4998,0.5265,0.5528,0.6089,0.6255,0.6255,0.6255,0.6927,0.7616,0.7685,0.8508,0.9164,0.9042,0.8757,0.8581,0.0,0.0,0.0,0.0,0.0,0.835,0.7753,0.7366,0.7054,0.6817,0.6437,0.6295,0.6512,0.6457,0.0,0.0,0.0,0.0,0.7536,0.0,0.8533,0.8533,0.9191,0.9557,0.9646,0.9707,0.9768,0.9822,0.9822,0.9822,0.9822,0.9822,0.9822,0.97,0.8775,0.8343,0.8166,0.6566,0.5908,0.5792,0.5126,0.4313,0.3665,-0.8412,-0.8072,-0.838,-1.0627,-1.0387,-0.9789,-0.9624,-1.1072,-1.1599,-0.9871,-1.1113,-1.2413,-1.3023,-0.949,-0.6805,-0.5966,-0.2336,0.0,0.0,0.0,0.0,0.0,0.0,0.0,0.0,0.0,0.0402,0.115,0.2071,0.0,0.0,0.0,0.0,0.0,0.1643,0.1146,0.0878,0.0268,0.0,0.0,0.0,0.0,0.0,0.0,0.0,0.0,0.0,0.0,0.0,0.0,0.0,0.0,0.0,0.0647,0.1396,0.1402,0.2123,0.3184,0.406,0.4374,0.47,0.5674,0.5906,0.5911,0.5942,0.674,0.75,0.7641,0.8602,0.9395,0.9442,0.915,0.8994,0.9273,0.0,0.0,0.0,0.8723,0.8411,0.7862,0.738,0.7061,0.6973,0.6593,0.6485,0.6932,0.0,0.0,0.0,0.0,0.0,0.0,0.0,0.0,0.0,0.9347,0.972,0.9822,0.9822,0.9822,0.9822,0.9822,0.9822,0.9822,0.9822,0.9822,0.97,0.8033,0.7378,0.7168,0.5064,0.4219,0.4115,0.3665,0.271,0.1996,-0.6462,-0.3235,-0.1597,-0.6197,-0.5174,-0.4453,-0.6826,-0.7146,-0.7208,-0.7132,-0.7213,-0.8089,-1.0462,-0.8532,-0.6203,-0.3839,-0.1409,0.0,0.0,0.0,0.0,0.0,0.0,0.0,0.0,0.0,0.0,0.0,0.0,0.0,0.1672,0.0,0.2467,0.159,0.1408,0.0808,0.0,0.0,0.0,0.0,0.0,0.0,0.0,0.0,0.0,0.0,0.0,0.0,0.0,0.0,0.0,0.0,0.0,0.0,0.0,0.0,0.0056,0.0728,0.3689,0.4526,0.527,0.837,0.915,0.9191,0.9283,0.9374,0.9374,0.9374,0.9381,0.9429,0.9578,0.9483,0.9327,0.9234,0.0,0.0,0.0,0.8838,0.0,0.8316,0.8119,0.786,0.7617,0.726,0.7213,0.7563,0.0,0.0,0.0,0.0,0.0,0.7787,0.8248,0.0,0.871,0.9449,0.9822,0.9822,0.9822,0.9822,0.9822,0.9822,0.9822,0.9822,0.9822,0.9822,0.97,0.8033,0.7424,0.7089,0.3773,0.254,0.2319,0.0654,0.0065,0.0259,-0.6918,-0.5854,-0.5277,-0.68,-0.642,-0.5698,-0.4818,-0.6079,-0.65,-0.4936,-0.6069,-0.6822,-0.5948,-0.5148,-0.4351,0.0,-0.1321,0.0,0.0,0.0,0.0,0.0,0.0,0.0,0.0,0.0,0.0,0.0,0.0,0.0,0.0,0.1871,0.1456,0.0505,0.0447,0.0284,0.0,0.0,0.0,0.0,0.0,0.0,0.0,0.0,0.0,0.0,0.0,0.0,0.0,0.0,0.0,0.0,0.0,0.0808,0.1722,0.171,0.2465,0.3525,0.4505,0.4793,0.503,0.604,0.6281,0.629,0.6322,0.721,0.8343,0.936,0.9612,0.9693,0.9747,0.9713,0.9666,0.9618,0.9442,0.0,0.8906,0.0,0.8069,0.7563,0.7278,0.7129,0.7143,0.7098,0.0,0.0,0.0,0.0,0.0,0.0,0.0,0.0,0.8492,0.0,0.8811,0.9503,0.9822,0.9822,0.9822,0.9876,0.9909,0.9869,0.9876,0.9916,0.9916,0.9286,0.8043,0.6491,0.5139,0.383,0.168,0.0781,0.072,0.0199,0.0,0.0066,-0.5811,-0.5097,-0.4472,-0.4472,-0.4472,-0.3938,-0.2507,-0.349,-0.3923,-0.2472,-0.3512,-0.3914,-0.2395,-0.2212,0.0,-0.2102,-0.0824,0.0,0.0,0.0,0.0,0.0,0.0,0.0,0.0,0.0,0.0,0.0,0.0703,0.0976,0.0992,0.0992,0.0649,0.0,0.0,0.0,0.0,0.0,0.0,0.0,0.0,0.0,0.0,0.0,0.0,0.0,0.0,0.0,0.0,0.0,0.0,0.0,0.0,0.1549,0.3272,0.2678,0.3202,0.4223,0.5393,0.5743,0.5869,0.6495,0.6681,0.669,0.6729,0.7573,0.8534,0.9506,0.9761,0.9822,0.9822,0.9822,0.9822,0.9822,0.9571,0.9279,0.8925,0.0,0.7833,0.0,0.0,0.0,0.0,0.7483,0.7706,0.0,0.0,0.0,0.0,0.0,0.0,0.8018,0.8811,0.0,0.9191,0.9612,0.9822,0.9822,0.9876,0.9985,1.0134,1.0039,1.0046,1.0134,1.0134,0.95,0.8363,0.6778,0.5476,0.4277,0.19,0.0991,0.093,0.0268,0.0,0.0,-0.3312,-0.1524,0.0,0.0,0.0,0.0,0.0,0.0,0.0,0.0,0.0,0.0,0.0,0.0,0.0,0.0,0.0,0.0,0.0,0.0,0.0,0.0,0.0,0.0,0.0,0.0,0.0,0.0,0.0,0.0,0.0,0.0,0.0,0.0,0.0,0.0,0.0,0.0,0.0,0.0,0.0,0.0,0.0,0.0,0.0,0.0,0.0,0.0,0.0,0.0,0.0,0.0,0.0,0.2071,0.434,0.3026,0.2825,0.3651,0.6535,0.7301,0.7685,0.9255,0.9652,0.9693,0.9822,0.9856,0.9856,0.9856,0.9856,0.9849,0.9836,0.9836,0.9829,0.9808,0.9544,0.9232,0.8878,0.0,0.7914,0.0,0.0,0.0,0.0,0.8336,0.856,0.0,0.0,0.0,0.0,0.0,0.8271,0.873,0.9171,0.9469,0.9625,0.9768,0.9842,0.9856,0.9936,1.0148,1.0297,1.0283,1.0283,1.0297,1.0297,1.0233,1.0035,0.8433,0.7721,0.7294,0.4142,0.2787,0.2484,0.0807,0.0135,0.0,0.0,0.0,0.0,0.0,0.0,0.0,0.0,0.0,0.0,0.0,0.0,0.0,0.0,0.0,0.0,0.0,0.0,0.0,0.0,0.0,0.0,0.0,0.0,0.0,0.0,0.0,0.0,0.0,0.0,0.0,0.0,0.0,0.0,0.0,0.0,0.0,0.0,0.0,0.0,0.0,0.0,0.0,0.0,0.0,0.0,0.0,0.0,0.0,0.0,0.0,0.0,0.0,0.0,0.0559,0.1596,0.3725,0.6137,0.8274,0.9117,0.9332,0.9432,1.0017,1.012,1.0127,1.0161,1.0168,1.0168,1.0168,1.0168,1.0134,0.9957,0.993,0.9862,0.9693,0.9211,0.8764,0.8472,0.8011,0.0,0.0,0.7882,0.8049,0.8513,0.8615,0.8669,0.0,0.0,0.0,0.0,0.8933,0.9055,0.9105,0.9374,0.9625,0.9768,0.9856,1.0053,1.0175,1.0209,1.0304,1.0439,1.0331,1.0337,1.0439,1.0439,0.9657,0.8361,0.8049,0.7176,0.5871,0.5069,0.3947,0.2618,0.2216,0.121,0.0,0.0,0.0,0.0,0.0,0.0,0.0,0.0,0.0,0.0,0.0,0.0,0.0,0.0,0.0,0.0,0.0,0.0,0.0,0.0,0.0,0.0,0.0,0.0,0.0,0.0,0.0,0.0,0.0,0.0,0.0,0.0,0.0,0.0,0.0,0.0,0.0,0.0,0.0,0.0,0.0,0.0,0.0,0.0,0.0,0.0,0.0,0.0,0.0,0.0,0.0,0.0,0.0,0.0,0.1077,0.2696,0.4472,0.6258,0.801,0.9585,1.01,1.0175,1.0256,1.0283,1.0283,1.0283,1.0283,1.0283,1.0283,1.0283,1.0256,1.0168,1.0038,0.9909,0.9741,0.9144,0.8655,0.8492,0.797,0.0,0.8079,0.8187,0.8418,0.8872,0.9042,0.9096,0.9022,0.9218,0.0,0.913,0.9483,0.9585,0.9367,0.9652,0.9883,1.0032,1.0114,1.0229,1.0378,1.0378,1.0453,1.0595,1.0514,1.0521,1.0595,1.0595,0.9998,0.9144,0.9209,0.8706,0.7636,0.603,0.4827,0.3756,0.2083,0.0874,0.0,0.0,0.0,0.0,0.0,0.0,0.0,0.0,0.0,0.0,0.0,0.0,0.0,0.0,0.0,0.0,0.0,0.0,0.0,0.0,0.0,0.0,0.0,0.0,0.0,0.0,0.0,0.0,0.0,0.0,0.0,0.0,0.0,0.0,0.0,0.0,0.0,0.0,0.0,0.0,0.0,0.0,0.0,0.0,0.0,0.0,0.0,0.0,0.0,0.0,0.0,0.0194,0.0387,0.0388,0.2578,0.5201,0.5404,0.5552,0.6189,0.9224,1.0229,1.0344,1.0344,1.0344,1.0344,1.0344,1.0344,1.0344,1.0344,1.0344,1.0337,1.0317,1.0188,0.995,0.9788,0.913,0.8635,0.8615,0.0,0.7882,0.8479,0.8628,0.8852,0.9337,0.9537,0.9632,0.9523,0.9727,0.9815,0.9713,0.9951,0.9978,0.9747,0.9964,1.0154,1.031,1.031,1.0385,1.0527,1.0527,1.0595,1.0717,1.0717,1.0717,1.0717,1.0717,1.0717,1.0717,1.0717,1.0518,0.9981,0.6965,0.5496,0.4626,0.1545,0.0202,0.0,0.0,0.0,0.0,0.0,0.0,0.0,0.0,0.0,0.0,0.0,0.0,0.0,0.0,0.0,0.0,0.0,0.0,0.0,0.0,0.0,0.0,0.0,0.0,0.0,0.0,0.0,0.0,0.0,0.0,0.0,0.0,0.0,0.0,0.0,0.0,0.0,0.0,0.0,0.0,0.0,0.0,0.0,0.0,0.0,0.0,0.0,0.0,0.0,0.0,0.0,0.1031,0.2257,0.2284,0.3699,0.56,0.6969,0.7437,0.7941,0.9896,1.0534,1.0649,1.0649,1.0649,1.0649,1.0649,1.0649,1.0649,1.0649,1.0649,1.0616,1.048,1.0344,1.0073,0.9537,0.8825,0.8296,0.811,0.0,0.8143,0.8743,0.9306,0.9741,1.0073,1.0032,1.0025,1.0134,1.0059,0.9997,1.0168,1.0222,1.0276,1.0351,1.0283,1.031,1.046,1.046,1.0534,1.0683,1.0683,1.0697,1.0717,1.0717,1.0717,1.0717,1.0717,1.0717,1.0717,1.0717,0.9775,0.8363,0.7831,0.5759,0.3021,0.2484,0.1344,0.0,0.0,0.0,0.0,0.0,0.0,0.0,0.0,0.0,0.0,0.0,0.0,0.0,0.0,0.0,0.0,0.0,0.0,0.0,0.0,0.0,0.0,0.0,0.0,0.0,0.0,0.0,0.0,0.0,0.0,0.0,0.0,0.0,0.0,0.0,0.0,0.0,0.0,0.0,0.0,0.0,0.0,0.0,0.0132,0.1055,0.1451,0.1583,0.257,0.2897,0.2897,0.2897,0.3487,0.4147,0.4176,0.535,0.6972,0.7675,0.8574,0.9518,1.0392,1.0663,1.0717,1.0717,1.0717,1.0717,1.0717,1.0717,1.0717,1.0717,1.0717,1.0697,1.0629,1.0432,1.0134,0.9693,0.8994,0.0,0.0,0.8499,0.8655,0.9276,0.9667,1.0032,1.0256,1.0215,1.0202,1.0276,1.0215,1.0236,1.0385,1.0392,1.046,1.0609,1.0555,1.0548,1.0616,1.0616,1.0649,1.0717,1.0717,1.0717,1.0717,1.0717,1.0717,1.0717,1.0717,1.0717,1.0717,1.0717,0.9643,0.7897,0.6965,0.5025,0.2551,0.1613,0.074,0.0,0.0,0.0,0.0,0.0,0.0,0.0,0.0,0.0,0.0,0.0,0.0,0.0,0.0,0.0,0.0,0.0,0.0,0.0,0.0,0.0,0.0,0.0,0.0,0.0,0.0,0.0,0.0,0.0,0.0,0.0,0.0,0.0,0.0,0.0,0.0,0.0202,0.0605,0.0605,0.0874,0.1277,0.1277,0.1277,0.1411,0.2819,0.3354,0.349,0.4913,0.5443,0.5432,0.545,0.5711,0.6034,0.6053,0.7268,0.8684,0.8711,0.9661,1.0677,1.0792,1.0799,1.0772,1.0772,1.0744,1.0717,1.0717,1.0717,1.0717,1.0717,1.0717,1.0717,1.0717,1.0507,1.0229,0.9924,0.0,0.0,0.0,0.9062,0.9171,0.9849,1.0059,1.0215,1.0371,1.0385,1.0385,1.0385,1.0385,1.0432,1.0541,1.0548,1.0602,1.0717,1.0717,1.0717,1.0717,1.0717,1.0717,1.0717,1.0717,1.0717,1.0717,1.0717,1.0717,1.0717,1.0717,1.0452,1.0047,1.0047,0.8767,0.6627,0.5295,0.3689,0.1881,0.0538,0.0,0.0,0.0,0.0,0.0,0.0,0.0,0.0,0.0,0.0,0.0,0.0,0.0,0.0,0.0,0.0,0.0,0.0,0.0,0.0,0.0,0.0,0.0,0.0,0.0,0.0,0.0,0.0,0.0,0.0,0.0,0.0,0.0,0.0,0.0,0.0,0.0,0.0941,0.2484,0.2484,0.3488,0.5028,0.5028,0.5028,0.5028,0.5162,0.5228,0.5238,0.5505,0.5488,0.5439,0.5576,0.6564,0.7851,0.8023,0.9284,1.0751,1.0885,1.1049,1.1186,1.1124,1.1029,1.086,1.086,1.0759,1.0717,1.0717,1.0717,1.0717,1.0717,1.0717,1.0717,1.0717,1.0588,1.0378,1.0149,0.0,0.0,0.9571,0.9557,0.972,1.0188,1.0371,1.0521,1.067,1.069,1.069,1.069,1.069,1.069,1.0704,1.0704,1.0711,1.0717,1.0717,1.0717,1.0717,1.0717,1.0717,1.0717,1.0717,1.0717,1.0717,1.0717,1.0717,1.0717,1.0717,0.9775,0.823,0.823,0.616,0.3086,0.2954,0.1814,0.0202,0.0067,0.0,0.0,0.0,0.0,0.0,0.0,0.0,0.0,0.0,0.0,0.0,0.0,0.0,0.0,0.0,0.0,0.0,0.0,0.0,0.0,0.0,0.0,0.0,0.0,0.0,0.0,0.0,0.0,0.0,0.0,0.0,0.0,0.0,0.0,0.0626,0.1806,0.1713,0.2801,0.4604,0.4564,0.491,0.5632,0.5583,0.5498,0.5626,0.6652,0.7071,0.7332,0.846,0.8905,0.9006,0.9051,0.9445,0.9968,1.0091,1.0522,1.1111,1.126,1.1307,1.1321,1.1423,1.1267,1.1084,1.1084,1.0968,1.0887,1.0975,1.0928,1.0887,1.0975,1.0921,1.0793,1.0793,1.0656,1.0426,1.0229,0.0,0.9822,0.9822,0.9964,1.012,1.0378,1.0541,1.0656,1.0717,1.0717,1.0717,1.0717,1.0717,1.0717,1.0717,1.0717,1.0717,1.0717,1.0717,1.0717,1.0717,1.0717,1.0717,1.0717,1.0717,1.0717,1.0717,1.0717,1.0717,1.0651,0.951,0.8634,0.7897,0.6831,0.4961,0.2685,0.2685,0.1613,0.0,0.0,0.0,0.0,0.0,0.0,0.0,0.0,0.0,0.0,0.0,0.0,0.0,0.0,0.0,0.0,0.0,0.0,0.0,0.0,0.0,0.0,0.0,0.0,0.0,0.0,0.0,0.0,0.0,0.0,0.0,0.0,0.0,0.0287,0.0922,0.0918,0.1972,0.3797,0.3744,0.4776,0.6627,0.6562,0.6915,0.7456,0.7388,0.7337,0.7374,0.852,0.9019,0.9302,1.0519,1.1077,1.1241,1.1219,1.1206,1.1241,1.1219,1.1267,1.1335,1.1484,1.1497,1.1484,1.1592,1.1463,1.1294,1.1246,1.1124,1.1043,1.1138,1.1084,1.1043,1.1145,1.1084,1.1016,1.1016,1.0846,1.067,1.0575,1.0466,1.0321,1.0274,1.0426,1.0507,1.0561,1.0656,1.0717,1.0717,1.0717,1.0717,1.0717,1.0717,1.0717,1.0717,1.0717,1.0717,1.0717,1.0717,1.0717,1.0717,1.0717,1.0717,1.0717,1.0717,1.0717,1.0717,1.0717,1.0717,1.0585,0.8767,0.7698,0.7031,0.5295,0.3488,0.1881,0.1881,0.1079,0.0,0.0,0.0,0.0,0.0,0.0,0.0,0.0,0.0,0.0,0.0,0.0,0.0,0.0,0.0,0.0,0.0,0.0,0.0,0.0,0.0,0.0,0.0083,0.0081,0.0079,0.0077,0.0,0.0,0.0,0.0,0.0,0.0073,0.0073,0.102,0.2907,0.2941,0.399,0.5834,0.5828,0.6839,0.8516,0.8516,0.9561,1.1165,1.1234,1.1077,1.0887,1.088,1.088,1.09,1.1111,1.1234,1.1192,1.1341,1.1294,1.1261,1.1348,1.1497,1.1653,1.1789,1.1735,1.1619,1.1619,1.1619,1.1586,1.143,1.1274,1.1234,1.1165,1.1165,1.1234,1.1165,1.1234,1.1234,1.1234,1.1234,1.1234,1.1234,1.1234,1.1111,1.09,1.088,1.0826,1.0738,1.0717,1.0717,1.0724,1.0724,1.0724,1.0717,1.0717,1.0717,1.0717,1.0717,1.0717,1.0717,1.0717,1.0717,1.0717,1.0717,1.0717,1.0717,1.0717,1.0717,1.0717,1.0717,1.0651,1.0585,0.8767,0.6965,0.5228,0.3423,0.1613,0.0,0.0,0.0,0.0,0.0,0.0,0.0,0.0,0.0,0.0,0.0,0.0,0.0,0.0,0.0,0.0,0.0,0.0,0.0,0.0,0.0,0.0,0.0,0.1429,0.2915,0.4485,0.4575,0.4507,0.4439,0.1547,0.0691,0.2133,0.2096,0.2738,0.4197,0.4087,0.4361,0.4939,0.4918,0.599,0.7854,0.7752,0.8813,1.0689,1.0588,1.0889,1.147,1.1369,1.1301,1.1246,1.1138,1.1165,1.1267,1.1307,1.1396,1.1491,1.1538,1.1518,1.1511,1.1653,1.1803,1.1938,1.1979,1.1884,1.1769,1.1769,1.1694,1.1606,1.1565,1.1436,1.1348,1.1457,1.1402,1.1355,1.1463,1.1396,1.1321,1.1321,1.1233,1.1234,1.1234,1.1234,1.1111,1.09,1.088,1.086,1.082,1.0785,1.0765,1.0799,1.0813,1.0766,1.0731,1.0717,1.0717,1.0717,1.0717,1.0717,1.0717,1.0717,1.0717,1.0717,1.0717,1.0717,1.0717,1.0717,1.0717,1.0651,0.9371,0.8834,0.8634,0.5626,0.3957,0.3354,0.1545,0.0474,0.0,0.0,0.0,0.0,0.0,0.0,0.0,0.0,0.0,0.0,0.0,0.0,0.0,0.0,0.0,0.0,0.0,0.0,0.0,0.0,0.0772,0.1355,0.1346,0.3358,0.5158,0.6526,0.6556,0.6484,0.638,0.3912,0.3106,0.4307,0.4318,0.4871,0.611,0.596,0.629,0.7019,0.6982,0.7982,0.9862,0.9787,1.0441,1.1613,1.1518,1.1538,1.1613,1.1518,1.1443,1.1382,1.1287,1.1307,1.1389,1.1389,1.1491,1.1626,1.1687,1.1742,1.1816,1.1965,1.2033,1.2074,1.2135,1.1999,1.183,1.183,1.1769,1.1687,1.1633,1.1552,1.1504,1.1599,1.1545,1.1504,1.1599,1.1545,1.1484,1.1484,1.1402,1.1341,1.1341,1.1341,1.1294,1.1145,1.1124,1.1104,1.1043,1.0955,1.0934,1.1023,1.1029,1.0995,1.09,1.0839,1.0812,1.0812,1.0751,1.0717,1.0717,1.0717,1.0717,1.0717,1.0717,1.0717,1.0717,1.0717,1.0717,1.0651,0.9631,0.8706,0.7828,0.5027,0.3409,0.2593,0.0752,0.0,0.0,0.0,0.0,0.0,0.0,0.0,0.0,0.0,0.0,0.0,0.0,0.0,0.0,0.0,0.0,0.0,0.0,0.0176,0.026,0.026,0.2296,0.3608,0.3692,0.57,0.7085,0.7252,0.7245,0.7251,0.7084,0.7077,0.7001,0.6846,0.6681,0.6641,0.6867,0.6634,0.7473,0.9166,0.906,0.9951,1.1619,1.1619,1.1619,1.1619,1.1619,1.1619,1.1619,1.1619,1.1538,1.1409,1.1409,1.1409,1.1409,1.1409,1.1504,1.164,1.1782,1.1945,1.2108,1.2244,1.2203,1.2128,1.2271,1.2101,1.187,1.187,1.1864,1.1823,1.1694,1.166,1.1653,1.1626,1.1633,1.164,1.164,1.164,1.164,1.164,1.1626,1.1619,1.1619,1.1619,1.1565,1.1409,1.1389,1.1341,1.1199,1.1241,1.1165,1.1255,1.1241,1.1165,1.1255,1.105,1.09,1.09,1.0833,1.0758,1.0758,1.0758,1.0751,1.0744,1.0751,1.0751,1.0744,1.0744,1.0744,1.0765,1.0496,0.9455,0.7674,0.5899,0.412,0.231,0.0701,0.0,0.0,0.0,0.0,0.0,0.0,0.0,0.0,0.0,0.0,0.0,0.0,0.0,0.0,0.0,0.0,0.0,0.0,0.1556,0.2657,0.257,0.4565,0.5951,0.5951,0.804,0.9998,1.1697,1.1767,1.1652,1.1385,1.1373,1.1294,1.113,0.9479,0.9345,1.1011,1.0871,1.0903,1.1164,1.1132,1.1286,1.1619,1.1619,1.1619,1.1619,1.1619,1.1619,1.1619,1.1619,1.1599,1.1572,1.1572,1.1572,1.1572,1.1572,1.1592,1.164,1.1782,1.2013,1.2244,1.2277,1.2345,1.2413,1.2447,1.2332,1.2189,1.2189,1.2101,1.2006,1.1972,1.1965,1.1904,1.1674,1.1708,1.1782,1.1782,1.1782,1.1782,1.1782,1.1694,1.1619,1.1619,1.1619,1.1565,1.1409,1.1389,1.1382,1.1348,1.124,1.1212,1.1328,1.1233,1.1212,1.1335,1.1199,1.1118,1.1118,1.1084,1.107,1.107,1.107,1.1016,1.0833,1.1009,1.1009,1.0833,1.0833,1.0962,1.0995,0.8045,0.6529,0.5906,0.2653,0.0981,0.0561,0.014,0.0,0.0,0.0,0.0,0.0,0.0,0.0,0.0,0.0,0.0,0.0,0.0,0.0,0.0,0.0,0.0,0.0,0.0,0.208,0.3438,0.3353,0.6375,0.8844,0.98,1.0965,1.2109,1.3206,1.3281,1.318,1.2949,1.2874,1.2766,1.2617,1.1368,1.1299,1.2393,1.2244,1.2128,1.2047,1.1898,1.1789,1.1714,1.1647,1.1619,1.1619,1.1619,1.1619,1.1619,1.1619,1.1619,1.1619,1.1619,1.1619,1.1619,1.1619,1.1708,1.1843,1.1918,1.2142,1.2393,1.2393,1.244,1.2501,1.2501,1.24,1.2291,1.2291,1.223,1.2155,1.2155,1.2115,1.2108,1.1884,1.1891,1.1938,1.1938,1.1938,1.1918,1.1843,1.1769,1.1701,1.1633,1.1619,1.1592,1.1511,1.1497,1.1497,1.1497,1.143,1.1409,1.1491,1.143,1.1416,1.1497,1.1355,1.1274,1.1274,1.1206,1.1234,1.1234,1.1234,1.1124,1.105,1.1124,1.1165,1.1158,1.1084,1.109,1.1096,0.8283,0.6477,0.5427,0.2629,0.0857,0.0,0.0,0.0,0.0,0.0,0.0,0.0,0.0,0.0,0.0,0.0,0.0,0.0,0.0,0.0,0.0,0.0,0.0,0.0,0.0,0.2442,0.407,0.3889,0.8033,1.1501,1.3244,1.3403,1.339,1.3363,1.3363,1.3295,1.3146,1.2996,1.2861,1.2732,1.2583,1.2501,1.2501,1.2386,1.2311,1.2284,1.2026,1.1884,1.1823,1.1708,1.164,1.1619,1.1619,1.1619,1.1619,1.1619,1.1619,1.1619,1.1619,1.1619,1.1619,1.1619,1.1809,1.2067,1.2169,1.2277,1.2501,1.2501,1.2501,1.2501,1.2501,1.242,1.2325,1.2325,1.2325,1.2298,1.2169,1.223,1.2291,1.2169,1.2121,1.2101,1.2101,1.2101,1.206,1.1932,1.1864,1.1803,1.1708,1.1653,1.1626,1.1653,1.1653,1.1647,1.1619,1.1619,1.1626,1.1653,1.1633,1.1619,1.1619,1.1504,1.143,1.143,1.1307,1.124,1.124,1.124,1.1226,1.1199,1.1226,1.1294,1.1389,1.1287,1.124,1.1246,0.9372,0.7633,0.6001,0.3833,0.1965,0.0437,0.0146,0.0,0.0,0.0,0.0,0.0,0.0,0.0,0.0,0.0,0.0,0.0,0.0,0.0,0.0,0.0,0.0,0.0,0.0,0.3729,0.6381,0.6239,1.0304,1.3085,1.3403,1.3403,1.3342,1.3214,1.3207,1.3139,1.2996,1.284,1.2752,1.2732,1.2583,1.2501,1.2501,1.2481,1.2413,1.2291,1.225,1.2088,1.183,1.1809,1.1735,1.1619,1.1619,1.1619,1.1619,1.1619,1.1619,1.1619,1.1619,1.1619,1.1619,1.1619,1.1809,1.2081,1.2216,1.2366,1.2501,1.2501,1.2501,1.2501,1.2501,1.2488,1.2474,1.2474,1.2474,1.2467,1.2447,1.2461,1.2467,1.2447,1.2345,1.2257,1.2257,1.2257,1.225,1.223,1.2013,1.187,1.1986,1.1789,1.166,1.1782,1.1803,1.1755,1.1633,1.1619,1.1667,1.1789,1.1694,1.1619,1.1619,1.1599,1.1586,1.1586,1.1565,1.1558,1.1558,1.1558,1.1497,1.1362,1.1491,1.1504,1.1396,1.1504,1.1558,1.1487,0.954,0.8534,0.8102,0.4498,0.2763,0.24,0.0729,0.0,0.0,0.0,0.0,0.0,0.0,0.0,0.0,0.0,0.0,0.0,0.0,0.0,0.0,0.0,0.0,0.044,0.1651,0.4762,0.7324,0.8437,1.1461,1.3403,1.3403,1.3403,1.337,1.3302,1.322,1.3146,1.3085,1.2854,1.2732,1.2732,1.2583,1.2501,1.2501,1.2501,1.2467,1.2406,1.2325,1.2169,1.1952,1.187,1.1748,1.1619,1.1619,1.1619,1.1626,1.1708,1.1735,1.1735,1.1735,1.1789,1.187,1.187,1.1952,1.2088,1.2237,1.2386,1.2501,1.2501,1.2501,1.2501,1.2501,1.2501,1.2501,1.2501,1.2501,1.2501,1.2501,1.2569,1.261,1.2522,1.2522,1.2515,1.2427,1.2406,1.2386,1.2305,1.2176,1.2081,1.2067,1.1952,1.1857,1.1837,1.1904,1.1938,1.1877,1.187,1.1857,1.183,1.1775,1.1701,1.1626,1.1619,1.1619,1.1619,1.1619,1.1619,1.1619,1.1619,1.1586,1.1518,1.1586,1.1586,1.1518,1.1586,1.1619,1.1548,0.9574,0.8121,0.6894,0.4141,0.2254,0.1239,0.0365,0.0,0.0,0.0,0.0,0.0,0.0,0.0,0.0]},{"header":{"parameterUnit":"m.s-1","parameterCategory":1,"la1":30.6,"la2":28.766,"lo1":-90.7593,"lo2":-88.6598,"dy":0.0162,"dx":0.0183,"nx":116,"ny":114,"refTime":"2023-04-23T18:00:00:Z","depth":0,"parameterNumber":3,"parameterNumberName":"V-component_of_WINDS"},"data":[0.0,0.0,0.0,0.0,0.0,0.0,0.0,0.0,0.0,0.0,0.0,0.0,0.0,0.0,0.0,0.0,0.0,0.0,0.0,0.0,0.0,0.0,0.0,0.0,0.0,0.0,0.0,0.0,0.0,0.0,0.0,0.0,0.0,0.0,0.0,0.0,0.0,0.0,0.0,0.0,0.0,0.0,0.0,0.0,0.0,0.0,0.0,0.0,0.0,0.0,0.0,0.0,0.0,0.0,0.0,0.0,0.0,0.0,0.0,0.0,0.0,0.0,0.0,0.0,0.0,0.0,0.0,0.0,0.0,0.0,0.0,0.0,0.0,0.0,0.0,0.0,0.0,0.0,0.0,0.0,0.0,0.0,0.0,0.0,0.0,0.0,0.0,0.0,0.0,0.0,0.0,0.0,0.0,0.0,0.0,0.0,0.0,0.0,0.0,0.0,0.0,0.0,0.0,0.0,0.0,0.0,0.0,0.0,0.0,0.0,0.0,0.0,0.0,0.0,0.0,0.0,0.0,0.0,0.0,0.0,0.0,0.0,0.0,0.0,0.0,0.0,0.0,0.0,0.0,0.0,0.0,0.0,0.0,0.0,0.0,0.0,0.0,0.0,0.0,0.0,0.0,0.0,0.0,0.0,0.0,0.0,0.0,0.0,0.0,0.0,0.0,0.0,0.0,0.0,0.0,0.0,0.0,0.0,0.0,0.0,0.0,0.0,0.0,0.0,0.0,0.0,0.0,0.0,0.0,0.0,0.0,0.0,0.0,0.0,0.0,0.0,0.0,0.0,0.0,0.0,0.0,0.0,0.0,0.0,0.0,0.0,0.0,0.0,0.0,0.0,0.0,0.0,0.0,0.0,0.0,0.0,0.0,0.0,0.0,0.0,0.0,0.0,0.0,0.0,0.0,0.0,0.0,0.0,0.0,0.0,0.0,0.0,0.0,0.0,0.0,0.0,0.0,0.0,0.0,0.0,0.0,0.0,0.0,0.0,0.0,0.0,0.0,0.0,0.0,0.0,0.0,0.0,0.0,0.0,0.0,0.0,0.0,0.0,0.0,0.0,0.0,0.0,0.0,0.0,0.0,0.0,0.0,0.0,0.0,0.0,0.0,0.0,0.0,0.0,0.0,0.0,0.0,0.0,0.0,0.0,0.0,0.0,0.0,0.0,0.0,0.0,0.0,0.0,0.0,0.0,0.0,0.0,0.0,0.0,0.0,0.0,0.0,0.0,0.0,0.0,0.0,0.0,0.0,0.0,0.0,0.0,0.0,0.0,0.0,0.0,0.0,0.0,0.0,0.0,0.0,0.0,0.0,0.0,0.0,0.0,0.0,0.0,0.0,0.0,0.0,0.0,0.0,0.0,0.0,0.0,0.0,0.0,0.0,0.0,0.0,0.0,0.0,0.0,0.0,0.0,0.0,0.0,0.0,0.0,0.0,0.0,0.0,0.0,0.0,0.0,0.0,0.0,0.0,0.0,0.0,0.0,0.0,0.0,0.0,0.0,0.0,0.0,0.0,0.0,0.0,0.0,0.0,0.0,0.0,0.0,0.0,0.0,0.0,0.0,0.0,0.0,0.0,0.0,0.0,0.0,0.0,0.0,0.0,0.0,0.0,0.0,0.0,0.0,0.0,0.0,0.0,0.0,0.0,0.0,0.0,0.0,0.0,0.0,0.0,0.0,0.0,0.0,0.0,0.0,0.0,0.0,0.0,0.0,0.0,0.0,0.0,0.0,0.0,0.0,0.0,0.0,0.0,0.0,0.0,0.0,0.0,0.0,0.0,0.0,0.0,0.0,0.0,0.0,0.0,0.0,0.0,0.0,0.0,0.0,0.0,0.0,0.0,0.0,0.0,0.0,0.0,0.0,0.0,0.0,0.0,0.0,0.0,0.0,0.0,0.0,0.0,0.0,0.0,0.0,0.0,0.0,0.0,0.0,0.0,0.0,0.0,0.0,0.0,0.0,0.0,0.0,0.0,0.0,0.0,0.0,0.0,0.0,0.0,0.0,0.0,0.0,0.0,0.0,0.0,0.0,0.0,0.0,0.0,0.0,0.0,0.0,0.0,0.0,0.0,0.0,0.0,0.0,0.0,0.0,0.0,0.0,0.0,0.0,0.0,0.0,0.0,0.0,0.0,0.0,0.0,0.0,0.0,0.0,0.0,0.0,0.0,0.0,0.0,0.0,0.0,0.0,0.0,0.0,0.0,0.0,0.0,0.0,0.0,0.0,0.0,0.0,0.0,0.0,0.0,0.0,0.0,0.0,0.0,0.0,0.0,0.0,0.0,0.0,0.0,0.0,0.0,0.0,0.0,0.0,0.0,0.0,0.0,0.0,0.0,0.0,0.0,0.0,0.0,0.0,0.0,0.0,0.0,0.0,0.0,0.0,0.0,0.0,0.0,0.0,0.0,0.0,0.0,0.0,0.0,0.0,0.0,0.0,0.0,0.0,0.0,0.0,0.0,0.0,0.0,0.0,0.0,0.0,0.0,0.0,0.0,0.0,0.0,0.0,0.0,0.0,0.0,0.0,0.0,0.0,0.0,0.0,0.0,0.0,0.0,0.0,0.0,0.0,0.0,0.0,0.0,0.0,0.0,0.0,0.0,0.0,0.0,0.0,0.0,0.0,0.0,0.0,0.0,0.0,0.0,0.0,0.0,0.0,0.0,0.0,0.0,0.0,0.0,0.0,0.0,0.0,0.0,0.0,0.0,0.0,0.0,0.0,0.0,0.0,0.0,0.0,0.0,0.0,0.0,0.0,0.0,0.0,0.0,0.0,0.0,0.0,0.0,0.0,0.0,0.0,0.0,0.0,0.0,0.0,0.0,0.0,0.0,0.0,0.0,0.0,0.0,0.0,0.0,0.0,0.0,0.0,0.0,0.0,0.0,0.0,0.0,0.0,0.0,0.0,0.0,0.0,0.0,0.0,0.0,0.0,0.0,0.0,0.0,0.0,0.0,0.0,0.0,0.0,0.0,0.0,0.0,0.0,0.0,0.0,0.0,0.0,0.0,0.0,0.0,0.0,0.0,0.0,0.0,0.0,0.0,0.0,0.0,0.0,0.0,0.0,0.0,0.0,0.0,0.0,0.0,0.0,0.0,0.0,0.0,0.0,0.0,0.0,0.0,0.0,0.0,0.0,0.0,0.0,0.0,0.0,0.0,0.0,0.0,0.0,0.0,0.0,0.0,0.0,0.0,0.0,0.0,0.0,0.0,0.0,0.0,0.0,0.0,0.0,0.0,0.0,0.0,0.0,0.0,0.0,0.0,0.0,0.0,0.0,0.0,0.0,0.0,0.0,0.0,0.0,0.0,0.0,0.0,0.0,0.0,0.0,0.0,0.0,0.0,0.0,0.0,0.0,0.0,0.0,0.0,0.0,0.0,0.0,0.0,0.0,0.0,0.0,0.0,0.0,0.0,0.0,0.0,0.0,0.0,0.0,0.0,0.0,0.0,0.0,0.0,0.0,0.0,0.0,0.0,0.0,0.0,0.0,0.0,0.0,0.0,0.0,0.0,0.0,0.0,0.0,0.0,0.0,0.0,0.0,0.0,0.0,0.0,0.0,0.0,0.0,0.0,0.0,0.0,0.0,0.0,0.0,0.0,0.0,0.0,0.0,0.0,0.0,0.0,0.0,0.0,0.0,0.0,0.0,0.0,0.0,0.0,0.0,0.0,0.0,0.0,0.0,0.0,0.0,0.0,0.0,0.0,0.0,0.0,0.0,0.0,0.0,0.0,0.0,0.0,0.0,0.0,0.0,0.0,0.0,0.0,0.0,0.0,0.0,0.0,0.0,0.0,0.0,0.0,0.0,0.0,0.0,0.0,0.0,0.0,0.0,0.0,0.0,0.0,0.0,0.0,0.0,0.0,0.0,0.0,0.0,0.0,0.0,0.0,0.0,0.0,0.0,0.0,0.0,0.0,0.0,0.0,0.0,0.0,0.0,0.0,0.0,0.0,0.0,0.0,0.0,0.0,0.0,0.0,0.0,0.0,0.0,0.0,0.0,0.0,0.0,0.0,0.0,0.0,0.0,0.0,0.0,0.0,0.0,0.0,0.0,0.0,0.0,0.0,0.0,0.0,0.0,0.0,0.0,0.0,0.0,0.0,0.0,0.0,0.0,0.0,0.0,0.0,0.0,0.0,0.0,0.0,0.0,0.0,0.0,0.0,0.0,0.0,0.0,0.0,0.0,0.0,0.0,0.0,0.0,0.0,0.0,0.0,0.0,0.0,0.0,0.0,0.0,0.0,0.0,0.0,0.0,0.0,0.0,0.0,0.0,0.0,0.0,0.0,0.0,0.0,0.0,0.0,0.0,0.0,0.0,0.0,0.0,0.0,0.0,0.0,0.0,0.0,0.0,0.0,0.0,0.0,0.0,0.0,0.0,0.0,0.0,0.0,0.0,0.0,0.0,0.0,0.0,0.0,0.0,0.0,0.0,0.0,0.0,0.0,0.0,0.0,0.0,0.0,0.0,0.0,0.0,0.0,0.0,0.0,0.0,0.0,0.0,0.0,0.0,0.0,0.0,0.0,0.0,0.0,0.0,0.0,0.0,0.0,0.0,0.0,0.0,0.0,0.0,0.0,0.0,0.0,0.0,0.0,0.0,0.0,0.0,0.0,0.0,0.0,0.0,0.0,0.0,0.0,0.0,0.0,0.0,0.0,0.0,0.0,0.0,0.0,0.0,0.0,0.0,0.0,0.0,0.0,0.0,0.0,0.0,0.0,0.0,0.0,0.0,0.0,0.0,0.0,0.0,0.0,0.0,0.0,0.0,0.0,0.0,0.0,0.0,0.0,0.0,0.0,0.0,0.0,0.0,0.0,0.0,0.0,0.0,0.0,0.0,0.0,0.0,0.0,0.0,0.0,0.0,0.0,0.0,0.0,0.0,0.0,0.0,0.0,0.0,0.0,0.0,0.0,0.0,0.0,0.0,0.0,0.0,0.0,0.0,0.0,0.0,0.0,0.0,0.0,0.0,0.0,0.0,0.0,0.0,0.0,0.0,0.0,0.0,0.0,0.0,0.0,0.0,0.0,0.0,0.0,0.0,0.0,0.0,0.0,0.0,0.0,0.0,0.0,0.0,0.0,0.0,0.0,0.0,0.0,0.0,0.0,0.0,0.0,0.0,0.0,0.0,0.0,0.0,0.0,0.0,0.0,0.0,0.0,0.0,0.0,0.0,0.0,0.0,0.0,0.0,0.0,0.0,0.0,0.0,0.0,0.0,0.0,0.0,0.0,0.0,0.0,0.0,0.0,0.0,0.0,0.0,0.0,0.0,0.0,0.0,0.0,0.0,0.0,0.0,0.0,0.0,0.0,0.0,0.0,0.0,0.0,0.0,0.0,0.0,0.0,0.0,0.0,0.0,0.0,0.0,0.0,0.0,0.0,0.0,0.0,0.0,0.0,0.0,0.0,0.0,0.0,0.0,0.0,0.0,0.0,0.0,0.0,0.0,0.0,0.0,0.0,0.0,0.0,0.0,0.0,0.0,0.0,0.0,0.0,0.0,0.0,0.0,0.0,0.0,0.0,0.0,0.0,0.0,0.0,0.0,0.0,0.0,0.0,0.0,0.0,0.0,0.0,0.0,0.0,0.0,0.0,0.0,0.0,0.0,0.0,0.0,0.0,0.0,0.0,0.0,0.0,0.0,0.0,0.0,0.0,0.0,0.0,0.0,0.0,0.0,0.0,0.0,0.0,0.0,0.0,0.0,0.0,0.0,0.0,0.0,0.0,0.0,0.0,0.0,0.0,0.0,0.0,0.0,0.0,0.0,0.0,0.0,0.0,0.0,0.0,0.0,0.0,0.0,0.0,0.0,0.0,0.0,0.0,0.0,0.0,0.0,0.0,0.0,0.0,0.0,0.0,0.0,0.0,0.0,0.0,0.0,0.0,0.0,0.0,0.0,0.0,0.0,0.0,0.0,0.0,0.0,0.0,0.0,0.0,0.0,0.0,0.0,0.0,0.0,0.0,0.0,0.0,0.0,0.0,0.0,0.0,0.0,0.0,0.0,0.0,0.0,0.0,0.0,0.0,0.0,0.0,0.0,0.0,0.0,0.0,0.0,0.0,0.0,0.0,0.0,0.0,0.0,0.0,0.0,1.3183,0.0,0.0,0.0,0.0,0.0,0.0,0.0,0.0,0.0,0.0,0.0,0.0,0.0,0.0,0.0,0.0,0.0,0.0,0.0,0.0,0.0,0.0,0.0,0.0,0.0,0.0,0.0,0.0,0.0,0.0,0.0,0.0,0.0,0.0,0.0,0.0,0.0,0.0,1.6644,1.8233,2.0321,2.2782,2.3472,2.2214,1.9375,0.0,0.0,0.0,0.0,0.0,0.0,0.0,0.0,0.0,0.0,0.0,0.0,0.0,0.0,0.0,0.0,0.0,0.0,0.0,0.0,0.0,0.0,0.0,0.0,0.0,0.0,0.0,0.0,0.0,0.0,0.0,0.0,0.0,0.0,0.0,0.0,0.0,0.0,0.0,0.0,0.0,0.0,0.0,0.0,0.0,0.0,0.0,0.0,0.0,0.0,0.0,0.0,0.0,0.0,0.0,0.0,0.0,0.0,0.0,0.0,0.0,0.0,0.0,0.0,0.0,0.0,0.0,0.0,0.0,0.0,0.0,1.5531,0.0,0.0,0.0,0.0,0.0,0.0,0.0,0.0,0.0,0.0,0.0,0.0,0.0,0.0,0.0,0.0,0.0,0.0,0.0,0.0,0.0,0.0,0.0,0.0,1.1963,1.2539,1.2972,1.3793,0.0,0.0,0.0,0.0,0.0,0.0,0.0,1.7809,1.814,1.824,2.1486,2.5098,2.9008,3.0846,2.8116,2.1734,2.1878,0.0,0.0,0.0,0.0,0.0,0.0,0.0,0.0,0.0,0.0,0.0,0.0,0.0,0.0,0.0,0.0,0.0,0.0,0.0,0.0,0.0,0.0,0.0,0.0,0.0,0.0,0.0,0.0,0.0,0.0,0.0,0.0,0.0,0.0,0.0,0.0,0.0,0.0,0.0,0.0,0.0,0.0,0.0,0.0,0.0,0.0,0.0,0.0,0.0,0.0,0.0,0.0,0.0,0.0,0.0,0.0,0.0,0.0,0.0,0.0,0.0,0.0,0.0,2.5239,2.5613,2.5071,2.5975,2.6142,2.5597,2.3896,2.1496,1.8666,1.735,0.0,0.0,0.0,0.0,0.0,0.0,0.0,0.0,0.0,0.0,0.0,0.0,0.0,0.0,0.0,0.0,0.0,0.0,0.0,0.0,0.0,1.32,1.3718,1.5155,1.5102,1.5543,1.6892,0.0,0.0,0.0,0.0,0.0,1.906,1.9381,2.0996,2.4018,2.789,3.0298,3.1191,3.2284,3.2594,3.2119,3.0049,2.8867,2.8227,0.0,0.0,0.0,0.0,0.0,0.0,0.0,0.0,0.0,0.0,0.0,0.0,0.0,0.0,0.0,0.0,0.0,0.0,0.0,0.0,0.0,0.0,0.0,0.0,0.0,0.0,0.0,0.0,0.0,0.0,0.0,0.0,0.0,0.0,0.0,0.0,0.0,0.0,0.0,0.0,0.0,2.3128,2.1853,0.0,0.0,0.0,0.0,0.0,0.0,0.0,0.0,0.0,0.0,0.0,0.0,0.0,2.3733,2.4224,2.5188,2.5441,2.5006,2.7566,2.8486,2.8013,3.0256,3.1219,3.1164,3.1662,0.0,2.2418,1.9629,0.0,0.0,0.0,0.0,0.0,0.0,0.0,0.0,0.0,0.0,0.0,0.0,0.0,0.0,0.0,0.0,0.0,0.0,0.0,0.0,0.0,1.7002,1.9024,2.0567,2.2761,2.335,2.1715,2.1644,0.0,0.0,0.0,1.9351,1.9854,2.1717,2.5406,3.1057,3.465,3.733,3.9207,4.0384,4.1372,4.2073,4.0517,3.7055,3.2135,2.8375,0.0,0.0,0.0,0.0,0.0,0.0,0.0,0.0,0.0,0.0,0.0,0.0,0.0,0.0,0.0,0.0,0.0,0.0,0.0,0.0,0.0,0.0,0.0,0.0,0.0,0.0,0.0,0.0,0.0,0.0,0.0,0.0,0.0,0.0,0.0,0.0,0.0,0.0,0.0,2.2289,2.2937,2.0515,2.1369,2.0803,0.0,0.0,0.0,0.0,0.0,0.0,0.0,0.0,0.0,2.5278,2.7713,2.9113,2.9342,3.1076,3.1632,3.1014,3.2207,3.2669,3.2467,3.3539,3.405,3.408,3.4463,3.2734,2.9338,2.551,2.2923,2.1225,0.0,0.0,0.0,0.0,1.9405,1.9897,0.0,0.0,0.0,0.0,0.0,0.0,0.0,0.0,0.0,0.0,0.0,0.0,1.7882,2.1789,2.5,2.6747,2.9733,3.0081,2.6744,2.5971,2.4043,2.0444,2.0405,2.0494,2.0546,2.5194,3.0744,3.7122,4.1029,4.4135,4.6438,4.7626,4.8586,4.9224,4.8397,4.3959,3.6795,3.274,3.0053,2.8124,0.0,0.0,0.0,0.0,0.0,0.0,0.0,0.0,0.0,0.0,0.0,0.0,0.0,0.0,0.0,0.0,0.0,0.0,0.0,0.0,0.0,0.0,0.0,0.0,0.0,0.0,0.0,0.0,0.0,0.0,0.0,0.0,0.0,0.0,0.0,0.0,0.0,2.3688,2.4386,2.0872,2.332,2.3786,0.0,0.0,0.0,0.0,0.0,0.0,2.4899,2.7879,2.9929,3.0717,3.3137,3.4372,3.4289,3.6025,3.6631,3.61,3.61,3.6005,3.5782,3.5782,3.5782,3.5782,3.5782,3.5607,3.4973,3.0477,2.7432,2.5452,2.3928,2.3461,2.3607,2.315,2.3373,2.3947,0.0,0.0,0.0,0.0,0.0,0.0,0.0,0.0,0.0,0.0,0.0,2.1598,2.3657,2.7385,3.0706,3.3209,3.3288,3.2454,3.0731,2.845,2.5781,2.258,2.2521,2.2187,2.1448,3.0341,3.6956,4.1013,4.6786,4.9735,4.9955,5.0778,5.1398,5.1756,5.0986,4.8347,4.4289,4.0221,3.6938,3.4128,2.9184,0.0,0.0,0.0,0.0,0.0,0.0,0.0,0.0,0.0,0.0,0.0,0.0,0.0,0.0,0.0,0.0,0.0,0.0,0.0,0.0,0.0,0.0,0.0,0.0,0.0,0.0,0.0,0.0,0.0,0.0,0.0,0.0,0.0,0.0,0.0,0.0,0.0,0.0,2.6471,2.945,0.0,0.0,0.0,0.0,2.7873,2.9928,3.0745,2.9706,3.3486,3.5687,3.5752,3.7605,3.8584,3.8587,3.8019,3.7735,3.7677,3.7677,3.7263,3.6538,3.6538,3.6538,3.6538,3.6538,3.6964,3.7274,3.2524,3.0105,2.9173,2.6769,2.5475,2.4881,2.4735,2.5153,2.575,0.0,0.0,0.0,0.0,0.0,0.0,0.0,0.0,1.5855,1.6685,2.0733,2.4533,2.7182,3.3454,3.8612,4.1384,4.2603,4.1805,3.853,3.4393,3.0794,2.7922,2.5694,2.6799,3.1693,3.744,4.2728,4.7479,5.0304,5.2137,5.2951,5.2709,5.2949,5.3584,5.3014,5.1677,4.9572,4.4342,4.0621,3.7934,3.3294,2.9344,0.0,0.0,0.0,0.0,0.0,0.0,0.0,0.0,0.0,0.0,0.0,0.0,0.0,0.0,0.0,0.0,0.0,0.0,0.0,0.0,0.0,0.0,0.0,0.0,0.0,0.0,0.0,0.0,0.0,0.0,0.0,0.0,0.0,0.0,0.0,0.0,0.0,3.0767,3.4542,0.0,3.1187,3.134,3.175,3.1855,3.3937,3.5243,3.5274,3.8351,3.988,3.9387,4.0014,3.9908,3.8916,3.8655,3.8274,3.7822,3.8299,3.812,3.7383,3.7886,3.7822,3.7352,3.7352,3.7528,3.7668,3.5956,3.4883,3.4163,3.2811,3.2137,3.1885,3.1363,3.135,3.1507,0.0,0.0,0.0,0.0,0.0,0.0,0.0,0.0,1.7188,1.9704,2.4079,2.8623,3.3065,3.979,4.5134,4.7943,4.9043,4.7679,4.3112,3.8553,3.4297,3.0428,2.8866,3.1602,3.9218,4.3209,4.7499,5.2094,5.3734,5.4752,5.511,5.4541,5.4489,5.4899,5.4562,5.4141,5.3337,4.903,4.5456,4.2314,3.7974,3.3876,3.0053,0.0,0.0,0.0,0.0,0.0,0.0,0.0,0.0,0.0,0.0,0.0,0.0,0.0,0.0,0.0,0.0,0.0,0.0,0.0,0.0,0.0,0.0,0.0,0.0,0.0,0.0,0.0,0.0,0.0,0.0,0.0,0.0,0.0,0.0,3.2598,3.5625,3.4438,3.8797,4.0469,3.6713,3.7046,3.7574,3.7787,3.9194,4.0146,4.0354,4.2092,4.2828,4.2354,4.2083,4.1439,4.0446,3.9947,3.9571,3.9331,3.956,3.9288,3.8577,3.9059,3.8897,3.8161,3.8161,3.8334,3.8585,3.8585,3.8319,3.7802,3.6574,3.6115,3.6016,3.4986,3.4819,3.4975,0.0,0.0,0.0,0.0,0.0,0.0,0.0,1.7115,1.9311,2.4557,2.8785,3.4128,4.1397,4.6181,4.9909,5.2539,5.1914,4.9217,4.4007,4.0466,3.5898,2.9882,3.2137,3.6612,4.3239,4.7471,5.1241,5.4664,5.7088,5.7668,5.6483,5.6483,5.6212,5.5756,5.5794,5.574,5.5686,5.4495,5.1597,4.7404,4.3342,3.9539,3.5799,0.0,0.0,0.0,0.0,0.0,0.0,0.0,0.0,0.0,0.0,0.0,0.0,0.0,0.0,0.0,0.0,0.0,0.0,0.0,0.0,0.0,0.0,0.0,0.0,0.0,0.0,0.0,0.0,0.0,0.0,0.0,0.0,0.0,3.0369,3.6239,3.9938,3.7845,4.242,4.4876,4.27,4.3827,4.4978,4.5657,4.5733,4.5484,4.48,4.4705,4.4671,4.4637,4.383,4.3396,4.3362,4.1941,4.1602,4.2252,4.1576,4.0862,4.0139,4.0139,3.9715,3.8935,3.8935,3.9368,4.0113,4.0113,4.0113,3.9876,3.7584,3.6762,3.6726,3.5177,3.5063,3.5671,0.0,0.0,0.0,0.0,0.0,0.0,0.0,1.7676,1.9948,2.5025,3.0806,3.6921,4.3419,4.9174,5.3085,5.4453,5.2617,4.9726,4.5819,4.0586,3.6826,3.4934,4.0152,4.512,4.9385,5.2433,5.5318,5.8127,5.8242,5.8427,5.8626,5.805,5.7733,5.7558,5.7229,5.7063,5.7048,5.6398,5.5107,5.3069,4.8588,4.4399,4.0653,0.0,0.0,0.0,0.0,0.0,0.0,0.0,0.0,0.0,0.0,0.0,0.0,0.0,0.0,0.0,0.0,0.0,0.0,0.0,0.0,0.0,0.0,0.0,0.0,0.0,0.0,0.0,0.0,0.0,0.0,0.0,3.5884,3.9428,3.8366,4.2139,4.5404,4.6424,4.8848,4.9983,4.885,4.8558,4.8363,4.8035,4.801,4.7943,4.7732,4.7146,4.656,4.6,4.462,4.3436,4.2536,4.2073,4.1731,4.1508,4.1847,4.1606,4.0908,4.0908,4.0505,3.9765,3.9765,3.9901,4.0113,4.0113,4.0113,4.0062,3.9368,3.9156,3.9013,3.7517,3.6379,3.5564,0.0,0.0,0.0,0.0,0.0,0.0,0.0,1.8189,2.1057,2.7917,3.2842,3.86,4.6227,5.0496,5.3198,5.414,5.1483,4.8318,4.4883,4.0346,3.8619,4.0606,4.5725,5.0076,5.3433,5.5972,5.8011,5.9511,5.9396,5.9396,5.9473,5.9011,5.8819,5.8769,5.8514,5.84,5.8374,5.7953,5.7104,5.5754,5.2827,4.9283,4.5529,4.409,4.1378,3.8329,3.8301,3.8082,3.7482,3.524,0.0,0.0,0.0,0.0,0.0,0.0,0.0,0.0,0.0,0.0,0.0,0.0,0.0,0.0,0.0,0.0,0.0,0.0,0.0,0.0,0.0,0.0,0.0,0.0,4.1123,4.5469,4.669,4.8128,4.9769,5.175,5.2963,5.3362,5.2594,5.1848,5.1068,5.0306,4.9706,4.9213,4.8859,4.8125,4.731,4.6472,4.5563,4.4729,4.3979,4.3605,4.3415,4.337,4.3162,4.2827,4.2403,4.2068,4.1371,4.0441,4.0441,4.0294,4.0113,4.0113,4.0113,0.0,0.0,0.0,0.0,0.0,3.7144,3.5994,0.0,0.0,0.0,0.0,0.0,0.0,0.0,1.8657,2.2328,3.169,3.4559,3.9307,4.8821,5.0659,5.1576,5.246,4.9365,4.5966,4.2617,4.0439,4.1412,4.6275,4.9741,5.2961,5.6102,5.8457,5.9665,5.9665,6.0435,6.0396,5.9665,5.9665,5.9665,5.9665,5.9665,5.9665,5.9604,5.9255,5.8217,5.6725,5.6322,5.3827,5.0063,4.719,4.5225,4.3812,4.2308,4.1431,4.077,3.9451,0.0,0.0,0.0,0.0,0.0,0.0,0.0,0.0,0.0,0.0,0.0,0.0,0.0,0.0,0.0,0.0,0.0,0.0,0.0,0.0,0.0,0.0,0.0,0.0,4.634,5.0435,5.4142,5.3658,5.3432,5.4677,5.5368,5.5427,5.473,5.3895,5.3134,5.2387,5.1119,5.0051,4.9315,0.0,0.0,0.0,0.0,4.6541,4.64,4.5714,4.5691,4.6248,4.489,4.4182,4.4054,4.3275,4.2211,4.0978,4.0978,4.0709,4.0303,4.0303,4.0303,4.0229,3.9368,3.9399,3.9772,3.8458,3.7441,3.665,0.0,0.0,0.0,0.0,0.0,0.0,0.0,1.8622,2.2669,3.1782,3.4627,3.9156,4.8001,5.0349,5.1371,5.1537,4.847,4.5351,4.2578,4.3808,4.627,4.9994,5.3903,5.6906,5.897,6.0019,6.055,6.055,6.0704,6.0704,6.055,6.055,6.055,6.055,6.055,6.055,6.055,6.0453,5.9852,5.888,5.8781,5.6292,5.2559,5.2245,5.114,4.9694,4.97,5.0058,4.998,4.6468,4.5549,4.5239,4.1284,3.7453,0.0,0.0,0.0,0.0,0.0,0.0,0.0,0.0,0.0,0.0,0.0,0.0,0.0,0.0,0.0,0.0,0.0,0.0,0.0,4.332,4.9544,5.4693,5.6124,5.6658,5.6759,5.6443,5.6497,5.6528,5.6345,5.5023,5.4137,5.3968,5.3113,5.2499,5.2353,5.1609,5.0806,4.9982,4.8648,4.7409,4.6341,4.6118,4.5845,4.5538,0.0,0.0,4.4054,4.3319,4.2475,4.1639,4.1639,4.1573,4.1464,4.1464,4.1464,4.1375,4.0285,3.9472,3.8882,3.855,3.7607,3.6519,0.0,0.0,0.0,0.0,0.0,0.0,0.0,1.9506,2.2734,2.9606,3.2043,3.5642,4.2173,4.3663,4.4222,4.4284,4.3162,4.2616,4.2962,4.6158,4.9906,5.4234,5.752,5.9664,6.0544,6.1297,6.1446,6.0884,6.0884,6.085,6.0781,6.0781,6.0781,6.0781,6.0781,6.0781,6.0781,6.0781,6.0281,5.9511,5.9511,5.7989,5.5758,5.5989,5.5258,5.4258,5.488,5.4549,5.3598,5.1905,5.1039,5.0086,4.6784,4.3718,4.0604,0.0,0.0,0.0,0.0,0.0,0.0,0.0,0.0,0.0,0.0,0.0,0.0,0.0,0.0,3.7997,3.8689,0.0,4.7608,4.9518,5.3944,5.7429,5.8301,5.8532,5.829,5.7519,5.7409,5.7262,5.6859,5.5721,5.484,5.4436,5.3665,5.3041,5.2637,5.2197,5.1426,5.0215,4.937,4.841,4.7332,4.7256,4.7098,4.6792,4.6395,4.5761,4.4967,4.4193,4.3296,4.2262,4.2262,4.2062,4.181,4.181,4.181,4.1746,4.1173,4.0386,3.9546,3.9182,3.8342,3.7331,0.0,0.0,0.0,0.0,0.0,0.0,0.0,2.0164,2.2571,2.7357,2.9175,3.1719,3.6315,3.6954,3.7068,3.7031,3.8906,4.1248,4.3967,4.8743,5.3516,5.8202,6.0625,6.185,6.184,6.2674,6.2594,6.1538,6.1693,6.1637,6.1394,6.1229,6.1152,6.1152,6.0959,6.092,6.092,6.092,6.0464,5.9793,5.9793,5.9298,5.855,5.855,5.7896,5.706,5.7434,5.5818,5.3703,5.5011,5.4126,5.2261,5.1073,4.9465,4.673,4.0306,3.9497,0.0,0.0,0.0,0.0,0.0,0.0,0.0,0.0,3.8192,3.9192,4.2777,4.4172,4.5283,4.7062,5.0038,5.3039,5.5624,5.7899,5.9565,6.0277,5.9795,5.9099,5.8473,5.8162,5.774,5.7116,5.6161,5.5317,5.4693,5.3739,5.2931,5.227,5.2234,5.1573,5.0124,4.9904,4.9407,4.8563,4.8379,4.8306,4.8306,4.7626,4.6892,4.6104,4.5296,4.4273,4.3099,4.2918,4.258,4.2144,4.2144,4.2144,4.2144,4.2144,4.166,4.0836,3.9973,3.9151,3.837,0.0,0.0,0.0,0.0,0.0,0.0,0.0,0.0,2.1868,2.7274,2.8104,3.0119,3.5202,3.6522,3.677,3.6211,4.1836,4.5586,4.5976,5.289,5.828,6.1132,6.2898,6.3797,6.3797,6.4486,6.4375,6.3495,6.424,6.4234,6.347,6.2724,6.2407,6.2368,6.1583,6.1234,6.1234,6.1234,6.1097,6.0845,6.0845,6.0248,5.9358,5.9358,5.8396,5.683,5.5434,5.2779,5.0433,5.3587,5.2472,5.0433,5.3916,5.3407,5.0455,4.5062,4.2243,3.9671,3.4214,3.4254,3.6476,3.9006,4.0392,4.2269,0.0,4.7855,4.8202,4.9442,5.0962,5.1802,5.1056,5.4167,5.6873,5.692,5.9554,6.1579,6.1655,6.0656,5.9864,5.9789,5.8725,5.796,5.7886,5.6492,5.5537,5.5464,5.4069,5.3188,5.3057,5.3078,5.2674,5.1756,5.1022,5.0288,4.9463,4.8673,4.8306,4.8306,4.8233,4.7736,4.6929,4.614,4.5297,4.4436,4.3721,4.3356,4.3321,4.3321,4.3321,4.3321,4.3321,4.2828,4.1971,4.0619,3.9644,3.894,0.0,0.0,0.0,0.0,0.0,0.0,0.0,0.0,0.0,2.454,2.5398,2.6746,2.9447,3.0529,3.1159,3.1368,3.8228,4.3587,4.6087,5.3554,5.9258,6.2305,6.4059,6.4951,6.4951,6.5755,6.5917,6.5433,6.5316,6.5051,6.4537,6.3675,6.3286,6.3286,6.2935,6.2501,6.2067,6.2067,6.1719,6.1179,6.1179,6.0623,5.9683,5.8676,5.7234,5.5544,5.3712,5.1472,0.0,5.1114,5.0277,4.9394,5.3664,5.2598,4.9041,4.5403,4.3677,4.2615,4.1405,4.1351,4.2115,4.4383,4.6701,4.9125,5.1779,5.2741,5.3895,5.6753,5.7896,5.8373,5.8357,5.9754,6.1044,6.1409,6.233,6.2824,6.2385,6.1613,6.0567,5.9084,5.8389,5.805,5.7992,5.7205,5.6383,5.5655,5.4546,5.3702,5.3203,5.3203,5.2821,5.2013,5.1683,5.1096,5.0288,4.9958,4.9617,4.9343,4.9343,4.8799,4.7762,4.6735,4.5429,4.3975,4.3662,4.3515,4.3515,4.3515,4.3515,4.3515,4.3515,4.3277,4.2856,4.1808,4.0645,3.9564,0.0,0.0,0.0,0.0,0.0,0.0,0.0,0.0,0.0,0.0,2.345,2.4528,2.5688,2.639,2.7212,2.8365,3.4944,4.0986,4.5527,5.2924,5.8905,6.2812,6.4883,6.6055,6.6328,6.7383,6.777,6.7392,6.7041,6.655,6.594,6.5078,6.4532,6.4294,6.406,6.3592,6.3042,6.2808,6.2318,6.17,6.1466,6.0505,5.9137,5.762,5.5392,5.2908,5.1273,4.9096,4.7055,4.7325,4.6368,4.578,5.0053,4.9444,4.6614,4.3866,4.2531,4.2461,4.4917,4.5705,4.65,4.9199,5.2433,5.5241,5.6319,5.7396,5.905,6.2127,6.2974,6.3243,6.3589,6.3858,6.4166,6.4551,6.4496,6.4082,6.3255,6.2563,6.1241,5.8916,5.8462,5.8139,5.7735,5.7278,5.6722,5.601,5.5007,5.4192,5.36,5.3563,5.3304,5.2731,5.2472,5.2065,5.1453,5.125,5.0859,5.0277,5.0277,4.9706,4.8574,4.7245,4.5705,4.4103,4.3918,4.3807,4.3807,4.3807,4.3807,4.3807,4.3807,4.3807,4.3733,4.314,4.191,4.0524,0.0,0.0,0.0,0.0,0.0,0.0,0.0,0.0,0.0,0.0,0.0,0.0,0.0,2.6703,2.744,2.9224,3.4158,3.9387,4.4588,5.1425,5.7607,6.2773,6.5469,6.7265,6.8086,6.9726,7.0195,6.9414,7.0156,6.9687,6.8086,6.7226,6.6367,6.5508,6.4648,6.4258,6.4179,6.3359,6.2919,6.2672,6.1813,5.9884,5.7392,5.6486,5.3002,4.8505,4.765,4.4623,4.1168,4.1975,4.0034,3.8063,4.2304,4.4117,4.4045,4.0631,3.7907,3.6876,4.1081,4.3934,4.7109,5.2868,5.6819,5.9742,6.1485,6.3166,6.4359,6.4512,6.5205,6.5513,6.4705,6.5243,6.5551,6.4743,6.5308,6.5538,6.4654,6.3389,6.1972,6.0241,5.9273,5.8296,5.7037,5.6229,5.6057,5.6811,5.5379,5.449,5.4452,5.4452,5.4452,5.4414,5.3585,5.3132,5.3132,5.2333,5.1556,5.0801,5.0801,5.0334,4.9414,4.7754,4.6547,4.5679,4.4925,4.4585,4.4585,4.4585,4.4585,4.4585,4.4585,4.4585,4.4572,4.4548,4.3565,4.2139,0.0,0.0,0.0,0.0,0.0,0.0,0.0,0.0,0.0,0.0,0.0,0.0,0.0,0.0,0.0,0.0,3.2295,3.6763,4.0231,4.863,5.5023,5.8544,6.3397,6.6445,6.7305,6.8476,6.918,6.9492,6.918,6.875,6.8164,6.7305,6.6758,6.6406,6.5547,6.4844,6.4258,6.3359,6.2968,6.2767,6.0774,5.9401,5.8139,5.3801,5.001,4.6456,0.0,3.9254,3.7199,3.5843,3.4934,3.5053,3.8753,3.8951,3.7493,3.5815,3.7529,4.0615,4.3656,4.7988,5.261,5.6785,6.0358,6.3051,6.3628,6.5051,6.5936,6.482,6.2589,6.0553,5.9498,5.966,5.9823,5.9383,6.2503,6.4551,6.3128,6.299,6.2043,5.9229,5.8654,5.8067,5.7073,5.6958,5.696,5.6916,5.5902,5.5314,5.5293,5.4786,5.4484,5.4484,5.422,5.4069,5.4069,5.3783,5.3112,5.1988,5.1126,5.0171,4.9049,4.7908,4.6809,4.5744,4.4951,4.4612,4.4612,4.4612,4.4612,4.4612,4.4612,4.4612,4.4612,4.4612,4.4277,4.3689,0.0,0.0,0.0,0.0,0.0,0.0,0.0,0.0,0.0,0.0,0.0,0.0,0.0,0.0,0.0,0.0,0.0,3.3616,3.748,4.4121,4.9635,5.3511,5.8028,6.0849,6.1748,6.2568,6.3271,6.3857,6.4566,6.4876,6.4866,6.5265,6.5418,6.5325,6.4778,6.4241,6.3704,6.2844,6.1794,6.0508,5.8242,5.625,5.4141,4.9922,4.6133,0.0,3.8008,3.5141,3.3278,3.168,3.1441,3.2309,3.4787,3.5109,3.4698,3.5769,3.8997,4.324,4.812,5.2661,5.6958,6.0811,6.3666,6.5474,6.5474,6.5859,6.582,6.4436,6.0781,5.7439,5.6122,5.5186,5.4522,5.4331,5.7404,5.9971,6.0507,6.075,6.0455,5.9346,5.8934,5.8396,5.755,5.7709,5.7592,5.6972,5.673,5.6478,5.6188,5.5655,5.5375,5.5375,5.5109,5.4919,5.4919,5.4638,5.3796,5.2318,5.1226,5.0276,4.9494,4.8652,4.7635,4.6563,4.5765,4.527,4.4954,4.4954,4.4954,4.4954,4.4954,4.4954,4.4954,4.4954,4.4884,4.4663,0.0,0.0,0.0,0.0,0.0,0.0,0.0,0.0,0.0,0.0,0.0,0.0,0.0,0.0,0.0,0.0,0.0,0.0,3.6076,3.8321,4.2041,4.7937,4.9981,5.1392,5.2292,5.3075,5.3504,5.3504,5.6914,5.8541,5.849,6.1017,6.2134,6.2024,6.1985,6.2015,6.2098,6.1194,5.9039,5.6055,5.4258,5.0625,4.6172,4.5078,4.1601,3.707,3.5312,3.2539,2.9648,2.9609,2.9766,3.0195,3.1211,3.3281,3.6094,4.0312,4.2266,4.5029,5.3789,5.7554,6.0096,6.4748,6.6551,6.7141,6.7,6.5769,6.4306,6.3152,5.9534,5.5994,5.4154,5.1798,5.0133,5.0103,5.0977,5.316,5.7442,5.7379,5.7902,6.055,6.01,5.9242,5.8457,5.8369,5.8011,5.7137,5.7819,5.7973,5.7176,5.706,5.6983,5.6983,5.6126,5.5703,5.5703,5.4857,5.3587,5.1962,5.1125,5.0712,5.0673,4.974,4.8894,4.8048,4.7201,4.6355,4.5594,4.5594,4.5594,4.5594,4.5594,4.5594,4.5594,4.5594,4.54,4.5066,0.0,0.0,0.0,0.0,0.0,0.0,0.0,0.0,0.0,0.0,0.0,0.0,0.0,0.0,0.0,0.0,0.0,0.0,3.05,3.5456,3.9564,4.2388,4.6224,4.8704,4.9562,5.042,5.0852,5.0852,5.2425,5.316,5.3136,5.3858,5.4125,5.4099,5.3432,5.3175,5.3124,5.2299,5.1498,5.0496,4.8202,4.6914,4.5859,4.1797,3.9023,3.707,3.5312,3.293,3.0469,2.9805,3.2148,3.5937,3.9375,4.1758,4.3672,4.5469,4.9248,5.3454,5.6297,6.0553,6.4473,6.5611,6.6974,6.7603,6.5782,6.5051,6.3428,5.8827,5.397,4.9327,4.5438,4.6476,4.8026,4.8307,5.4594,5.9815,6.0849,6.1888,6.2394,6.1979,6.1043,6.019,5.9484,5.9269,5.8858,5.8011,5.8165,5.8473,5.8858,5.7665,5.6983,5.6983,5.6126,5.5703,5.5703,5.4241,5.3318,5.2856,5.1395,5.0712,5.0635,4.9125,4.8317,4.8009,4.6547,4.5825,4.5594,4.5594,4.5594,4.5594,4.5594,4.5594,4.5594,4.5594,4.555,4.5448,0.0,0.0,0.0,0.0,0.0,0.0,0.0,0.0,0.0,0.0,0.0,0.0,0.0,0.0,0.0,0.0,0.0,0.0,0.0,3.1797,3.4676,3.6696,3.9391,4.0907,4.1024,4.2311,4.2645,4.1911,4.472,4.6031,4.6007,4.7193,4.7884,4.8161,4.765,4.7499,4.7536,4.7129,4.6119,0.0,0.0,4.2148,4.0937,3.8437,3.6914,3.6016,3.5039,3.4766,3.5078,3.6445,3.8594,4.1289,4.4844,4.7148,4.9101,5.1875,5.5034,5.8287,6.1197,6.466,6.7401,6.7261,6.7647,6.7106,6.3428,6.1776,5.939,5.3794,4.8884,4.464,4.1655,4.2733,4.44,4.5339,5.1519,5.7214,5.9975,6.1131,6.2159,6.3379,6.2366,6.1449,6.1073,6.0575,6.0055,5.9523,5.9436,5.9435,5.9511,5.828,5.755,5.755,5.6357,5.5357,5.4626,5.3664,5.2818,5.2087,5.1174,5.0712,5.0673,4.9702,4.9048,4.8586,0.0,4.6509,4.6124,4.5748,4.5594,4.5594,4.5594,4.5594,4.5594,4.5594,4.5594,4.5594,0.0,0.0,0.0,0.0,0.0,0.0,0.0,0.0,0.0,0.0,0.0,0.0,0.0,0.0,0.0,0.0,0.0,0.0,0.0,0.0,2.9317,3.1562,3.1808,3.1615,3.0982,3.26,3.2763,3.1352,3.6146,3.8417,3.8322,4.0777,4.2228,4.2777,4.2777,4.2886,4.3053,4.3141,4.1445,3.8756,3.8939,3.7186,3.4607,0.0,3.5349,3.4685,3.4686,3.6914,4.0586,4.5077,4.6484,4.6875,4.9844,5.1914,5.4219,5.8984,6.0469,6.1717,6.6988,6.9036,6.9596,6.9194,6.841,6.6315,6.0747,5.7651,5.434,4.8684,4.4533,4.1552,4.0267,4.0224,4.1047,4.3052,4.6719,5.1572,5.796,5.8896,6.0511,6.4804,6.3798,6.278,6.2802,6.1885,6.1227,6.1056,6.0925,6.0525,5.9704,5.8896,5.8357,5.8127,5.6549,5.4993,5.3561,5.333,5.2502,5.1085,5.0844,5.0767,5.0767,5.0613,5.015,4.9418,4.8531,0.0,4.687,4.6133,4.5748,4.5637,4.5632,4.5624,4.5637,4.5637,4.562,4.5594,0.0,0.0,0.0,0.0,0.0,0.0,0.0,0.0,0.0,0.0,2.4437,2.515,0.0,0.0,0.0,0.0,0.0,0.0,0.0,0.0,0.0,2.8839,2.8449,2.8525,2.9202,2.9549,2.9666,2.955,3.19,3.305,3.3045,3.4173,3.4783,3.4891,3.4891,3.4886,3.4943,3.5054,3.4378,3.3243,3.4068,3.4016,3.3546,3.4439,0.0,0.0,3.461,3.6906,4.0741,4.6335,5.0571,5.4336,5.9062,6.1758,6.3594,6.5937,6.7109,6.8123,7.0423,7.1693,7.1944,7.0368,6.9312,6.6795,5.9629,5.6531,5.2951,4.4961,4.2205,4.0242,3.7155,3.8891,4.2265,4.6729,5.1035,5.5903,6.1959,6.3436,6.448,6.6151,6.4715,6.3676,6.3819,6.2299,6.1277,6.1246,6.1214,6.1018,6.0623,5.9742,5.8665,5.7291,5.6242,5.5624,5.5432,5.4039,5.3281,5.3085,5.168,5.102,5.102,5.0287,4.9865,4.9676,4.8821,0.0,4.708,4.6946,4.6451,4.5789,4.5847,4.5819,4.5775,4.5775,4.5712,4.5594,0.0,0.0,0.0,0.0,0.0,0.0,0.0,2.2181,2.374,2.6016,2.6943,2.7332,2.724,2.6146,2.5411,0.0,0.0,0.0,0.0,0.0,0.0,0.0,2.7273,2.7275,2.7319,2.8402,2.8789,2.8472,0.0,3.1,3.1038,3.1423,3.1615,3.1615,3.1615,3.1615,3.1589,3.171,3.1491,3.1267,3.2654,3.3193,3.3349,0.0,0.0,0.0,3.5258,3.7518,4.1045,4.4789,5.0412,5.6779,6.1937,6.5061,6.7056,6.8476,6.9453,7.0429,7.21,7.3187,7.3301,7.1045,6.9159,6.5487,5.6397,5.2665,4.8846,4.0634,3.8655,3.7875,3.6109,3.8586,4.1838,4.4699,4.9508,5.4518,5.9269,6.185,6.3768,6.5214,6.4611,6.3904,6.3578,6.2308,6.1491,6.14,6.1392,6.1306,6.107,5.9805,5.8333,5.6637,5.6172,5.5753,5.5378,5.4563,5.3751,5.2928,5.2106,5.1522,5.1094,5.0671,5.0476,5.0437,4.9551,0.0,4.7784,4.7383,4.6669,4.5875,4.5896,4.5881,4.5864,4.5864,4.5819,4.5738,0.0,0.0,0.0,0.0,0.0,0.0,0.0,2.3584,2.5212,2.8117,2.9245,2.9554,2.889,2.7247,2.6109,0.0,0.0,0.0,0.0,0.0,0.0,0.0,0.0,0.0,2.5808,0.0,0.0,2.7895,2.9577,0.0,0.0,0.0,0.0,0.0,3.0385,3.0385,3.039,3.0472,3.0593,0.0,0.0,3.325,3.36,0.0,0.0,0.0,0.0,3.7557,4.0233,4.2563,4.8049,5.4716,5.9544,6.3686,6.6979,6.7849,6.9062,7.0664,7.2969,7.4336,7.4492,7.168,6.918,6.4609,5.3818,4.9567,4.5585,3.7563,3.5972,3.5975,3.5921,3.8042,4.0351,4.1909,4.623,5.1053,5.577,5.91,6.1813,6.4023,6.4297,6.3945,6.3086,6.2226,6.1677,6.1568,6.1525,6.1485,6.1295,5.981,5.8298,5.6775,5.6547,5.6057,5.5229,5.5034,5.4269,5.2929,5.2575,5.2068,5.1441,5.1246,5.1168,5.1129,5.0435,0.0,0.0,4.7816,4.6913,4.5955,4.5978,4.5974,4.5955,4.5955,4.5901,4.5905,0.0,0.0,0.0,0.0,0.0,0.0,0.0,2.4384,2.5842,2.9597,3.0133,3.0664,3.2005,3.0087,2.8363,0.0,0.0,0.0,0.0,0.0,0.0,0.0,0.0,0.0,0.0,0.0,0.0,2.7895,2.9577,0.0,0.0,0.0,0.0,0.0,0.0,3.0385,3.0385,3.0402,0.0,0.0,0.0,0.0,0.0,0.0,0.0,0.0,0.0,3.5857,3.6826,4.0894,4.3791,4.6323,5.0024,5.677,6.3316,6.3513,6.5898,6.9336,7.3398,7.5703,7.6133,7.2734,7.0508,6.6055,5.4179,5.0078,4.6367,3.7773,3.6015,3.6016,3.5976,3.6197,3.7669,4.1715,4.3458,4.7162,5.5428,5.8202,6.0625,6.3906,6.4297,6.3945,6.3086,6.2226,6.168,6.1679,6.1679,6.1577,6.1301,6.04,5.9433,5.8493,5.7715,5.6957,5.6263,5.548,5.5044,5.4998,5.3436,5.2616,5.2537,5.1717,5.1366,5.1366,5.1287,0.0,0.0,4.8742,4.7683,4.6087,4.6203,4.6198,4.6082,4.6082,4.5998,4.5918,0.0,0.0,0.0,0.0,0.0,0.0,2.4831,2.5039,2.6387,3.0411,3.0755,3.1137,3.247,3.1739,3.0454,2.8693,0.0,0.0,0.0,0.0,0.0,0.0,0.0,0.0,0.0,0.0,2.795,2.9385,3.0615,0.0,0.0,0.0,0.0,0.0,0.0,3.0885,3.0385,3.0385,0.0,0.0,0.0,0.0,0.0,0.0,0.0,0.0,0.0,0.0,3.5909,3.7673,4.0354,4.2787,4.1692,4.6142,5.3057,5.9524,6.3515,6.7031,7.2383,7.5078,7.582,7.3398,6.8359,6.1914,5.4023,4.8086,4.2695,3.7148,3.6016,3.6016,3.6016,3.5975,3.6516,3.8192,3.9587,4.2241,4.7293,4.9951,5.3433,5.8984,5.9687,6.0547,6.2773,6.2226,6.1719,6.1719,6.1719,6.1638,6.1566,6.0276,5.887,5.7465,5.7113,5.6772,5.6515,5.6163,5.5777,5.5273,5.4062,5.3476,5.3437,5.2031,5.168,5.2148,5.1641,0.0,0.0,4.9101,4.8163,4.6947,4.6484,4.6288,4.6204,4.6204,4.6196,4.614,0.0,0.0,0.0,0.0,0.0,2.2955,2.4966,2.5309,2.671,3.0568,3.1064,3.1518,3.28,3.2949,3.2107,2.9996,2.8272,0.0,0.0,0.0,0.0,0.0,0.0,0.0,0.0,0.0,2.9352,3.0769,3.1891,3.2737,0.0,0.0,3.2737,3.1698,0.0,0.0,0.0,0.0,0.0,0.0,0.0,0.0,0.0,0.0,0.0,0.0,0.0,0.0,0.0,0.0,0.0,3.9542,3.662,3.8546,4.3685,5.2755,5.8358,6.2811,6.8359,7.207,7.3945,7.2226,6.6055,5.8906,5.3242,4.6562,4.0508,3.6758,3.6016,3.6016,3.6016,3.6016,3.5976,3.5923,3.7131,3.9086,4.1937,4.4361,4.7961,5.3633,5.4531,5.6289,6.0312,6.1328,6.1719,6.1719,6.1719,6.1601,6.1328,5.9961,5.8633,5.7422,5.7383,5.7109,5.6601,5.6601,5.6289,5.5664,5.4805,5.4258,5.3945,5.2461,5.1992,5.2266,5.168,0.0,0.0,4.9531,4.8789,4.7891,4.7031,4.668,4.6641,4.6406,4.6289,4.6289,0.0,0.0,0.0,0.0,0.0,0.0,2.4271,2.5151,2.671,2.99,3.0949,3.2025,3.3629,3.3807,3.3239,3.1872,3.0053,0.0,0.0,0.0,0.0,0.0,0.0,0.0,0.0,0.0,3.0808,3.1698,3.3353,3.4167,3.4205,3.4205,3.3314,3.1698,0.0,0.0,0.0,0.0,0.0,0.0,0.0,0.0,0.0,0.0,0.0,0.0,0.0,0.0,0.0,0.0,0.0,0.0,0.0,3.5723,3.6836,4.2184,4.9233,5.6234,6.0624,6.6172,7.0351,6.8672,6.4297,5.8594,5.1797,4.6172,4.1172,3.6875,3.6016,3.6016,3.6016,3.6016,3.6016,3.6016,3.6758,3.8516,4.1914,4.3906,4.6016,4.8672,4.9726,5.1601,5.5039,5.9219,6.1719,6.1719,6.1719,6.1328,6.0469,5.9648,5.918,5.918,5.918,5.8359,5.6601,5.6601,5.6601,5.6562,5.5703,5.4844,5.3984,5.3086,5.2226,5.1406,5.1406,0.0,0.0,5.0195,4.9687,4.8789,4.793,4.7578,4.7461,4.6601,4.6289,4.6289,0.0,0.0,0.0,0.0,0.0,0.0,0.0,2.3511,2.4633,2.8251,2.8472,2.9251,3.1884,3.2798,3.2867,3.1901,3.0761,0.0,0.0,0.0,0.0,0.0,0.0,0.0,0.0,0.0,3.1698,3.2506,3.4237,3.5084,3.5084,3.5084,3.4507,3.3391,3.3391,3.2929,0.0,0.0,0.0,0.0,0.0,0.0,3.55,0.0,0.0,0.0,0.0,0.0,0.0,0.0,0.0,0.0,0.0,0.0,0.0,3.7635,4.3314,5.0133,5.5026,5.8239,6.0039,5.9531,5.4609,4.9297,4.7148,4.2187,3.7656,3.6289,3.6016,3.6016,3.6016,3.6016,3.6171,3.6745,3.6547,3.6937,3.8617,4.1314,4.4797,4.9258,5.5195,5.914,5.9648,6.0898,6.1719,6.1719,6.1719,6.1328,6.0469,6.0156,5.9492,5.8359,5.7734,5.7148,5.6601,5.6601,5.6601,5.6601,5.5703,5.5156,5.4844,5.3359,5.2539,5.2266,0.0,0.0,0.0,5.043,5.0039,4.9687,4.8828,4.8476,4.8398,4.75,4.7187,4.7187,0.0,0.0,0.0,0.0,0.0,0.0,0.0,2.2999,2.4088,2.7322,2.7557,2.8464,3.1249,3.2409,3.2761,3.2117,3.1911,0.0,0.0,0.0,0.0,0.0,0.0,0.0,3.0044,3.1429,3.2545,3.3391,3.4808,3.55,3.55,3.55,3.5045,3.4205,3.4205,3.3743,0.0,0.0,0.0,0.0,0.0,0.0,3.5577,0.0,0.0,0.0,0.0,0.0,0.0,0.0,0.0,0.0,0.0,0.0,0.0,0.0,3.8727,4.332,4.8599,5.1628,5.3318,5.3359,4.8906,4.4414,4.4101,3.9844,3.6016,3.6016,3.6016,3.6016,3.6016,3.6016,3.6171,3.6669,3.6275,3.6588,3.8463,4.0808,4.4173,4.9101,5.5859,5.9883,5.9336,6.0742,6.1719,6.1719,6.1719,6.1445,6.0937,6.0273,5.9453,5.8437,5.7539,5.6914,5.6601,5.6601,5.6601,5.6601,5.5703,5.5117,5.4765,5.3359,5.2539,5.2187,0.0,0.0,0.0,5.0859,5.0664,5.0586,4.9726,4.9375,4.9297,4.8398,4.7891,4.7656,0.0,0.0,0.0,0.0,0.0,0.0,0.0,2.334,2.4607,2.6826,2.7777,2.9065,3.1292,3.2385,3.2845,3.2512,0.0,0.0,0.0,0.0,0.0,0.0,0.0,0.0,3.1698,3.2545,3.3391,3.4205,3.5084,3.5538,3.5577,3.5538,3.5129,3.4494,3.4417,3.4052,0.0,0.0,0.0,0.0,0.0,0.0,0.0,0.0,0.0,0.0,0.0,0.0,0.0,0.0,0.0,0.0,0.0,0.0,0.0,0.0,0.0,0.0,0.0,4.5948,4.9044,4.9179,4.6133,4.293,4.2148,3.8867,0.0,3.6016,3.6016,3.6016,3.6016,3.6016,3.6016,3.6093,3.6055,3.7226,4.0781,4.2383,4.4844,4.9219,5.3281,5.5742,5.5664,5.9296,6.1679,6.1678,6.1678,6.1639,6.1483,5.9999,5.9101,5.8984,5.8203,5.7422,5.6601,5.6601,5.6601,5.6601,5.5781,5.4883,5.3984,5.3164,5.2266,0.0,0.0,0.0,0.0,5.1406,5.1406,5.1328,5.0586,5.0273,5.0195,4.9297,4.8476,4.7891,0.0,0.0,0.0,0.0,0.0,0.0,0.0,0.0,0.0,0.0,2.6152,2.723,2.8785,3.1034,3.2448,0.0,0.0,0.0,0.0,0.0,0.0,0.0,0.0,0.0,3.1698,3.3122,3.3975,3.4205,3.5084,3.5808,3.6385,3.5808,3.6126,3.7224,3.6566,3.6571,0.0,0.0,0.0,0.0,0.0,0.0,0.0,0.0,0.0,0.0,3.6847,3.6593,0.0,0.0,0.0,0.0,0.0,0.0,0.0,0.0,3.5671,3.5953,3.7331,0.0,3.9235,3.9335,3.8555,3.7773,0.0,3.6719,3.6016,3.6016,3.6016,3.6016,3.6016,3.6016,3.621,3.682,3.6403,3.7421,4.1469,4.738,5.2851,5.7187,5.918,5.988,5.9109,6.0551,6.1507,6.1392,6.1383,6.0803,5.9482,5.9014,5.8265,5.7116,5.6842,5.6704,5.6601,5.6601,5.6601,5.6601,5.6406,5.5508,5.3984,5.3789,5.2851,0.0,0.0,0.0,5.1406,5.1406,5.1406,5.1367,5.1172,5.1133,5.1016,5.0195,4.9766,4.9609,0.0,0.0,0.0,0.0,0.0,0.0,0.0,0.0,0.0,0.0,0.0,2.6413,2.809,3.0649,0.0,0.0,0.0,0.0,0.0,0.0,0.0,0.0,0.0,3.2043,3.2953,3.3882,3.4695,3.5475,3.5973,3.6394,3.682,3.6394,3.6711,3.7635,3.7611,3.7657,0.0,0.0,0.0,0.0,3.6015,0.0,0.0,0.0,0.0,0.0,3.7767,3.7327,0.0,3.6348,3.5936,3.5638,0.0,0.0,0.0,0.0,3.5687,3.5743,3.5849,3.6175,3.6498,3.6561,3.6601,3.6601,3.6601,3.6289,3.6016,3.6016,3.5974,3.5969,3.5969,3.5969,3.6078,3.6462,3.7565,3.9998,4.4584,4.9244,5.3738,5.7975,5.8923,5.9655,6.0625,6.1123,6.1369,6.1295,6.1283,6.0705,5.9349,5.8921,5.8135,5.6917,5.6488,5.6391,5.6601,5.6601,5.6601,5.6601,5.5781,5.4922,5.3984,5.3164,5.2305,0.0,0.0,0.0,5.1406,5.1406,5.1406,5.1406,5.1406,5.1406,5.1367,5.0898,5.0508,5.0234,0.0,0.0,0.0,0.0,0.0,0.0,0.0,0.0,0.0,0.0,0.0,0.0,0.0,0.0,0.0,0.0,0.0,0.0,0.0,0.0,0.0,0.0,3.3404,3.3709,3.4487,3.4604,3.5383,3.6784,3.694,3.7056,3.7212,3.7056,3.7024,3.7079,3.8161,3.8178,0.0,0.0,0.0,0.0,3.6055,0.0,0.0,0.0,0.0,0.0,0.0,0.0,0.0,3.7063,3.644,3.5743,3.5743,0.0,0.0,0.0,0.0,0.0,3.6059,3.7124,3.803,3.7265,3.7109,3.7108,3.7108,3.6483,3.5934,3.5934,3.5917,3.5851,3.5851,3.5968,3.6026,3.591,3.9481,4.4006,4.8935,5.0728,5.2848,5.6349,5.6987,5.8195,6.0792,6.1169,6.124,6.1214,6.109,6.0631,5.9789,5.8927,5.8046,5.7214,5.6514,5.6277,5.6557,5.6558,5.6559,5.6561,5.4921,5.4101,5.3945,5.2344,5.1523,5.1406,0.0,0.0,5.1406,5.1406,5.1406,5.1406,5.1406,5.1406,5.1406,5.1406,5.0976,5.0469,0.0,0.0,0.0,0.0,0.0,0.0,0.0,0.0,0.0,0.0,0.0,0.0,0.0,0.0,0.0,0.0,0.0,0.0,0.0,0.0,0.0,3.5487,3.47,3.4358,3.4487,3.5185,3.5648,3.5882,3.6628,3.7364,3.8097,3.7364,3.7055,3.7223,3.8939,3.9179,3.8358,0.0,0.0,0.0,3.6289,0.0,0.0,0.0,0.0,0.0,0.0,0.0,0.0,3.7277,3.6512,3.5851,3.5851,0.0,0.0,0.0,0.0,0.0,3.6874,3.9843,4.1679,3.7305,3.6166,3.6108,3.6108,3.5921,3.5764,3.5764,3.5752,3.5746,3.5746,3.6323,3.6798,3.6721,4.2609,4.8766,5.3252,5.6513,5.8698,5.9338,6.0094,6.0397,5.9971,6.0622,6.1009,6.0899,6.0184,5.9412,5.8613,5.7726,5.6898,5.6157,5.6009,5.6039,5.6251,5.6256,5.634,5.6406,5.5428,5.4592,5.3984,5.2969,5.2109,5.1406,0.0,5.1406,5.1406,5.1406,5.1406,5.1406,5.1406,5.1406,5.1406,5.1406,5.1328,5.1211,0.0,0.0,0.0,0.0,0.0,0.0,0.0,0.0,0.0,0.0,0.0,0.0,0.0,0.0,0.0,0.0,0.0,0.0,0.0,0.0,3.5096,3.5196,3.4324,3.4092,3.4583,3.5414,3.5824,3.5824,3.707,3.7906,3.8291,3.7912,3.7791,3.7894,3.8786,3.8711,3.7851,3.7461,3.7031,0.0,0.0,0.0,0.0,0.0,0.0,0.0,0.0,0.0,0.0,0.0,3.764,3.718,3.6242,0.0,0.0,0.0,0.0,0.0,3.6438,3.7998,3.9366,3.8819,4.0812,4.2532,4.1126,4.0766,4.0164,3.8259,3.7831,3.7513,3.6544,3.8268,4.1197,4.536,4.7656,5.0271,5.4192,5.4911,5.5698,5.7464,5.8072,5.89,6.019,6.0671,6.086,6.0793,5.9973,5.9165,5.8357,5.7473,5.6613,5.5808,5.5769,5.5825,5.5938,5.5938,5.6057,5.6277,5.5471,5.4921,5.4554,5.328,5.2461,5.207,0.0,5.1406,5.1406,5.1406,5.1406,5.1406,5.1406,5.1406,5.1406,5.1406,5.1406,5.1406,0.0,0.0,0.0,0.0,0.0,0.0,0.0,0.0,0.0,0.0,0.0,0.0,0.0,0.0,0.0,0.0,0.0,0.0,0.0,3.4696,3.4425,3.4283,3.3628,3.3727,3.4646,3.5246,3.5652,3.5845,3.7504,3.8408,3.8606,3.8667,3.8456,3.8066,3.8185,3.7727,3.6946,3.6946,3.6555,0.0,0.0,0.0,0.0,0.0,0.0,0.0,0.0,0.0,0.0,0.0,0.0,0.0,0.0,0.0,0.0,3.6127,3.593,3.5965,3.613,3.6744,3.7958,4.0383,4.3411,4.5732,4.5583,4.4916,4.3806,4.2081,4.1519,4.0736,3.87,4.0731,4.4962,5.1944,5.185,5.2127,5.5629,5.4383,5.4071,5.6609,5.6994,5.8027,6.0573,6.0781,6.0781,6.0781,5.9819,5.8934,5.8319,5.728,5.6406,5.5703,5.5703,5.5703,5.5703,5.5728,5.5763,5.5835,5.5104,5.4772,5.4752,5.3354,5.2695,5.2656,5.1992,5.1601,5.1406,5.1406,5.1406,5.1406,5.1406,5.1406,5.1406,5.1406,5.1406,5.1406,0.0,0.0,0.0,0.0,0.0,0.0,0.0,0.0,0.0,0.0,0.0,0.0,0.0,0.0,0.0,0.0,0.0,0.0,0.0,3.405,3.414,3.3334,3.3256,3.3636,3.4576,3.4608,3.4961,3.5694,3.7442,3.8719,3.9525,3.9509,3.8656,3.7092,3.7109,3.6644,3.5824,3.5824,3.5781,3.571,3.5849,0.0,0.0,0.0,0.0,0.0,0.0,0.0,0.0,0.0,0.0,0.0,0.0,0.0,3.5978,3.5764,3.5704,3.5898,3.6716,3.926,4.1611,4.1062,3.8692,3.8438,4.5584,4.4627,4.3272,4.7,4.7144,4.5764,4.3119,4.3473,4.5646,5.0171,5.3358,5.6445,5.9892,6.02,6.0188,6.0396,6.0446,6.0535,6.0781,6.0781,6.0781,6.0781,5.9319,5.8357,5.8319,5.6703,5.5742,5.5703,5.5703,5.5703,5.5703,5.5825,5.5528,5.48,5.4062,5.3771,5.3862,5.3042,5.2695,5.2695,5.2617,5.2148,5.1406,5.1406,5.1406,5.1406,5.1406,5.1406,5.1406,5.1406,5.1406,5.1406,0.0,0.0,0.0,0.0,0.0,0.0,0.0,0.0,0.0,0.0,0.0,0.0,0.0,0.0,0.0,0.0,0.0,0.0,0.0,3.2624,3.2675,3.2385,3.1831,3.1926,3.2849,3.3864,3.4771,3.565,3.7279,3.8825,4.0134,3.8616,3.7836,3.7638,3.6631,3.6307,3.6455,3.5917,3.5995,3.6462,3.5953,0.0,0.0,0.0,0.0,0.0,0.0,0.0,0.0,0.0,3.7453,3.7258,3.6515,3.6395,3.6471,3.5853,3.5687,3.5751,3.6039,3.8622,4.1194,4.0839,4.0128,4.1111,4.756,4.8688,4.8886,5.0558,5.0966,5.0238,4.7632,4.9483,5.1963,5.3718,5.6752,5.9319,6.0627,6.0781,6.0781,6.0781,6.0781,6.0781,6.0781,6.0781,6.0589,6.0012,5.8934,5.805,5.7511,5.6357,5.5703,5.5703,5.5703,5.5703,5.5703,5.573,5.5355,5.4602,5.4569,5.4837,5.534,5.3511,5.3008,5.3437,5.2344,5.1719,5.1406,5.1406,5.1406,5.1406,5.1406,5.1406,5.1406,5.1406,5.1406,5.1406,0.0,0.0,0.0,0.0,0.0,0.0,0.0,0.0,0.0,0.0,0.0,0.0,0.0,0.0,0.0,0.0,0.0,0.0,3.1328,3.1854,3.2048,3.186,3.1477,3.1656,3.2545,3.3666,3.4555,3.5156,3.7063,3.8738,4.0092,3.844,3.7796,3.8034,3.6934,3.6779,3.7279,3.6391,3.6357,3.6861,3.628,3.5908,0.0,0.0,0.0,0.0,0.0,0.0,0.0,0.0,3.7168,3.7288,3.6382,3.6305,3.6456,3.5832,3.5624,3.5645,3.5588,3.7293,3.927,4.006,4.1026,4.3357,4.9348,5.1355,5.2645,5.5083,5.482,5.358,5.1834,5.361,5.5468,5.5852,5.8652,6.0781,6.0781,6.0781,6.0781,6.0781,6.0781,6.0781,6.0781,6.055,6.0127,5.955,5.8511,5.7627,5.7022,5.6165,5.5703,5.5703,5.5703,5.5703,5.5703,5.5758,5.549,5.495,5.473,5.5064,5.589,5.4197,5.3669,5.3945,5.2734,5.1914,5.1406,5.1406,5.1406,5.1406,5.1406,5.1406,5.1406,5.1406,5.1406,5.1406,0.0,0.0,0.0,0.0,0.0,0.0,0.0,0.0,0.0,0.0,0.0,0.0,0.0,0.0,0.0,0.0,0.0,0.0,3.0423,3.1968,3.2545,3.1737,3.2474,3.3282,3.4173,3.4205,3.4205,3.4244,3.6776,3.843,3.9284,3.9284,3.8815,3.8007,3.8007,3.8007,3.793,3.7084,3.6692,3.6713,3.6841,3.6361,3.5702,0.0,0.0,0.0,0.0,0.0,0.0,0.0,3.6299,3.5746,3.6614,3.6299,3.5599,3.5515,3.55,3.55,3.55,3.5538,3.6192,3.87,4.0623,4.3697,5.0657,5.1725,5.3381,6.0939,5.8889,5.5742,5.5703,5.5088,5.4818,5.5588,5.855,6.0781,6.0781,6.0781,6.0781,6.0781,6.0781,6.0781,6.0781,6.0012,5.9511,5.9473,5.7934,5.6983,5.6983,5.6175,5.5703,5.5703,5.5703,5.5703,5.5703,5.5805,5.5877,5.5877,5.4322,5.4051,5.4923,5.5025,5.4664,5.3984,5.3984,5.3008,5.1406,5.1406,5.1406,5.1406,5.1406,5.1406,5.1406,5.1406,5.1406,5.1406,0.0,0.0,0.0,0.0,0.0,0.0,0.0,0.0,0.0,0.0,0.0,0.0,0.0,0.0,0.0,0.0,0.0,0.0,2.9511,3.0567,3.1395,3.1758,3.2025,3.261,3.3472,3.3998,3.5127,3.6853,3.7007,3.7853,3.9284,3.8046,3.7315,3.7123,3.7738,3.7661,3.7084,3.6808,3.6692,3.6661,3.6138,3.5772,3.5541,0.0,0.0,0.0,0.0,0.0,0.0,0.0,0.0,0.0,3.5817,3.6126,3.626,3.5668,3.5885,3.6231,3.5654,3.8115,4.0893,4.1008,4.4586,4.9246,5.3824,5.4614,5.6007,6.1842,6.1522,5.9484,5.706,5.7857,5.8204,5.6049,5.855,6.0781,6.0781,6.0781,6.0781,6.0781,6.0781,6.0781,6.0781,6.0012,5.9281,5.8704,5.7627,5.6714,5.6126,5.5818,5.5703,5.5703,5.5703,5.5434,5.4857,5.4901,5.4593,5.4015,5.4167,5.4793,5.573,5.3351,5.2801,5.3653,5.2537,5.1713,5.1197,5.1249,5.1319,5.1406,5.1406,5.1406,5.1406,5.1406,5.1406,5.1406,0.0,0.0,0.0,0.0,0.0,0.0,0.0,0.0,0.0,0.0,0.0,0.0,0.0,0.0,0.0,0.0,0.0,0.0,0.0,3.052,3.1435,3.2303,3.2743,3.3336,3.4159,3.4942,3.6024,3.7469,3.6962,3.743,3.8777,3.8392,3.8046,3.7815,3.9354,3.9161,3.7738,3.7738,3.7546,3.7161,3.6692,3.6269,3.6,0.0,0.0,0.0,0.0,0.0,0.0,0.0,0.0,0.0,3.55,3.5846,3.6192,3.6038,3.6077,3.6462,3.7692,4.0008,4.2585,4.4778,4.8779,5.3368,5.7892,5.9118,6.0264,6.3698,6.3415,6.1935,5.9858,6.0204,6.0127,5.805,5.9473,6.0781,6.0781,6.0781,6.0781,6.0781,6.0781,6.0666,6.0319,5.9511,5.8665,5.7857,5.6973,5.6252,5.5742,5.5703,5.5703,5.5703,5.5703,5.5472,5.4972,5.4664,5.4241,5.3703,5.3549,5.4023,5.4946,5.3308,5.2714,5.3006,5.1713,5.1144,5.1129,5.1185,5.1271,5.1406,5.1406,5.1406,5.1406,5.1406,5.1406,5.1406,0.0,0.0,0.0,0.0,0.0,0.0,0.0,0.0,0.0,0.0,2.8304,0.0,0.0,0.0,0.0,0.0,0.0,0.0,0.0,3.1228,3.2136,3.3164,3.4137,3.5022,3.5844,3.6459,3.6775,3.672,3.6622,3.7084,3.8046,3.9631,4.0015,3.94,4.1816,4.147,3.9169,3.9092,3.8546,3.7777,3.7777,3.7315,3.6692,3.7469,0.0,0.0,0.0,0.0,0.0,0.0,0.0,0.0,3.55,3.5538,3.5731,3.6385,3.6269,3.6808,4.0731,4.1508,4.2786,4.9481,5.3318,5.6819,6.2204,6.4183,6.5093,6.58,6.4558,6.3308,6.3308,6.1935,6.0781,6.0781,6.0781,6.0781,6.0781,6.0781,6.0781,6.0781,6.0742,6.0358,5.9588,5.8704,5.7857,5.706,5.6214,5.5703,5.5703,5.5703,5.5703,5.5703,5.5626,5.5549,5.5472,5.4664,5.4241,5.4126,5.2615,5.2269,5.302,5.392,5.3532,5.2129,5.1375,5.1096,5.1194,5.1185,5.126,5.1366,5.1366,5.1366,5.1367,5.1367,5.1406,5.1406,0.0,0.0,0.0,0.0,0.0,0.0,0.0,0.0,0.0,0.0,0.0,0.0,0.0,0.0,0.0,0.0,0.0,0.0,0.0,3.0376,3.166,3.32,3.4757,3.6279,3.77,3.6493,3.6195,3.6853,3.6113,3.6538,3.8007,3.9092,3.9477,3.9361,4.0516,4.0008,3.8238,3.7546,3.6769,3.6038,3.6038,3.5923,3.5769,3.5962,3.5808,0.0,0.0,0.0,0.0,0.0,0.0,0.0,3.55,3.5923,3.6346,3.5885,3.7507,3.9777,4.1354,4.4085,4.7778,5.3241,5.855,6.2743,6.4012,6.5023,6.5534,6.5045,6.4061,6.3308,6.3308,6.1935,6.0781,6.0781,6.0781,6.0781,6.0781,6.0781,6.0781,6.0781,6.0204,5.9704,5.9511,5.8165,5.7214,5.7022,5.6214,5.5703,5.5703,5.5703,5.5703,5.5703,5.5088,5.4434,5.3741,5.2895,5.2125,0.0,5.1779,5.1664,5.125,5.1462,5.1421,5.1178,5.0905,5.0918,5.1126,5.102,5.1058,5.1168,5.1168,5.1213,5.1221,5.1221,5.1318,5.1406,0.0,0.0,0.0,0.0,0.0,0.0,0.0,0.0,0.0,0.0,0.0,0.0,0.0,0.0,0.0,0.0,0.0,0.0,0.0,0.0,3.1644,3.3835,3.5529,3.6605,3.7001,3.6479,3.6223,3.6214,3.574,3.6346,3.8007,3.8892,3.9515,3.99,4.0739,3.9969,3.7969,3.7507,3.6846,3.6077,3.6077,3.6077,3.6077,3.6077,3.5846,3.55,3.55,0.0,0.0,0.0,0.0,0.0,0.0,0.0,3.6115,3.6077,3.7315,3.9508,4.3239,4.6124,4.9817,5.6973,6.1396,6.4205,6.5013,6.5551,6.5628,6.4782,6.4243,6.3782,6.3397,6.2281,6.1293,6.0858,6.0781,6.0781,6.0781,6.0781,6.0781,6.0781,6.0012,5.9358,5.8973,5.7742,5.683,5.6406,5.5972,5.5703,5.5703,5.5703,5.5703,5.5703,5.4934,5.428,5.3818,5.2538,5.1895,5.1895,5.151,5.1125,5.0712,5.0712,5.074,5.0808,5.073,5.0833,5.0984,5.0932,5.0998,5.1089,5.1089,5.1125,5.1204,5.1204,5.1273,5.1406,0.0,0.0,0.0,0.0,0.0,0.0,0.0,0.0,0.0,0.0,0.0,0.0,0.0,0.0,0.0,0.0,0.0,0.0,0.0,0.0,0.0,3.4675,3.606,3.6509,3.6019,3.6455,3.6354,3.5692,3.5577,3.6423,3.8238,3.8969,3.9823,4.0746,4.1162,4.02,3.82,3.7777,3.7161,3.65,3.65,3.65,3.65,3.65,3.6077,3.55,3.55,3.55,3.55,3.55,0.0,0.0,0.0,0.0,3.5615,3.6308,3.6808,3.8469,4.4385,4.7702,5.1433,5.9985,6.2704,6.3782,6.5513,6.5667,6.5282,6.4705,6.4474,6.4128,6.3243,6.2435,6.1639,6.0935,6.0781,6.0781,6.0781,6.0781,6.0781,6.0781,5.9896,5.905,5.8357,5.7396,5.6483,5.5742,5.5703,5.5703,5.5703,5.5703,5.5626,5.5511,5.4703,5.4203,5.4049,5.2472,5.2049,5.2741,5.151,5.0894,5.0894,5.0894,5.0827,5.0712,5.0712,5.0747,5.0875,5.0875,5.0932,5.102,5.102,5.1069,5.1164,5.1164,5.1254,5.1366,0.0,0.0,0.0,0.0,0.0,0.0,0.0,0.0,0.0,0.0,2.4889,2.5423,0.0,0.0,0.0,0.0,0.0,0.0,0.0,0.0,0.0,3.5496,3.5715,3.6361,3.7665,3.6388,3.5951,3.6538,3.5846,3.6738,3.913,3.9246,4.0123,4.1585,4.0239,3.9438,3.8977,3.6776,3.5769,3.5654,3.5654,3.5654,3.5654,3.5654,3.5577,3.55,3.55,3.55,3.55,3.55,3.55,0.0,0.0,0.0,3.5538,3.5615,3.7238,3.9469,4.1854,4.8432,5.5857,6.087,6.2704,6.3782,6.5513,6.4743,6.382,6.4474,6.4012,6.3243,6.2397,6.1562,6.0935,6.0819,6.0781,6.0781,6.0781,6.0781,6.0781,6.0781,5.9435,5.8434,5.8319,5.6819,5.5818,5.5703,5.5703,5.5703,5.5703,5.5703,5.5395,5.4664,5.3818,5.301,5.2231,5.1318,5.0943,5.1058,5.151,5.1731,5.1731,5.1731,5.1356,5.0712,5.0712,5.0731,5.0721,5.0721,5.074,5.0767,5.0767,5.0827,5.0927,5.0927,5.1069,5.1215,0.0,0.0,0.0,0.0,0.0,0.0,0.0,0.0,0.0,0.0,0.0,2.462,0.0,0.0,0.0,0.0,0.0,0.0,0.0,0.0,0.0,3.4857,3.5311,3.5888,3.6584,3.5885,3.5654,3.6038,3.5654,3.6538,3.8584,3.9092,4.0431,4.2431,4.0277,3.9284,3.913,3.6577,3.55,3.55,3.55,3.6077,3.6815,3.5846,3.6077,3.6776,3.5846,3.55,3.55,3.55,3.55,3.55,3.55,0.0,0.0,0.0,3.6615,3.8931,4.397,4.9356,5.4818,6.005,6.1627,6.2358,6.4051,6.3858,6.3281,6.3205,6.2897,6.2512,6.2178,6.1408,6.0781,6.0781,6.0781,6.0781,6.0781,6.0781,6.0781,6.0781,5.9319,5.8319,5.8319,5.6703,5.5703,5.5703,5.5703,5.5511,5.5049,5.5011,5.4626,5.3818,5.2933,5.2269,5.1885,5.1087,5.0933,5.1395,5.1731,5.1885,5.1885,5.1433,5.1279,5.1356,5.0894,5.0712,5.0712,5.0712,5.0712,5.0712,5.0712,5.0782,5.0889,5.0889,5.1025,5.1204,0.0,0.0,0.0,0.0,0.0,0.0,0.0,0.0,0.0,0.0,0.0,0.0,0.0,0.0,0.0,0.0,0.0,0.0,0.0,0.0,0.0,3.3621,3.4634,3.5269,3.55,3.55,3.55,3.55,3.5509,3.6498,3.8355,3.9003,4.0692,4.3042,4.0877,3.9815,3.9438,3.7123,3.6154,3.6154,3.6154,3.6892,3.7853,3.6615,3.693,3.7777,3.6115,3.55,3.55,3.55,3.55,3.55,3.55,3.55,0.0,0.0,0.0,3.7846,4.4393,4.7894,5.1164,5.7319,5.9204,6.0127,6.2474,6.282,6.2551,6.2178,6.1908,6.1793,6.1793,6.1243,6.0781,6.0781,6.0781,6.0781,6.0781,6.0781,6.0704,6.0512,5.9204,5.8204,5.7973,5.6588,5.5703,5.5703,5.5703,5.5357,5.4549,5.4511,5.401,5.2895,5.2231,5.1808,5.1587,5.101,5.101,5.1587,5.1808,5.1885,5.1885,5.1279,5.1318,5.1846,5.1048,5.0712,5.0712,5.0712,5.0712,5.0712,5.0712,5.0747,5.0851,5.0851,5.1008,5.1174,0.0,0.0,0.0,0.0,0.0,0.0,0.0,0.0,0.0,0.0,0.0,0.0,2.5154,2.4548,2.3744,2.2893,2.3674,2.4977,2.6836,2.9274,3.103,3.1873,3.3439,0.0,3.5462,3.55,3.55,3.55,3.5548,3.6859,3.9348,3.9358,4.0745,4.315,4.2133,4.12,4.0323,3.8584,3.7853,3.7853,3.7853,3.793,3.8007,3.7892,3.793,3.7777,3.6115,3.55,3.55,3.55,3.55,3.55,3.55,3.55,3.55,0.0,0.0,0.0,3.9938,4.22,4.5163,5.1895,5.478,5.7049,6.1216,6.1512,6.1127,6.1947,6.1435,6.0858,6.0858,6.0819,6.0781,6.0781,6.0781,6.0781,6.0781,6.0781,6.0473,5.9665,5.8819,5.7973,5.7137,5.6252,5.5703,5.5703,5.5703,5.5357,5.4549,5.4511,5.3703,5.2,5.1923,5.1548,5.0789,5.0712,5.0712,5.0789,5.1548,5.1885,5.1885,5.1846,5.1846,5.1846,5.1048,5.0712,5.0712,5.0712,5.0712,5.0712,5.0712,5.0721,5.0731,5.0731,5.0898,5.1103,0.0,0.0,0.0,0.0,0.0,0.0,0.0,0.0,0.0,0.0,0.0,0.0,0.0,2.3788,2.3355,2.3624,2.5944,2.7912,2.9097,3.1538,3.3063,3.3329,3.4424,3.5192,3.55,3.55,3.55,3.55,3.5528,3.6254,3.7688,3.8799,3.9841,4.0689,4.0354,4.0315,4.0323,3.7546,3.6692,3.7199,3.7777,3.8623,3.9477,3.8392,3.9354,4.0893,3.8123,3.7084,3.7084,3.7084,3.6385,3.55,3.55,3.55,3.55,3.55,3.55,3.6231,3.9592,4.0977,4.2777,4.8509,5.1625,5.3972,5.6626,5.8665,6.005,6.0358,6.0627,6.0781,6.0781,6.0781,6.0781,6.0781,6.0781,6.0781,6.0781,6.0781,6.0473,5.9588,5.8781,5.7973,5.7099,5.6214,5.5703,5.5703,5.5703,5.5088,5.3741,5.3664,5.2895,5.1164,5.1125,5.0971,5.0712,5.0712,5.0971,5.1471,5.1241,5.1395,5.1885,5.1356,5.1125,5.1125,5.0827,5.0712,5.0712,5.0712,5.0712,5.0712,5.0712,5.101,5.1471,5.1471,5.1597,5.1735,0.0,0.0,0.0,0.0,0.0,0.0,0.0,0.0,0.0,2.2539,0.0,0.0,0.0,0.0,2.4432,2.5317,2.7441,2.9105,2.9979,3.2143,3.3533,3.3744,3.4584,3.5192,3.55,3.55,3.55,3.55,3.5522,3.5978,3.6794,3.7944,3.8645,3.8915,3.8582,3.92,4.0362,3.8123,3.7161,3.7276,3.87,4.0123,4.1247,4.0123,4.1277,4.3085,3.9969,3.8661,3.8469,3.8738,3.8084,3.7084,3.65,3.5962,3.55,3.55,3.55,3.6,3.8238,3.9008,4.0431,4.5547,4.7894,5.001,5.3972,5.6203,5.778,5.9204,5.9973,6.0435,6.0742,6.0781,6.0781,6.0781,6.0781,6.0781,6.0781,6.0781,6.0358,5.9242,5.8627,5.7857,5.6676,5.6049,5.5703,5.5703,5.5703,0.0,5.328,5.3203,5.2433,5.075,5.0712,5.0712,5.0712,5.0712,5.0971,5.151,5.0971,5.0971,5.1471,5.0933,5.0712,5.0712,5.0712,5.0712,5.0712,5.0712,5.0856,5.1087,5.1087,5.1625,5.2308,5.2,5.2162,5.253,0.0,0.0,0.0,0.0,0.0,0.0,0.0,0.0,2.341,2.4261,0.0,0.0,0.0,0.0,0.0,2.7818,2.7934,2.8319,2.9165,3.0814,3.2122,3.2929,3.3782,3.4622,3.5462,3.55,3.55,3.55,3.5548,3.6017,3.6846,3.6864,3.7367,3.8114,3.7166,3.8084,4.0362,4.0362,3.9438,3.8238,4.0777,4.2316,4.3124,4.3162,4.3701,4.4124,4.1593,4.0208,3.9669,4.0439,4.0593,4.0208,3.8469,3.6815,3.55,3.55,3.55,3.55,0.0,0.0,0.0,4.2816,4.3547,4.5163,5.3395,5.4126,5.4203,5.8396,5.9319,5.9627,6.0589,6.0781,6.0781,6.0781,6.0781,6.0781,6.0781,6.0781,6.0165,5.8511,5.8319,5.7627,5.5857,5.5703,5.5703,5.5703,5.5665,5.4934,5.328,5.3164,5.2395,5.075,5.0712,5.0712,5.0712,5.0712,5.0712,5.0712,5.0712,5.0712,5.0712,5.0712,5.0712,5.0712,5.0712,5.0712,5.0712,5.0712,5.1164,5.1885,5.1885,5.2462,5.3126,5.2269,5.2587,5.3313,0.0,0.0,0.0,0.0,0.0,0.0,2.6598,2.6129,2.5937,0.0,0.0,0.0,2.6332,2.6524,2.6967,2.7818,2.9006,3.0314,3.1737,3.2891,3.3891,3.4731,3.5,3.5231,3.55,3.55,3.55,3.55,3.5515,3.5657,3.5894,3.6466,3.689,3.7121,3.749,3.7353,3.6892,3.6892,3.7315,3.8238,4.0777,4.2316,4.3239,4.4432,4.6201,4.774,4.5817,4.5355,4.5624,4.524,4.3085,4.0015,3.7084,3.5885,3.55,3.55,3.55,3.55,3.55,0.0,0.0,0.0,0.0,0.0,4.497,4.7201,4.9654,5.3269,5.5011,5.6703,5.9358,6.0358,6.0781,6.0781,6.0781,6.0781,6.0781,6.0781,6.0165,5.8511,5.8319,5.7627,5.5857,5.5703,5.5703,0.0,5.5164,5.4357,5.328,5.2049,5.1164,5.0712,5.0712,5.0712,5.0712,5.0712,5.0712,5.0712,5.0712,5.0712,5.0712,5.0712,5.0712,5.0712,5.0712,5.0712,5.0712,5.0712,5.1164,5.1885,5.1885,5.2818,5.4126,5.3857,5.3936,5.4179,0.0,0.0,0.0,0.0,0.0,2.8831,2.8022,2.7903,2.7796,0.0,0.0,0.0,2.8223,2.8559,2.9198,3.0435,3.1083,3.2006,3.3353,3.3583,3.3891,3.4385,3.4423,3.4584,3.4968,3.4968,3.5154,3.55,3.55,3.55,3.55,3.5962,3.6192,3.6231,3.6731,3.6423,3.5462,3.5122,3.5507,3.6738,4.0354,4.2739,4.4355,4.6394,4.8548,5.0279,4.8971,4.8779,4.9125,4.8625,4.5393,4.1123,3.843,3.6565,3.5361,3.5479,3.5405,3.5361,3.5479,3.55,3.5885,3.7392,0.0,0.0,4.3077,4.4662,4.6586,5.1,5.301,5.4664,5.6973,5.8396,5.9204,5.9204,5.9511,6.0012,6.0704,6.0473,5.9781,5.8473,5.7973,5.7203,5.5818,5.5703,5.5703,5.5703,5.528,5.4472,5.328,5.1625,5.0712,5.0712,5.0712,5.0712,5.0712,5.0712,5.0712,5.0712,5.0712,5.0712,5.0712,5.0712,5.0712,5.0712,5.0712,5.0712,5.0712,5.0712,5.1164,5.1885,5.1885,5.2731,5.3972,5.3972,5.4203,5.4493,0.0,0.0,3.0819,3.0824,3.0917,3.0697,2.9855,2.981,2.9613,0.0,2.8799,2.9327,3.0648,3.1347,3.2362,3.393,3.3192,3.3025,3.3975,3.3237,3.2814,3.2891,3.3006,3.3353,3.4052,3.4167,3.4584,3.5346,3.5346,3.5423,3.55,3.55,3.55,3.55,3.55,3.5462,3.5308,3.443,3.4205,3.4891,3.9931,4.3393,4.5902,4.874,5.0818,5.2077,5.1395,5.1174,5.1174,5.0712,4.7471,4.3278,4.1054,3.8276,3.581,3.5544,3.5423,3.5386,3.54,3.5398,3.5943,3.8216,3.7133,0.0,4.4016,4.388,4.3897,4.9433,5.1298,5.2279,5.3433,5.5011,5.6137,5.6022,5.7049,5.8511,6.0281,5.9858,5.9088,5.8242,5.7473,5.6676,5.578,5.5703,5.5703,5.5703,5.5511,5.4703,5.301,5.151,5.075,5.0827,5.0827,5.0827,5.0827,5.0827,5.0789,5.0712,5.0712,5.0712,5.0712,5.0712,5.0712,5.0712,5.0712,5.0712,5.0712,5.0712,5.1164,5.1885,5.1885,5.25,5.3356,5.3356,5.3895,5.4626,0.0,3.1184,3.1612,3.1643,3.2666,3.3203,3.2416,3.289,3.3309,3.3199,3.3207,3.3086,3.273,3.2189,3.226,3.3214,3.1879,3.1592,3.3051,3.2391,3.2237,3.2852,3.3583,3.3705,3.316,3.3859,3.4282,3.443,3.443,3.4814,3.55,3.55,3.55,3.55,3.55,3.5122,3.4391,3.3506,3.4353,3.6584,4.1046,4.3932,4.6095,5.0702,5.3087,5.3972,5.3818,5.4164,5.4203,5.0779,4.8548,4.624,4.1123,3.9984,3.9775,3.6225,3.6082,3.6793,3.5258,3.486,3.4984,3.5486,3.5694,0.0,3.6899,3.7347,3.8544,4.1762,4.328,4.4923,4.7855,4.974,5.0664,4.9933,5.2895,5.6088,5.8434,5.8627,5.8204,5.7368,5.7099,5.6676,5.578,5.5703,5.5703,5.5703,5.4434,5.2972,5.1279,5.0866,5.101,5.1664,5.1654,5.1654,5.1654,5.1654,5.1356,5.0712,5.0712,5.0712,5.0712,5.0712,5.0712,5.0712,5.0712,5.0712,5.0712,5.0712,5.1164,5.1885,5.1885,5.2856,5.4241,5.4241,5.4741,5.5472,3.0697,3.1557,3.2425,3.2438,3.3766,3.4725,3.4293,3.4961,3.5371,3.5013,3.5023,3.4874,3.4491,3.406,3.3958,3.4342,3.358,3.3035,3.3035,3.2617,3.2182,3.1782,3.2174,3.26,3.3035,3.3423,3.4046,3.4907,3.486,3.5084,3.55,3.55,3.5269,3.4853,3.5308,3.5007,3.4167,3.3744,3.5276,3.8277,4.1239,4.4239,4.7355,5.2049,5.4357,5.5088,5.5088,5.5357,5.5164,5.1779,4.9393,4.7231,4.359,4.1801,4.0599,3.8261,3.7659,3.7305,3.5279,3.4713,3.4788,3.5193,3.5306,0.0,0.0,3.6639,3.7395,3.9633,4.0901,4.2159,4.4021,4.574,4.6855,4.6855,4.9702,5.2125,5.2549,5.5511,5.7473,5.706,5.6637,5.6175,5.5742,5.5703,5.5511,5.5126,5.3933,5.2626,5.1356,5.0933,5.0894,5.1279,5.1318,5.151,5.1885,5.1885,5.1692,5.1318,5.1318,5.1087,5.0712,5.0712,5.0712,5.0712,5.0712,5.0712,5.0712,5.0712,5.0933,5.1356,5.1731,5.2692,5.3895,5.4357,5.4741,5.5164,3.0673,3.1845,3.2986,3.3011,3.464,3.5923,3.5769,3.6577,3.6923,3.6077,3.6341,3.6471,3.6239,3.6635,3.7136,3.7673,3.7198,3.6444,3.5506,3.4412,3.2994,3.117,3.1248,3.1831,3.2924,3.3167,3.3955,3.5359,3.5284,3.5346,3.55,3.55,3.5115,3.4507,3.5507,3.5507,3.4661,3.4661,3.6738,4.0162,4.1508,4.447,4.8548,5.2664,5.4664,5.5203,5.5203,5.5318,5.5049,5.2267,4.9893,4.7701,4.5419,4.3266,4.1295,3.9862,3.9183,3.8273,3.5728,3.4996,3.5108,3.5623,3.536,3.5446,0.0,0.0,0.0,3.8677,3.9565,4.0206,4.0449,4.172,4.2966,4.3547,4.6047,4.7394,4.5893,5.0933,5.4867,5.506,5.4857,5.4741,5.4741,5.4587,5.4357,5.401,5.2895,5.2049,5.1692,5.1048,5.0789,5.0933,5.0933,5.1241,5.1885,5.1885,5.1808,5.1654,5.1654,5.1318,5.0712,5.0712,5.0712,5.0712,5.0712,5.0712,5.0712,5.0712,5.0789,5.101,5.1654,5.2423,5.3318,5.4164,5.4587,5.4818,3.0673,3.1813,3.292,3.2996,3.5605,3.7469,3.6692,3.7969,3.87,3.7815,3.911,3.9578,3.8153,4.0015,4.2366,4.4781,4.2771,4.1989,4.3389,3.9189,3.5512,3.3014,3.3631,3.3436,3.2071,3.3447,3.4236,3.4429,3.4364,3.4737,3.55,3.55,3.5462,3.5423,3.7007,3.7238,3.6423,3.6423,3.8854,4.2662,4.2893,4.5009,4.8471,5.201,5.3395,5.3472,5.3472,5.3972,5.4056,5.0446,4.9541,4.89,4.3229,4.363,4.502,3.8889,3.9544,4.1347,3.7216,3.6136,3.5938,3.5275,3.5607,3.5805,3.4602,0.0,3.5539,3.4988,0.0,3.5533,3.581,0.0,0.0,3.6709,4.0038,4.2316,4.1362,4.4517,4.7163,4.7971,4.9933,5.1289,5.1289,5.0548,5.0702,5.2077,5.001,4.9317,5.0741,5.075,5.101,5.1731,5.1769,5.1808,5.1885,5.1885,5.1548,5.0827,5.0827,5.0789,5.0712,5.0712,5.0712,5.0712,5.0712,5.0712,5.0712,5.0712,5.1125,5.1769,5.1846,5.2423,5.3318,5.4164,5.4934,5.5588,3.0557,3.2318,3.3829,3.3756,3.579,3.7605,3.8188,3.9754,4.0752,4.0365,4.0952,4.1158,4.0571,4.108,4.2763,4.5974,4.5113,4.4563,4.4906,4.1913,3.8978,3.6427,3.472,3.4153,3.4978,3.4524,3.4536,3.5049,3.4975,3.5154,3.55,3.55,3.5231,3.4853,3.7046,3.7507,3.6731,3.7238,3.9623,4.3085,4.3085,4.5124,4.8471,5.1895,5.3203,5.3203,5.3203,5.3433,5.3346,5.0794,4.9263,4.8175,4.6975,4.5193,4.3178,4.1217,4.0555,3.9704,3.6419,3.6927,3.7955,3.6193,3.6743,3.7147,3.4968,0.0,3.445,3.4227,0.0,0.0,0.0,0.0,0.0,0.0,3.8439,3.9854,3.8507,4.1239,4.4085,4.5932,4.7095,0.0,4.9086,4.9317,4.9702,5.0394,4.9009,4.8625,4.9894,5.0442,5.0856,5.1202,5.1202,5.1433,5.1885,5.1885,5.1731,5.1395,5.1395,5.1164,5.0712,5.0712,5.0712,5.0712,5.0712,5.0712,5.0712,5.0712,5.0894,5.1241,5.1731,5.2741,5.401,5.4357,5.5011,5.5703,3.0563,3.2308,3.3824,3.3977,3.5473,3.7284,3.9151,4.0527,4.1491,4.1962,4.2183,4.2431,4.2832,4.4241,4.6442,4.957,5.035,5.0076,4.8633,4.5774,4.288,4.0117,3.682,3.5937,3.7856,3.6215,3.5421,3.5591,3.5547,3.5615,3.5808,3.5615,3.5269,3.4968,3.7315,3.8123,3.7815,3.8931,4.1354,4.4432,4.4239,4.5405,4.7684,5.0913,5.2164,5.2125,5.1895,5.2125,5.2192,5.022,4.8525,0.0,4.8668,4.6291,4.3147,4.3668,4.2561,4.0545,3.763,3.8501,3.9606,3.6964,0.0,0.0,0.0,0.0,0.0,0.0,3.4612,0.0,0.0,0.0,3.5807,3.6221,0.0,3.8084,3.6577,3.8454,4.0759,4.2931,4.3786,4.4778,0.0,4.6547,4.7124,4.8279,4.7124,4.7163,4.8933,4.9856,5.0327,5.0327,5.0596,5.0971,5.1587,5.1587,5.1587,5.1587,5.1587,5.1279,5.0712,5.0712,5.0712,5.0712,5.0712,5.0712,5.0712,5.0712,5.0827,5.1087,5.1654,5.2972,5.4511,5.4511,5.5011,5.5703,3.0663,3.1408,3.225,3.307,3.4623,3.6604,3.921,3.9638,4.0264,4.1871,4.284,4.3739,4.4682,5.1331,5.6549,5.8593,6.092,6.0915,5.7695,5.1953,4.7148,4.3672,4.0956,3.9527,3.9616,3.8555,3.7207,3.5591,3.5547,3.5885,3.6654,3.5846,3.5885,3.6692,3.8469,3.9669,4.0477,4.22,4.4855,4.7855,4.7077,4.6225,4.5676,4.8452,4.951,4.9394,4.8586,0.0,0.0,4.7493,4.7051,0.0,0.0,0.0,0.0,0.0,0.0,0.0,0.0,0.0,0.0,3.711,0.0,0.0,0.0,0.0,3.4968,0.0,0.0,0.0,3.6582,3.685,3.6883,3.6396,3.6557,0.0,0.0,3.5415,3.575,3.6863,3.9161,4.1008,0.0,4.0546,4.1324,0.0,4.3393,0.0,4.7932,4.8971,4.9433,4.9433,5.025,5.0712,5.075,5.075,5.075,5.075,5.075,5.0712,5.0712,5.0712,5.0712,5.0712,5.0712,5.0712,5.0712,5.0712,5.1164,5.1846,5.1885,5.2972,5.4511,5.4511,5.5011,5.5703,3.1571,3.2285,3.279,3.2444,3.3872,3.5919,3.8535,4.0342,4.3245,4.8371,4.973,5.2115,5.7072,5.9363,6.18,6.4883,6.4334,6.2575,5.9726,5.5,5.1211,4.8906,4.2928,4.0955,4.3821,4.0045,3.7751,3.7173,3.6573,3.6731,3.7546,3.6154,3.5923,3.6731,3.793,3.9546,4.1393,4.2008,4.4201,4.7115,4.5163,4.5045,4.6014,0.0,4.5812,4.6014,4.7549,4.8471,0.0,4.85,4.7688,4.7062,4.8269,4.7053,4.5205,4.5738,4.5824,0.0,0.0,0.0,4.5619,4.1017,0.0,0.0,0.0,0.0,0.0,0.0,0.0,0.0,0.0,3.6656,3.6639,3.6106,3.6112,3.5968,0.0,3.4999,3.5049,3.5589,3.7895,3.932,3.9044,0.0,0.0,0.0,4.3162,0.0,0.0,4.8625,4.9394,4.9394,5.025,5.0712,5.0712,5.0712,5.0712,5.0712,5.0712,5.0712,5.0712,5.0712,5.0712,5.0712,5.0712,5.0712,5.075,5.1279,5.1654,5.1962,5.2538,5.3472,5.4511,5.4511,5.5011,5.5703,3.2956,3.3201,3.332,3.2995,3.445,3.6289,3.8238,4.0964,4.5173,5.1724,5.3857,5.726,6.3891,6.5222,6.6556,6.8906,6.8125,6.5625,6.1133,5.8555,5.5898,5.293,4.7854,4.6437,4.9223,4.3696,4.0313,3.9432,3.7903,3.7469,3.7969,3.6577,3.6385,3.7199,3.7738,3.9585,4.2316,4.2893,4.5124,4.7885,4.3756,4.2727,4.3586,0.0,4.2823,4.4641,0.0,4.7394,4.7778,4.8317,4.7837,4.7402,4.9548,4.8332,4.6309,4.7629,4.7323,4.6491,4.5934,4.7213,0.0,4.3399,4.2731,0.0,3.7553,0.0,3.6759,0.0,0.0,0.0,0.0,0.0,3.682,3.5912,3.5846,3.568,0.0,3.4822,3.4773,3.4935,3.6499,3.7589,3.7734,3.8055,0.0,0.0,0.0,0.0,0.0,0.0,4.8625,4.8933,4.9779,5.0404,5.0712,5.0712,5.0712,5.0712,5.0712,5.0712,5.0712,5.0712,5.0712,5.0712,5.0712,5.0856,5.1164,5.1692,5.2269,5.2895,5.3433,5.4164,5.4895,5.4626,5.5011,5.5703,3.4765,3.4219,3.3945,3.4726,3.6172,3.7497,3.8325,4.1437,4.5935,5.2241,5.5386,5.9453,6.5742,6.9258,7.1133,7.1133,7.2539,7.0195,6.2578,6.2773,6.0937,5.5898,5.5334,5.5198,5.5324,4.9153,4.4682,4.2183,3.9373,3.8007,3.7969,3.7007,3.7007,3.7815,3.7853,3.97,4.2893,4.4517,4.7134,4.9615,4.288,3.9688,3.8944,3.8103,4.0836,4.5076,4.5475,4.6124,4.6846,4.6885,4.7432,4.8202,4.9125,4.9933,5.0596,5.0673,5.044,4.9804,4.8323,4.7616,4.6756,4.4372,0.0,0.0,0.0,0.0,4.0113,0.0,0.0,0.0,0.0,0.0,0.0,3.5813,3.5705,3.5584,3.4788,3.4713,3.4713,3.4733,3.4906,3.578,3.767,3.5699,3.5668,3.9053,0.0,4.0008,4.1808,0.0,4.7201,4.8086,4.8933,4.9817,5.0712,5.0712,5.0712,5.0712,5.075,5.075,5.0712,5.075,5.075,5.0712,5.0712,5.1164,5.1885,5.1962,5.2972,5.4511,5.4549,5.5011,5.5588,5.4857,5.5049,5.5703,3.5664,3.6983,3.7929,3.7453,3.675,3.6968,3.9062,4.1771,4.741,5.7966,6.1679,6.7031,7.6953,7.7656,7.7383,7.7383,7.6055,7.3047,6.7851,6.6484,6.4453,6.1172,5.7755,5.623,5.6909,5.0738,4.6582,4.4662,4.02,3.8007,3.7969,3.5815,3.4968,3.5206,3.5853,3.6962,3.843,3.9508,4.1162,4.2893,4.0507,4.0006,4.0702,0.0,4.2181,4.4322,4.5283,4.5748,4.6009,4.6701,4.7038,4.7471,4.8933,4.9125,4.9009,5.0327,5.0624,5.0602,5.0765,5.0751,5.0167,4.8048,4.6603,4.5163,0.0,0.0,0.0,0.0,0.0,0.0,0.0,0.0,0.0,3.6518,3.5666,3.5163,3.4743,3.4713,3.4783,3.4972,3.4471,3.4577,3.5742,3.5422,3.6315,3.9092,3.87,3.9892,4.347,0.0,0.0,4.8048,4.8933,4.9817,5.0712,5.0712,5.0712,5.0712,5.1318,5.1279,5.0712,5.1318,5.1279,5.0712,5.0712,5.1164,5.1962,5.2577,5.351,5.4549,5.5164,5.5511,5.5665,5.5472,5.5511,5.5703,3.7062,3.8744,4.011,3.9917,4.0684,4.1924,4.3713,4.4026,4.8298,5.9993,6.385,6.8669,7.6914,7.8945,7.9687,7.9687,7.7383,7.4219,7.0273,6.9805,6.8203,6.4844,6.2594,6.1312,6.1041,5.4869,5.0104,4.6901,4.2061,3.8738,3.6892,3.5045,3.4391,3.4776,3.4891,3.5815,3.743,3.9777,4.0431,4.0015,4.07,4.1204,0.0,4.1728,4.297,4.4739,4.5358,4.5594,4.5671,4.6163,4.6586,4.7038,4.8009,4.8202,4.8355,4.974,5.0125,5.0317,5.1164,5.1395,5.1095,4.9974,4.8994,4.7831,4.5799,4.5349,4.5086,0.0,0.0,0.0,0.0,0.0,0.0,3.6112,3.523,3.4917,3.4889,3.4879,3.4972,3.5239,3.4841,3.4726,3.5224,3.44,3.4891,3.7469,3.7199,0.0,0.0,0.0,0.0,4.6394,4.7663,4.9086,5.0673,5.0327,5.0327,5.0712,5.151,5.1471,5.075,5.1548,5.1654,5.1202,5.1202,5.1895,5.3087,5.3587,5.4241,5.5049,5.5511,5.5703,5.5703,5.5703,5.5703,5.5703,3.8738,4.011,4.1398,4.1828,4.5803,4.942,5.0927,4.8774,5.0773,6.1238,6.502,6.8418,7.2849,7.7226,7.9805,7.9726,7.7578,7.4844,7.1601,7.2695,7.1719,6.7734,6.8046,6.746,6.5624,5.9615,5.3914,4.8588,4.4021,3.9615,3.5308,3.4545,3.4507,3.4962,3.443,3.5468,3.7892,4.1501,4.1517,3.9367,4.1932,4.2518,4.1901,4.221,4.3713,4.564,4.564,4.5607,4.5594,4.5594,4.6086,4.674,4.6846,4.7317,4.8009,4.9086,4.9317,4.9433,5.0442,5.0712,5.0712,5.0712,5.0712,5.024,4.8499,4.8111,4.7586,4.5846,4.5481,4.4962,0.0,0.0,0.0,3.5627,3.5125,3.5278,3.5751,3.5823,3.5812,3.5825,3.5731,0.0,3.5346,3.3314,3.3045,3.5462,0.0,0.0,0.0,0.0,0.0,4.4739,4.6278,4.8163,5.0519,0.0,4.9933,5.0712,5.1625,5.1702,5.1058,5.1856,5.2192,5.2077,5.2077,5.301,5.4511,5.4511,5.4972,5.5703,5.5703,5.5703,5.5703,5.5703,5.5703,5.5703,4.0403,4.2257,4.3428,4.2048,4.767,5.4062,5.9106,5.9515,6.1701,6.8722,7.2072,7.5478,7.9789,8.0576,8.0469,7.9765,7.8672,7.7187,7.5117,7.4609,7.3398,7.1211,6.9788,6.7888,6.5509,6.0733,5.5013,4.8421,4.4095,3.9372,3.443,3.4282,3.3545,3.2429,3.366,3.4853,3.5937,3.6079,3.6991,3.8618,4.1213,4.2183,4.23,4.4385,4.5468,4.5852,4.5852,4.5725,4.5594,4.5594,4.571,4.5932,4.6663,4.6509,4.6479,4.874,4.8894,4.8663,5.0289,5.0712,5.0712,5.0712,5.0712,5.0625,5.024,5.0153,5.0066,4.9719,4.9632,4.8902,4.6513,0.0,0.0,0.0,0.0,0.0,3.9346,3.9538,3.9054,3.7731,3.693,3.5968,3.4545,3.4013,3.4507,3.6346,3.5199,0.0,0.0,0.0,0.0,0.0,4.774,0.0,0.0,0.0,5.0558,5.0712,5.2241,5.2895,5.2779,5.3664,5.3664,5.2972,5.2972,5.3549,5.4511,5.4511,5.4972,5.5703,5.5703,5.5703,5.5703,5.5703,5.5703,5.5703,4.2588,4.3273,4.4739,4.7835,5.3241,5.9435,6.6295,6.963,7.1332,7.1252,7.243,7.4126,7.6286,7.8682,8.0018,7.9586,7.8473,7.7265,7.5976,7.5078,7.3828,7.207,7.0306,6.8151,6.5573,6.2434,5.678,4.8511,4.5059,4.0194,3.4167,3.3314,3.2699,3.2397,3.4168,3.4947,3.5068,3.7394,0.0,4.1133,4.3704,4.4767,4.4884,4.6122,4.6273,4.5957,4.6429,4.6507,4.6339,4.5906,4.5751,4.5829,4.6248,4.6071,4.6028,4.7681,4.8137,4.8394,4.9663,5.0366,5.0712,5.0712,5.0712,5.0712,5.0712,5.0712,5.0712,5.0712,5.0712,4.9933,4.7355,4.347,0.0,0.0,0.0,0.0,0.0,4.147,4.0854,4.0085,3.8038,3.6546,3.6199,3.4975,3.4353,3.4699,3.4391,0.0,0.0,0.0,0.0,0.0,0.0,0.0,0.0,0.0,0.0,5.201,5.328,5.3626,5.3241,5.4087,5.428,5.3857,5.3857,5.4357,5.5126,5.5126,5.5357,5.5703,5.5703,5.5703,5.5703,5.5703,5.5758,5.5779,4.5702,4.511,4.6714,5.4493,5.9221,6.4239,7.1143,7.6669,7.8421,7.3845,7.3314,7.3404,7.3514,7.72,7.9608,7.9409,7.8035,7.6836,7.5976,7.4726,7.3437,7.207,7.0234,6.8086,6.5664,6.3775,5.8356,4.9181,4.6506,0.0,0.0,3.3301,3.2954,3.3818,3.486,0.0,0.0,0.0,4.3215,4.4695,4.6732,4.7551,4.7551,4.7551,4.7122,4.6612,4.7317,4.7551,4.7473,4.6768,4.6388,4.6195,4.639,4.6284,4.6299,4.7301,4.8012,4.8651,4.9486,5.0209,5.074,5.0721,5.0712,5.0712,5.0712,5.0712,5.0712,5.0712,5.0712,4.9971,4.7586,4.4808,0.0,0.0,0.0,0.0,0.0,4.3508,4.3162,4.2431,3.9969,3.8315,3.8277,3.6122,3.4391,3.3506,3.4237,0.0,3.65,0.0,0.0,0.0,0.0,4.8154,5.0808,0.0,5.1895,5.3203,5.4087,5.4241,5.3741,5.4434,5.4741,5.4741,5.4741,5.5126,5.5703,5.5703,5.5703,5.5714,5.5728,5.5758,5.5758,5.5982,5.6042,5.5955,5.0636,4.9658,5.0584,5.8792,6.3218,6.7095,7.1516,7.7207,8.0785,8.0238,8.0332,8.045,8.0461,8.0532,8.0271,7.9491,7.8035,7.6836,7.5976,7.3594,7.2187,7.1992,6.9648,6.7461,6.5625,6.3867,5.9059,5.1034,4.8362,4.3864,0.0,0.0,0.0,0.0,0.0,0.0,0.0,4.3195,4.5318,4.8237,4.8586,4.8748,4.8748,4.8748,4.8709,4.8631,4.8709,4.8748,4.8748,4.8631,4.7927,4.7216,4.7999,4.7717,4.7392,4.9066,4.9601,4.9793,5.0562,5.082,5.0859,5.073,5.0712,5.0712,5.0712,5.0712,5.0712,5.0712,5.0712,5.0125,4.8317,4.7124,4.5932,0.0,0.0,0.0,0.0,0.0,4.7548,4.4432,4.3778,4.2431,3.9477,3.7546,3.6115,3.5308,3.6,0.0,0.0,0.0,0.0,4.4201,0.0,4.7038,4.7385,5.1087,5.3049,5.3203,5.4087,5.4857,5.5472,5.5549,5.5588,5.5588,5.5588,5.5626,5.5703,5.5703,5.5703,5.5696,5.5843,5.5891,5.5993,5.6919,5.6786,5.6269,5.8637,5.7749,5.8974,6.6358,6.8372,7.0951,0.0,7.9639,8.1146,8.1258,8.1217,8.1021,8.0481,8.0019,7.9409,7.8513,7.7195,7.6055,7.5195,7.3633,7.207,7.0508,6.9492,6.7656,6.4883,6.414,6.0193,0.0,0.0,0.0,0.0,0.0,0.0,0.0,0.0,4.154,4.4406,4.6084,4.7886,4.9603,4.9648,4.9687,4.9687,4.9687,4.9375,4.8984,4.9492,4.9687,4.9766,5.0234,4.9448,4.8294,4.8646,4.8467,4.8239,4.8938,4.9446,4.9849,5.0181,5.0625,5.099,5.0966,5.0945,5.0945,5.0945,5.0898,5.0957,5.1421,5.1885,5.1972,5.1279,4.9663,4.8663,0.0,0.0,0.0,0.0,0.0,4.7355,4.397,4.1777,4.0008,3.8661,3.6507,3.5699,3.693,3.6385,0.0,0.0,0.0,0.0,4.2739,0.0,4.8394,4.8394,5.2125,5.4203,5.4703,5.5049,5.5395,5.5703,5.5703,5.5703,5.5703,5.5703,5.5703,5.5724,5.5798,5.5825,5.5891,5.6534,5.6803,5.6893,5.7859,5.8043,5.7853,6.5556,6.4575,6.5875,7.3296,7.333,7.4358,8.056,8.1359,8.1246,8.112,8.0999,8.0652,7.9962,7.9435,7.8769,7.7975,7.6449,7.5273,7.4648,7.3281,7.1601,6.9492,6.9219,0.0,6.4375,6.4297,6.1405,5.5457,5.1286,0.0,0.0,0.0,0.0,0.0,4.4266,4.565,4.7336,4.9218,5.0508,5.1289,5.1055,5.1094,5.125,5.0742,5.0312,5.0078,5.043,5.0547,5.0664,5.1484,5.1016,4.9961,4.9726,4.941,4.9199,4.9433,4.9877,5.0251,5.0187,5.0632,5.1152,5.1289,5.1341,5.138,5.1651,5.1632,5.1725,5.2296,5.282,5.328,5.3549,5.1895,5.101,5.2587,0.0,0.0,0.0,4.9471,4.7702,4.4586,4.1854,4.0046,3.9546,3.7392,3.7014,3.9315,0.0,0.0,0.0,0.0,0.0,0.0,0.0,0.0,0.0,5.301,5.5126,5.5703,5.5703,5.5703,5.5703,5.5703,5.5703,5.5703,5.5703,5.5703,5.5724,5.5831,5.604,5.6343,5.7159,5.7619,5.794,5.887,5.9117,5.899,7.0329,6.8908,6.9708,7.8741,7.764,7.6941,8.108,8.168,8.1361,8.0505,8.0419,8.0336,8.014,7.9504,7.8819,7.8148,7.5963,7.4609,7.4609,7.2187,7.0312,0.0,0.0,6.6992,6.4375,6.4297,6.2617,5.914,0.0,0.0,5.1066,0.0,4.6106,4.8568,4.7792,4.9368,5.2617,5.2656,5.3164,5.3867,5.3008,5.3203,5.3789,5.2031,5.1914,5.2539,5.168,5.1406,5.1523,5.2383,5.2656,5.25,5.1641,5.082,5.0351,5.1133,5.1367,5.1323,5.1156,5.1089,5.1214,5.1749,5.1895,5.2125,5.2982,5.3164,5.3164,5.3164,5.3203,5.3472,5.4318,5.378,5.2895,5.2038,0.0,0.0,0.0,5.0125,0.0,4.7163,4.6047,4.4863,4.3201,4.1439,4.117,4.2893,0.0,0.0,0.0,0.0,0.0,4.4162,4.6778,0.0,4.9394,5.3587,5.5703,5.5703,5.5703,5.5703,5.5703,5.5703,5.5703,5.5703,5.5703,5.5703,5.5724,5.5831,5.6388,5.7219,5.7572,5.8187,5.9017,5.9996,5.9883,5.9296,7.8092,7.7631,7.7907,8.0769,8.0447,8.0227,8.1694,8.1805,8.146,8.0708,8.0474,7.9983,7.8877,7.8542,7.8121,0.0,7.5652,7.4609,0.0,7.2148,7.0312,6.9492,6.8633,6.6992,6.4375,6.4297,6.289,6.0039,0.0,0.0,0.0,4.8988,4.9432,5.1404,5.117,5.1991,5.3594,5.3594,5.375,5.3984,5.3711,5.375,5.3945,5.3398,5.3359,5.3555,5.3281,5.3164,5.3203,5.3476,5.3594,5.3555,5.3242,5.2923,5.2589,5.2238,5.252,5.289,5.2816,5.2791,5.2847,5.3016,5.3067,5.3145,5.3416,5.3855,5.4205,5.4118,5.4511,5.4972,5.528,5.5088,5.4818,5.4549,5.3549,0.0,5.051,0.0,4.6056,4.2893,4.1277,4.0431,4.0508,4.0516,0.0,0.0,0.0,0.0,0.0,0.0,0.0,0.0,4.8163,0.0,5.0289,5.3895,5.5703,5.5703,5.5703,5.6011,5.656,5.5972,5.6011,5.6599,5.6599,5.6626,5.6777,5.7525,5.8015,5.8429,5.9234,5.9682,6.0035,6.0937,6.1133,6.0937,8.1825,8.1873,8.1909,8.1909,8.1909,8.1976,8.2071,8.1996,8.1663,8.09,8.0431,7.9669,7.8401,7.7976,0.0,7.7041,7.5542,7.4609,7.4609,7.2461,7.0664,6.9492,6.8945,6.7422,6.4844,6.4453,0.0,6.1367,5.855,5.589,5.3467,5.3467,5.4058,5.5117,5.4805,5.4961,5.543,5.5117,5.4961,5.4961,5.4609,5.4687,5.4922,5.4258,5.4219,5.4453,5.4101,5.3984,5.4062,5.4375,5.4492,5.4492,5.4492,5.4587,5.4472,5.3331,5.3302,5.3662,5.3557,5.3521,5.3586,5.3868,5.3924,5.4001,5.4311,5.4752,5.5045,5.4965,5.5357,5.5703,5.5703,5.5703,5.5703,5.5703,5.428,5.2626,5.0943,0.0,4.471,0.0,0.0,0.0,0.0,4.2709,4.3701,0.0,0.0,0.0,0.0,0.0,0.0,4.547,4.9971,0.0,5.2125,5.4511,5.5703,5.5703,5.6011,5.6626,5.7473,5.6934,5.6973,5.7473,5.7473,5.7541,5.7678,5.8358,5.8886,5.9299,6.0048,6.0539,6.0891,6.1484,6.1719,6.1719,8.2003,8.2173,8.2304,0.0,8.2304,0.0,8.2304,8.2304,8.1953,8.1015,8.0195,7.9375,7.8515,7.7695,7.7187,7.7187,0.0,0.0,0.0,7.289,7.1172,6.9492,6.9336,6.8164,6.5664,6.4765,6.3828,6.289,6.1289,6.0078,5.9297,5.9297,5.9258,5.914,5.8359,5.8008,5.793,5.707,5.668,5.6601,5.5742,5.5898,5.6406,5.4805,5.4687,5.5273,5.4453,5.418,5.4297,5.5117,5.539,5.539,5.5469,5.5821,5.5925,5.433,5.391,5.39,5.3705,5.3646,5.3829,5.4572,5.4741,5.4972,5.5703,5.5895,5.5895,5.5895,5.5895,5.5857,5.578,5.578,5.5742,5.5626,5.4126,5.2356,5.0673,0.0,4.5171,0.0,0.0,0.0,0.0,4.7278,4.8548,0.0,0.0,0.0,0.0,0.0,4.721,4.951,5.201,5.3703,5.4587,5.5395,5.5818,5.5895,5.6714,5.755,5.8396,5.8319,5.8319,5.8396,5.8396,5.8407,5.8402,5.8615,5.9146,5.9948,6.017,6.0795,6.1512,6.1635,6.1679,6.1719,0.0,0.0,8.2304,8.2304,8.2304,8.2304,8.2304,8.2304,8.1758,8.0195,7.9844,7.914,7.7656,7.7305,7.7187,7.7187,7.5625,7.4609,7.4609,7.2344,7.0547,6.9531,6.8828,6.7578,6.5625,6.4765,6.3555,6.1992,6.1601,6.0937,6.0117,6.0117,5.9805,5.918,5.8984,5.8906,5.8828,5.7969,5.7578,5.7539,5.664,5.6406,5.6562,5.6133,5.6094,5.6289,5.6055,5.5976,5.6015,5.6211,5.6289,5.6406,5.707,5.6911,5.6266,5.4991,5.4932,5.5362,5.5981,5.6144,5.6365,5.7176,5.7396,5.7434,5.7627,5.7665,5.7665,5.7665,5.7665,5.7473,5.683,5.6676,5.6291,5.4972,5.2241,4.9702,4.8048,4.5432,0.0,0.0,4.4701,4.5941,4.8279,4.8856,4.9163,0.0,0.0,0.0,0.0,5.0664,5.1356,5.1308,5.3164,5.4587,5.5395,5.6252,5.7011,5.7703,5.7896,5.8434,5.9204,5.8588,5.8627,5.9204,5.9204,5.9297,5.9493,6.0128,6.0631,6.0968,6.1001,6.124,6.1507,6.1522,6.1629,6.1719,8.2304,8.2304,8.2304,8.2304,8.2304,8.2304,8.2304,8.2304,8.1953,8.1015,8.0195,7.9336,7.8437,7.7656,7.7187,7.7187,7.5625,7.4609,7.4609,7.2539,7.0937,7.0078,6.9219,6.8125,6.6836,6.5547,6.4023,6.2305,6.1914,6.1445,6.0976,6.0976,6.0742,6.0312,5.9922,5.9765,5.9687,5.8867,5.8476,5.8437,5.7969,5.7773,5.7773,5.7773,5.7773,5.7773,5.7773,5.7773,5.7773,5.7773,5.7773,5.7851,5.8359,5.8076,5.7437,5.6816,5.6569,5.6545,5.6894,5.728,5.7703,5.8165,5.8319,5.8319,5.8319,5.8319,5.8319,5.8319,5.8319,5.8165,5.7665,5.7291,5.656,5.5241,5.1856,4.9086,4.8163,4.5201,0.0,4.5817,4.6432,4.774,5.0317,5.1279,5.1587,5.1164,5.2279,0.0,5.1779,5.378,5.4357,5.3126,5.4741,5.6049,5.6896,5.7357,5.8011,5.8858,5.8858,5.9281,6.0089,5.9627,5.9665,6.0089,6.0089,6.0151,6.0287,6.0712,6.0983,6.1087,6.1227,6.1334,6.1409,6.1566,6.1634,6.1719,8.2304,8.2304,8.2304,8.2304,8.2304,8.2304,8.2304,8.2304,8.2265,8.2109,8.0703,7.9648,7.9531,7.8125,7.7187,7.7187,7.5742,7.4805,7.4805,7.3164,7.1797,7.0937,6.9922,6.9023,6.8203,6.6367,6.4609,6.3008,6.2148,6.1719,6.1719,6.1719,6.1719,6.168,6.0937,6.0586,6.0547,5.9726,5.9375,5.9375,5.9258,5.9219,5.9219,5.9219,5.9219,5.9219,5.9219,5.9219,5.9219,5.9219,5.9179,5.9178,5.9295,5.9045,5.8715,5.8815,5.833,5.7677,5.7428,5.8011,5.8665,5.8665,5.8665,5.8665,5.8665,5.8665,5.8665,5.8665,5.8665,5.8627,5.8511,5.778,5.6791,5.5511,5.1779,4.8971,4.8856,0.0,4.4701,4.8086,4.8933,5.0202,5.2615,5.4087,5.4626,5.401,5.5164,5.5665,5.5088,5.6434,5.6588,5.528,5.6511,5.7588,5.8473,5.8473,5.8896,5.9704,5.9704,6.0089,6.0781,6.0781,6.0781,6.0781,6.0781,6.0781,6.0781,6.0781,6.0816,6.0867,6.1128,6.1277,6.1349,6.1582,6.1679,6.1719,8.2304,8.2304,8.2304,8.2304,8.2304,8.2304,8.2304,8.2304,8.2031,8.1289,8.0312,7.9453,7.875,7.7812,7.7187,7.7187,7.6289,7.5703,7.5703,7.4062,7.2695,7.1836,7.0312,6.9062,6.8203,6.5781,6.4023,6.3008,6.2148,6.1719,6.1719,6.1719,6.1719,6.168,6.1562,6.1484,6.1445,6.0586,6.0195,6.0156,5.9453,5.9219,5.9219,5.9219,5.9219,5.9219,5.9219,5.9219,5.9219,5.9219,5.9092,5.9097,5.98,5.9416,5.8835,5.9436,5.9498,5.9314,5.9138,5.9742,6.0396,6.0396,6.0396,6.0396,6.0396,6.0396,6.0396,6.0396,6.0396,6.0204,5.9435,5.8665,5.7126,5.4087,5.0048,4.7048,4.6287,0.0,4.6479,4.9904,5.2779,5.5241,5.7126,5.6896,5.6857,5.7473,5.7049,5.706,5.7665,5.7973,5.828,5.8704,5.8319,5.8473,5.9319,5.9319,5.9742,6.0589,6.0589,6.0666,6.0781,6.0781,6.0781,6.0781,6.0781,6.0781,6.0781,6.0781,6.086,6.0952,6.1023,6.1214,6.1488,6.1512,6.1587,6.1719,8.2304,8.2304,8.2304,8.2304,8.2304,8.2304,8.2304,8.2304,8.1992,8.1094,8.0234,7.9375,7.8594,7.7734,7.7187,7.7187,7.6836,7.6406,7.5937,7.4258,7.3125,7.2734,7.0625,6.8828,6.7539,6.5859,6.457,6.3711,6.2812,6.2148,6.1719,6.1719,6.1719,6.1719,6.1719,6.1719,6.168,6.1289,6.1094,6.1055,6.0703,6.0547,6.0547,6.0459,6.0451,6.0448,6.0375,6.0321,6.0321,6.0321,6.0251,6.0248,6.0677,6.0388,6.0026,6.0334,6.0055,5.9675,6.0084,6.0473,6.0781,6.0781,6.0781,6.0781,6.0781,6.0781,6.0781,6.0781,6.0781,6.0666,6.0281,5.9165,5.7473,5.4972,5.101,0.0,0.0,4.8202,4.9086,5.2943,5.5175,5.6896,5.8165,5.7934,5.7857,5.828,5.7934,5.805,5.8896,5.8934,5.9319,6.0165,5.9858,5.9819,6.0204,6.0204,6.0396,6.0781,6.0781,6.0781,6.0781,6.0781,6.0781,6.0781,6.0781,6.0781,6.0781,6.0781,6.0882,6.1014,6.1128,6.1279,6.1509,6.158,6.1636,6.1719,8.2304,8.2304,8.2304,8.2304,8.2304,8.2304,8.2304,8.2304,8.207,8.1406,8.0351,7.9453,7.8867,7.7812,7.7187,7.7187,7.7187,7.6836,7.5976,7.4453,7.3515,7.332,7.0781,6.8633,6.6953,6.6055,6.5273,6.4609,6.3711,6.2969,6.2305,6.2109,6.1992,6.1992,6.1797,6.1679,6.1638,6.1638,6.1634,6.1627,6.1627,6.1627,6.1585,6.1498,6.1432,6.1463,6.1562,6.1439,6.1322,6.1517,6.1415,6.1266,6.146,6.1407,6.1302,6.1495,6.0997,6.055,6.1204,6.1243,6.1089,6.1089,6.0935,6.0781,6.0781,6.0781,6.0781,6.0781,6.0781,6.0781,6.0781,5.9588,5.8011,5.628,0.0,0.0,0.0,5.1395,5.201,5.5857,5.7049,5.7934,5.8819,5.8896,5.8896,5.8896,5.8896,5.9165,5.9781,5.9819,6.0127,6.0781,6.0781,6.0781,6.0781,6.0781,6.0781,6.0781,6.0781,6.0781,6.0781,6.0781,6.0781,6.0781,6.0781,6.0827,6.0856,6.0856,6.0935,6.1126,6.1295,6.1413,6.1573,6.1677,6.1719,6.1719,8.2304,8.2304,8.2304,8.2304,8.2304,8.2304,8.2304,8.2304,8.2265,8.2226,8.0742,7.9687,7.9609,7.8164,7.7187,7.7187,7.7187,7.6836,7.5976,7.5039,7.414,7.3359,7.0781,6.8633,6.6953,6.6055,6.5586,6.5508,6.4648,6.418,6.4101,6.3281,6.289,6.2851,6.207,6.1633,6.1512,6.1512,6.1424,6.1318,6.1318,6.1318,6.1318,6.1306,6.1301,6.1417,6.2139,6.1945,6.14,6.2172,6.1801,6.1178,6.1983,6.2122,6.2163,6.2933,6.3063,6.3038,6.3089,6.2551,6.1985,6.1985,6.1408,6.0781,6.0781,6.0781,6.0781,6.0781,6.0781,6.0781,6.0781,6.005,5.8858,5.7192,0.0,0.0,5.428,5.4203,5.5126,5.778,5.8819,5.9665,6.0512,6.0627,6.0627,6.0627,6.0627,6.0627,6.0704,6.0704,6.0742,6.0781,6.0781,6.0781,6.0781,6.0781,6.0781,6.0781,6.0781,6.0781,6.0781,6.0781,6.0781,6.0781,6.0781,6.086,6.097,6.097,6.1175,6.1446,6.1491,6.1575,6.1679,6.1719,6.1719,6.1719,8.2304,8.2304,8.2304,8.2304,8.2304,8.2304,8.2304,8.2304,8.2109,8.1562,8.0937,8.0117,7.9062,7.8398,7.7773,7.7265,7.7187,7.6601,7.5195,7.4765,7.3711,7.1758,7.0273,6.8906,6.7734,6.6836,6.6133,6.5586,6.5273,6.4844,6.4297,6.3945,6.3747,6.3646,6.2789,6.2593,6.2878,6.2333,6.2385,6.2795,6.225,6.2061,6.1972,6.1359,6.1469,6.195,6.2161,6.2375,6.2597,6.2907,6.273,6.2491,6.2827,6.2876,6.3012,6.3858,6.4128,6.4205,6.4782,6.3897,6.2858,6.2858,6.2204,6.1743,6.2243,6.1973,6.1743,6.2243,6.1935,6.1601,6.1601,6.0435,5.9127,5.8011,0.0,5.606,5.606,5.6511,5.7396,5.8858,5.9781,6.0435,6.0781,6.0781,6.0781,6.0781,6.0781,6.0781,6.0781,6.0781,6.0781,6.0781,6.0781,6.0781,6.0781,6.0781,6.0781,6.0781,6.0781,6.0781,6.0781,6.0781,6.0781,6.0793,6.0902,6.0954,6.1014,6.1143,6.1323,6.1504,6.1504,6.158,6.1719,6.1719,6.1719,6.1719,8.2304,8.2304,8.2304,8.2304,8.2304,8.2304,8.2304,8.2304,8.2109,8.1484,8.0937,8.0156,7.8984,7.8398,7.7851,7.7265,7.7187,7.6562,7.5117,7.4492,7.3164,7.0781,7.0156,6.9336,6.8203,6.7617,6.6875,6.6015,6.6015,6.5663,6.5032,6.4759,6.454,6.438,6.3483,6.3336,6.3719,6.3097,6.3138,6.3588,6.3006,6.2579,6.2299,6.1601,6.1727,6.2238,6.244,6.282,6.3346,6.3628,6.3551,6.3346,6.3628,6.3897,6.4282,6.5128,6.5205,6.5128,6.5743,6.5013,6.4051,6.3782,6.3089,6.2627,6.3166,6.2858,6.2627,6.3205,6.2858,6.2474,6.2474,6.1512,6.0512,5.9973,5.9358,5.8907,5.8638,5.9127,5.9588,5.9896,6.0435,6.0781,6.0781,6.0781,6.0781,6.0781,6.0781,6.0781,6.0781,6.0781,6.0781,6.0781,6.0781,6.0781,6.0781,6.0781,6.0781,6.0781,6.0781,6.0781,6.0781,6.0781,6.0781,6.0804,6.0935,6.104,6.112,6.1295,6.1424,6.1573,6.1573,6.1787,6.2109,6.2109,6.2265,6.2539,8.2304,8.2304,8.2304,8.2304,8.2304,8.2304,8.2304,8.2304,8.2304,8.2304,8.0781,7.9726,7.9687,7.8203,7.7226,7.7187,7.7187,7.6836,7.5937,7.4258,7.2539,7.0781,7.0703,6.9922,6.8242,6.8203,6.7773,6.6914,6.6914,6.6789,6.6577,6.5715,6.523,6.5051,6.4189,6.3735,6.3612,6.3612,6.3503,6.332,6.3308,6.282,6.2139,6.2101,6.2101,6.2216,6.3012,6.3308,6.3474,6.432,6.4051,6.3462,6.4359,6.5205,6.609,6.6859,6.6551,6.5897,6.5897,6.5897,6.5705,6.482,6.3935,6.3308,6.332,6.332,6.3308,6.332,6.3308,6.3308,6.3308,6.3308,6.3308,6.3308,6.3308,6.3012,6.2216,6.2101,6.1793,6.0896,6.0781,6.0781,6.0819,6.0819,6.0819,6.0781,6.0781,6.0781,6.0781,6.0781,6.0781,6.0781,6.0781,6.0781,6.0781,6.0781,6.0781,6.0781,6.0781,6.0781,6.0781,6.0781,6.0793,6.0804,6.0935,6.1128,6.1301,6.1467,6.158,6.1719,6.1719,6.2226,6.3008,6.3008,6.3555,6.4297,8.2304,8.2304,8.2304,8.2304,8.2304,8.2304,8.2304,8.2304,8.2304,8.2304,8.1328,8.039,7.9765,7.875,7.7851,7.7265,7.7057,7.6311,7.467,7.349,7.2399,7.1307,7.0881,7.0426,6.9811,6.8601,6.7796,6.7408,6.6828,6.6537,6.6457,6.6185,6.5978,6.5743,6.489,6.4754,6.5184,6.4567,6.4636,6.5051,6.4474,6.4089,6.3782,6.3166,6.332,6.3897,6.4128,6.4628,6.5166,6.5436,6.532,6.5282,6.609,6.6936,6.7705,6.7936,6.7398,6.6744,6.6744,6.632,6.582,6.559,6.4859,6.4359,6.4974,6.4666,6.4397,6.5013,6.4628,6.4205,6.4205,6.3705,6.3308,6.3308,6.3308,6.3012,6.2216,6.2101,6.1985,6.1755,6.1166,6.105,6.1639,6.1716,6.1447,6.0858,6.0781,6.0781,6.0781,6.0781,6.0781,6.0781,6.0781,6.0781,6.0781,6.0781,6.0781,6.0781,6.0781,6.0781,6.0793,6.0884,6.0925,6.0954,6.1226,6.1396,6.1432,6.1582,6.2029,6.2617,6.2617,6.3125,6.3906,6.3906,6.4062,6.4297,8.2304,8.2304,8.2304,8.2304,8.2304,8.2304,8.2304,8.2304,8.2304,8.2304,8.125,8.0273,7.9765,7.859,7.7644,7.7137,7.6919,7.6153,7.4598,7.4007,7.319,7.2022,7.1651,7.1143,7.0415,6.9358,6.8577,6.8125,6.7275,6.6853,6.678,6.6431,6.62,6.5986,6.5484,6.5461,6.5859,6.532,6.5436,6.5859,6.532,6.4897,6.4551,6.4012,6.4128,6.4589,6.4589,6.5166,6.5936,6.6282,6.659,6.7013,6.7859,6.8244,6.8475,6.8821,6.8052,6.709,6.709,6.6744,6.6282,6.5974,6.5513,6.5243,6.5782,6.5474,6.5243,6.5782,6.5474,6.5128,6.5128,6.4666,6.432,6.432,6.432,6.4051,6.3205,6.3089,6.2974,6.2627,6.2127,6.2012,6.2512,6.2551,6.2358,6.182,6.1473,6.132,6.132,6.0973,6.0781,6.0781,6.0781,6.0781,6.0781,6.0781,6.0781,6.0781,6.0781,6.0781,6.0793,6.1239,6.1457,6.1535,6.2141,6.2446,6.2524,6.2652,6.3047,6.3476,6.3125,6.375,6.4765,6.4414,6.4726,6.5312,8.2304,8.2304,8.2304,8.2304,8.2304,8.2265,8.2187,8.2187,8.2148,8.207,8.0625,7.957,7.957,7.7935,7.6868,7.6864,7.6702,7.6195,7.5316,7.5238,7.4452,7.2742,7.2664,7.1886,7.0292,7.019,6.9763,6.8956,6.8115,6.7556,6.7348,6.6574,6.6091,6.5897,6.5897,6.5897,6.5897,6.5897,6.5897,6.5897,6.5897,6.5436,6.4705,6.4705,6.4705,6.4705,6.4705,6.5243,6.6013,6.6821,6.7744,6.8667,6.9436,6.9206,6.8783,6.959,6.8629,6.7321,6.7321,6.7282,6.7051,6.632,6.6128,6.609,6.5936,6.5974,6.6013,6.6013,6.6013,6.6013,6.6013,6.5936,6.5897,6.5897,6.5897,6.559,6.4705,6.4589,6.432,6.3512,6.3346,6.332,6.3423,6.3346,6.332,6.3423,6.2666,6.2216,6.2216,6.1435,6.1012,6.1012,6.1012,6.0973,6.0935,6.0973,6.0973,6.0935,6.0935,6.0935,6.105,6.189,6.2334,6.2499,6.3437,6.393,6.4138,6.4254,6.4336,6.4336,6.3555,6.4258,6.5625,6.4844,6.5547,6.6914,8.2304,8.2304,8.2304,8.2304,8.2304,8.207,8.1406,8.1289,8.1054,8.0351,7.9242,7.8549,7.8512,7.7404,7.6683,7.6683,7.6493,7.5946,7.4912,7.4822,7.4089,7.2391,7.2314,7.1813,7.0771,7.0222,6.9807,6.9524,6.8636,6.788,6.7164,6.6972,6.655,6.5897,6.5897,6.5897,6.5897,6.5897,6.5897,6.5897,6.5897,6.5782,6.5628,6.5628,6.5628,6.5628,6.5628,6.5743,6.6013,6.6821,6.8129,6.9436,6.9629,7.0014,7.0398,7.0591,6.9937,6.9129,6.9129,6.8629,6.809,6.7898,6.7859,6.7513,6.6205,6.6397,6.6821,6.6821,6.6821,6.6821,6.6821,6.632,6.5897,6.5897,6.5897,6.559,6.4705,6.4589,6.4551,6.4359,6.3743,6.3589,6.4243,6.3705,6.3589,6.4282,6.3512,6.3051,6.3051,6.2858,6.2781,6.2781,6.2781,6.2474,6.1831,6.2435,6.2435,6.1831,6.1831,6.2166,6.2755,6.324,6.3454,6.3515,6.3968,6.4211,6.4255,6.4297,6.4687,6.5312,6.5117,6.5664,6.6601,6.6406,6.6562,6.6914,8.2304,8.2304,8.2304,8.2304,8.2304,8.1992,8.1133,8.1015,8.0859,8.039,7.9426,7.8753,7.8757,7.7747,7.6876,7.6366,7.6207,7.5915,7.5375,7.5322,7.4745,7.3437,7.3014,7.2399,7.1552,7.0772,7.0348,7.0283,6.9436,6.8783,6.8321,6.7475,6.6859,6.6436,6.6051,6.5897,6.5897,6.5897,6.5897,6.5897,6.5897,6.5897,6.5897,6.5897,6.5897,6.5897,6.5897,6.6397,6.7167,6.759,6.8859,7.0283,7.0283,7.0552,7.0898,7.0898,7.0321,6.9706,6.9706,6.936,6.8936,6.85,6.8706,6.8667,6.7398,6.7436,6.7705,6.7705,6.7705,6.759,6.7167,6.6744,6.6359,6.5974,6.5897,6.5743,6.5282,6.5205,6.5205,6.5205,6.482,6.4705,6.5166,6.482,6.4743,6.5205,6.4397,6.3935,6.3935,6.3551,6.3308,6.3308,6.3308,6.3089,6.2666,6.3089,6.332,6.3281,6.2858,6.2897,6.3332,6.3997,6.4323,6.4459,6.5103,6.5463,6.5547,6.5547,6.582,6.6172,6.5742,6.6133,6.6836,6.6445,6.6523,6.6914,8.2304,8.2304,8.2304,8.2304,8.2304,8.1992,8.1133,8.1015,8.0937,8.0781,7.9923,7.931,7.9162,7.8064,7.6958,7.6082,7.6015,7.5938,7.5784,7.5784,7.5399,7.4553,7.3707,7.2937,7.2206,7.136,7.0898,7.0898,7.0244,6.9821,6.9667,6.8205,6.7398,6.7051,6.6397,6.6013,6.5897,6.5897,6.5897,6.5897,6.5897,6.5897,6.5897,6.5897,6.5897,6.5897,6.5897,6.6974,6.8436,6.8577,6.9629,7.0898,7.0898,7.0898,7.0898,7.0898,7.0437,6.9898,6.9898,6.9898,6.9744,6.9013,6.936,6.9706,6.9013,6.8744,6.8629,6.8629,6.8629,6.8398,6.7667,6.7282,6.6936,6.6397,6.609,6.5936,6.609,6.609,6.6051,6.5897,6.5897,6.5936,6.609,6.5974,6.5897,6.5897,6.5243,6.482,6.482,6.4128,6.3743,6.3743,6.3743,6.3666,6.3512,6.3666,6.4051,6.4589,6.4012,6.3743,6.3782,6.4636,6.5101,6.5311,6.6217,6.669,6.6834,6.6875,6.6914,6.6836,6.6094,6.625,6.6797,6.6094,6.6289,6.6914,8.2304,8.2304,8.2304,8.2304,8.2304,8.1992,8.1133,8.1015,8.0742,7.9961,7.9444,7.8883,7.8189,7.6969,7.6149,7.6015,7.6015,7.5668,7.4938,7.4899,7.4514,7.3707,7.2822,7.2322,7.2206,7.136,7.0898,7.0898,7.0783,7.0398,6.9706,6.9475,6.8552,6.709,6.6974,6.6551,6.5897,6.5897,6.5897,6.5897,6.5897,6.5897,6.5897,6.5897,6.5897,6.5897,6.5897,6.6974,6.8513,6.9283,7.0129,7.0898,7.0898,7.0898,7.0898,7.0898,7.0821,7.0744,7.0744,7.0744,7.0706,7.0591,7.0667,7.0706,7.0591,7.0014,6.9513,6.9513,6.9513,6.9475,6.936,6.8129,6.7321,6.7975,6.6859,6.6128,6.6821,6.6936,6.6667,6.5974,6.5897,6.6167,6.6859,6.632,6.5897,6.5897,6.5782,6.5705,6.5705,6.559,6.5551,6.5551,6.5551,6.5205,6.4436,6.5166,6.5243,6.4628,6.5243,6.5551,6.5564,6.5796,6.5934,6.5989,6.641,6.6622,6.6636,6.6832,6.6914,6.6875,6.6758,6.6797,6.6875,6.6758,6.6797,6.6914,8.2304,8.2304,8.2304,8.2304,8.2304,8.1992,8.1133,8.1015,8.0663,7.967,7.9271,7.8762,7.7825,7.6687,7.6015,7.6015,7.6015,7.5822,7.5438,7.4976,7.4553,7.4207,7.2899,7.2206,7.2206,7.136,7.0898,7.0898,7.0898,7.0706,7.036,6.9898,6.9013,6.7782,6.7321,6.6628,6.5897,6.5897,6.5897,6.5936,6.6397,6.6551,6.6551,6.6551,6.6859,6.7321,6.7321,6.7782,6.8552,6.9398,7.0244,7.0898,7.0898,7.0898,7.0898,7.0898,7.0898,7.0898,7.0898,7.0898,7.0898,7.0898,7.1283,7.1514,7.1014,7.1014,7.0975,7.0475,7.036,7.0244,6.9783,6.9052,6.8513,6.8436,6.7782,6.7244,6.7128,6.7513,6.7705,6.7359,6.7321,6.7244,6.709,6.6782,6.6359,6.5936,6.5897,6.5897,6.5897,6.5897,6.5897,6.5897,6.5897,6.5705,6.532,6.5705,6.5705,6.532,6.5705,6.5897,6.591,6.6028,6.6144,6.6283,6.6512,6.6641,6.6785,6.6874,6.6914,6.6914,6.6914,6.6914,6.6914,6.6914,6.6914,6.6914]}]]